.

MPMG - Transparência

Contracheque - Remuneração de todos os servidores ativos - Pós Resolução CNMP 200/2019

Período: 2023 - Fevereiro

Ordem Matrícula Nome Cargo Efetivo Lotação Rendimentos Descontos Rendimento Líquido Total *14 Data de Referência
Remuneração básica Remuneração eventual ou Temporária Outras Remunerações Temporárias *7 Verbas Indenizatórias *8 Total de Rendimentos Brutos *9 Obrigatórios Legais Outros Descontos Eventuais Total de descontos *13
Remuneração do Cargo Efetivo *1 Outras Verbas Remuneratórias *2 Função de Confiança ou Cargo em Comissão *3 Gratificação Natalina *4 Férias 1/3 Constitucional *5 Abono de Permanência *6 Contribuição Previdenciária *10 Imposto de Renda *11 Retenção por Teto Constitucional *12
1 498900 ABDON MARCIO BARBOSA DA SILVA OFICIAL DO MP ABRE CAMPO - COMARCA; ABRE CAMPO-PJ-01PJ 6.694,66 1.338,93 0,00 0,00 0,00 0,00 0,00 2.187,90 10.221,49 1.066,32 942,36 0,00 0,00 2.008,68 8.212,81 28/02/2023
2 177800 ADALBERTO MENEZES FARIA SAMORA OFICIAL DO MP BELO HORIZONTE - COMARCA; DIRET DE PLANOS PROJETOS E PROGRAMAS INST 19.037,29 7.614,92 0,00 0,00 0,00 0,00 488,62 7.241,44 34.382,27 4.045,30 5.243,27 0,00 0,00 9.288,57 25.093,70 28/02/2023
3 306400 ADALBERTO MOREIRA GONCALVES ANALISTA DO MP BELO HORIZONTE - COMARCA; BH-24PJ JUIZO REG BARREIRO-SECRETARIA 19.791,01 5.937,30 0,00 0,00 0,00 0,00 471,69 7.056,66 33.256,66 3.897,48 5.134,12 0,00 0,00 9.031,60 24.225,06 28/02/2023
4 179300 ADENISE AUXILIADORA SOUZA SAD OFICIAL DO MP BARBACENA - COMARCA; BARBACENA-PJ-06PJ 18.312,36 7.324,94 0,00 0,00 0,00 0,00 470,02 7.038,46 33.145,78 3.882,92 5.008,82 0,00 0,00 8.891,74 24.254,04 28/02/2023
5 272200 ADILSON BATISTA ORNELAS OFICIAL DO MP LAVRAS - COMARCA; LAVRAS-PJ-SECRETARIA 6.694,66 2.008,40 0,00 0,00 0,00 0,00 255,29 4.695,98 13.654,33 1.173,44 1.149,15 0,00 0,00 2.322,59 11.331,74 28/02/2023
6 380100 ADILSON GONCALVES DE MELO JUNIOR ANALISTA DO MP ARAXÁ - COMARCA; ARAXA-PJ-05PJ 14.687,60 2.937,52 0,00 0,00 0,00 0,00 517,00 7.551,04 25.693,16 2.600,97 3.158,01 0,00 0,00 5.758,98 19.934,18 28/02/2023
7 148800 ADILSON JANUARIO OFICIAL DO MP BELO HORIZONTE - COMARCA; BH-22PJ PES COM DEF E IDOSOS-SECRETARIA 20.574,59 16.459,68 0,00 0,00 0,00 5.454,90 520,11 7.584,95 50.594,23 5.454,90 8.830,61 1.572,05 0,00 15.857,56 34.736,67 28/02/2023
8 322601 ADMILSON SILVEIRA ANALISTA DO MP SAO JOAO DO PARAISO COMARCA; SAO JOAO DO PARAISO-PJ-UNPJ 11.008,33 1.100,83 0,00 0,00 4.036,39 0,00 532,80 8.608,70 25.287,05 1.718,41 3.098,10 0,00 0,00 4.816,51 20.470,54 28/02/2023
9 333700 ADRIANA ABRITTA TEIXEIRA OFICIAL DO MP BELO HORIZONTE - COMARCA; DIRET DE PESSOAL DO MINISTERIO PUBLICO - DPMP 11.008,33 3.302,50 0,00 0,00 0,00 0,00 524,73 7.635,33 22.470,89 2.070,68 2.496,68 0,00 0,00 4.567,36 17.903,53 28/02/2023
10 468500 ADRIANA APARECIDA FIRMINO ANALISTA DO MP CARATINGA - COMARCA; CARATINGA-PJ-04PJ 11.008,33 2.201,67 0,00 0,00 0,00 0,00 0,00 1.911,00 15.121,00 1.894,55 2.190,25 0,00 0,00 4.084,80 11.036,20 28/02/2023
11 326100 ADRIANA AUGUSTA AMARAL BELO OFICIAL DO MP BARBACENA - COMARCA; BARBACENA-PJ-08PJ 11.008,33 3.302,50 0,00 0,00 0,00 0,00 524,73 7.635,33 22.470,89 2.070,68 2.392,41 0,00 0,00 4.463,09 18.007,80 28/02/2023
12 605700 ADRIANA COSTA LIRA OFICIAL DO MP BELO HORIZONTE - COMARCA; CAO-EDUCACAO 6.694,66 669,47 3.585,64 0,00 0,00 0,00 481,79 7.166,89 18.598,45 959,93 1.877,85 0,00 0,00 2.837,78 15.760,67 28/02/2023
13 541100 ADRIANA CRISTINA DE OLIVEIRA OFICIAL DO MP GUAPÉ - COMARCA; GUAPE-PJ-UNPJ 6.694,66 669,47 0,00 0,00 0,00 0,00 540,04 7.802,30 15.706,47 959,93 839,66 0,00 0,00 1.799,59 13.906,88 28/02/2023
14 254800 ADRIANA DAS GRACAS FERNANDES ANALISTA DO MP UBERABA - COMARCA; UBERABA-PJ-07PJ 20.574,59 16.459,68 0,00 0,00 0,00 0,00 520,11 7.584,95 45.139,33 5.454,90 7.330,52 1.572,05 0,00 14.357,47 30.781,86 28/02/2023
15 217400 ADRIANA DE CARVALHO CATAO BRAGA ASSESSOR ADMINISTRATIVO III BELO HORIZONTE - COMARCA; DIV FISCAL ADM CONT TERCEIRIZACAO 0,00 3.873,69 9.684,23 0,00 0,00 0,00 0,00 1.911,00 15.468,92 877,22 2.984,41 0,00 0,00 3.861,63 11.607,29 28/02/2023
16 434600 ADRIANA FERREIRA DA SILVA ANALISTA DO MP BELO HORIZONTE - COMARCA; BH-14PJ DEFESA CONSUMIDOR-GAB 112PJ 15.659,55 3.131,91 0,00 0,00 0,00 0,00 0,00 1.911,00 20.702,46 2.787,58 3.531,71 0,00 0,00 6.319,29 14.383,17 28/02/2023
17 499800 ADRIANA FERREIRA TIAGO OFICIAL DO MP SALINAS - COMARCA; SALINAS-PJ-02PJ 8.650,50 1.730,10 0,00 0,00 0,00 0,00 0,00 1.911,00 12.291,60 1.441,84 1.484,52 0,00 0,00 2.926,36 9.365,24 28/02/2023
18 543400 ADRIANA GUIMARAES NUNES DE PAULA ANALISTA DO MP PATROCÍNIO - COMARCA; PATROCINIO-PJ-01PJ 11.008,33 1.100,83 0,00 0,00 0,00 0,00 0,00 2.825,81 14.934,97 982,16 2.043,52 0,00 0,00 3.025,68 11.909,29 28/02/2023
19 471500 ADRIANA HORTA DE CARVALHO RODRIGUES DE SOUSA ANALISTA DO MP BELO HORIZONTE - COMARCA; GRUPO ESP PROM JUST DEF PROB ADM PAT PUB 11.008,33 2.201,67 0,00 0,00 0,00 0,00 0,00 1.911,00 15.121,00 1.894,55 2.190,25 0,00 0,00 4.084,80 11.036,20 28/02/2023
20 86400 ADRIANA MOREIRA CALDEIRA BRANT OFICIAL DO MP BELO HORIZONTE - COMARCA; BH-21PJ TUTELA FUNDACOES-SECRETARIA 19.037,29 13.326,11 0,00 0,00 0,00 4.959,09 0,00 1.911,00 39.233,49 4.959,09 8.030,58 0,00 0,00 12.989,67 26.243,82 28/02/2023
21 480700 ADRIANA MOREIRA DE AVELLAR CEZILIO OFICIAL DO MP BELO HORIZONTE - COMARCA; BH-12PJ JUIZO CRIMINAL-SECRETARIA 6.694,66 1.338,93 0,00 0,00 0,00 0,00 0,00 1.911,00 9.944,59 1.066,32 942,36 0,00 0,00 2.008,68 7.935,91 28/02/2023
22 326000 ADRIANA PEREIRA CARNEIRO RESENDE OFICIAL DO MP BELO HORIZONTE - COMARCA; BH-25PJ DEFESA DA EDUCACAO-SECRETARIA 11.008,33 3.302,50 0,00 0,00 0,00 0,00 262,37 4.773,17 19.346,37 2.070,68 2.496,68 0,00 0,00 4.567,36 14.779,01 28/02/2023
23 502200 ADRIANA PETRUCCI DAVINA OFICIAL DO MP PATROCÍNIO - COMARCA; PATROCINIO-PJ-01PJ 9.378,86 1.875,77 0,00 0,00 0,00 0,00 495,20 8.198,52 19.948,35 1.581,69 1.790,70 0,00 0,00 3.372,39 16.575,96 28/02/2023
24 201900 ADRIANA REIS PIMENTA OFICIAL DO MP TEÓFILO OTONI - COMARCA; TEOFILO OTONI-PJ-03PJ 18.312,36 7.324,94 0,00 0,00 0,00 0,00 470,02 7.038,46 33.145,78 3.882,92 5.113,09 0,00 0,00 8.996,01 24.149,77 28/02/2023
25 278700 ADRIANA RODRIGUES PINTO COELHO AMARAL ANALISTA DO MP BELO HORIZONTE - COMARCA; CGMP-ASSESSORIA JURIDICA 20.574,59 6.172,38 0,00 0,00 0,00 0,00 1.405,98 7.260,39 35.413,34 4.060,46 5.621,23 0,00 0,00 9.681,69 25.731,65 28/02/2023
26 468000 ADRIANA SANTOS DE SANTANA MOREIRA ANALISTA DO MP GOVERNADOR VALADARES - COMARCA; GAECO REGIONAL DE GOVERNADOR VALADARES 11.008,33 4.403,33 0,00 0,00 0,00 0,00 508,59 7.459,20 23.379,45 2.246,81 2.646,70 0,00 0,00 4.893,51 18.485,94 28/02/2023
27 194700 ADRIANA TSUKIDE OFICIAL DO MP UBERABA - COMARCA; COORD REG BACIAS PARANAIBA BAIXO RIO GRANDE 18.312,36 7.324,94 0,00 0,00 0,00 0,00 0,00 1.911,00 27.548,30 3.882,92 5.060,96 0,00 0,00 8.943,88 18.604,42 28/02/2023
28 465500 ADRIANO CASSIANO MATOS ANALISTA DO MP ARAXÁ - COMARCA; ARAXA-PJ-02PJ 11.008,33 2.201,67 0,00 0,00 0,00 0,00 532,80 7.723,40 21.466,20 1.894,55 2.242,39 0,00 0,00 4.136,94 17.329,26 28/02/2023
29 500500 ADRIANO DE ALMEIDA SILVA OFICIAL DO MP UBERABA - COMARCA; UBERABA-PJ-12PJ 9.378,86 1.875,77 0,00 0,00 0,00 0,00 495,20 8.198,52 19.948,35 1.581,69 1.253,62 0,00 0,00 2.835,31 17.113,04 28/02/2023
30 187200 ADRIANO DE FREITAS MARON OFICIAL DO MP PONTE NOVA - COMARCA; PONTE NOVA-PJ-03PJ 15.659,55 14.093,61 0,00 0,00 0,00 4.541,45 545,47 7.861,63 42.701,71 4.541,45 7.312,76 0,00 0,00 11.854,21 30.847,50 28/02/2023
31 477900 ADRIANO FERREIRA DE ALMEIDA OFICIAL DO MP TAIOBEIRAS - COMARCA; TAIOBEIRAS-PJ-UNPJ 9.378,86 1.875,77 0,00 0,00 0,00 0,00 495,20 7.807,38 19.557,21 1.581,69 1.686,42 0,00 0,00 3.268,11 16.289,10 28/02/2023
32 269101 ADRIANO PEREIRA SILVA ANALISTA DO MP UBERABA - COMARCA; UBERABA-PJ-02PJ 11.008,33 2.201,67 0,00 0,00 0,00 0,00 532,80 7.723,40 21.466,20 1.894,55 2.085,98 0,00 0,00 3.980,53 17.485,67 28/02/2023
33 414200 ADRIANO RODRIGUES FERNANDES ANALISTA DO MP CARANDAÍ - COMARCA; CARANDAI-PJ-UNPJ 11.008,33 2.201,67 0,00 0,00 0,00 0,00 145,31 3.496,20 16.851,51 1.894,55 2.085,98 0,00 0,00 3.980,53 12.870,98 28/02/2023
34 536700 ADRIELLE COSTA MARIA MOURAO FIGUEIREDO OFICIAL DO MP SERRO - COMARCA; SERRO-PJ-SECRETARIA 6.694,66 669,47 0,00 0,00 0,00 0,00 0,00 2.796,30 10.160,43 959,93 891,80 0,00 0,00 1.851,73 8.308,70 28/02/2023
35 514300 ADRIENE DAMASCENO BRAGA ANALISTA DO MP ALFENAS - COMARCA; ALFENAS-PJ-03PJ 11.008,33 2.201,67 0,00 0,00 0,00 0,00 532,80 7.723,40 21.466,20 1.894,55 2.242,39 0,00 0,00 4.136,94 17.329,26 28/02/2023
36 254600 ADRIENE DOMINGUES COSTA ANALISTA DO MP BELO HORIZONTE - COMARCA; SUPER DE GESTAO DE PESSOAS-LOTACAO TEMPORARIA 20.574,59 8.229,84 0,00 0,00 0,00 0,00 0,00 0,00 28.804,43 4.389,66 5.844,70 0,00 0,00 10.234,36 18.570,07 28/02/2023
37 252001 ADRIENE GOMES BARRETO ANALISTA DO MP BELO HORIZONTE - COMARCA; BH-19PJ SAUDE-SECRETARIA 047PJ 16.695,70 8.347,85 0,00 0,00 0,00 0,00 459,13 6.919,71 32.422,39 3.787,92 4.975,94 0,00 0,00 8.763,86 23.658,53 28/02/2023
38 714800 ADSON GUSTAVO DE OLIVEIRA ASSESSOR PROCURADOR JUSTICA BELO HORIZONTE - COMARCA; GABINETE DE PROCURADOR DE JUSTIÇA - SALA 803 0,00 0,00 7.857,77 0,00 0,00 0,00 0,00 1.911,00 9.768,77 877,22 1.416,87 0,00 0,00 2.294,09 7.474,68 28/02/2023
39 724600 AECIO BRAS SILVA JUNIOR ASSESSOR PROMOTOR JUSTICA BAMBUÍ - COMARCA; BAMBUI-PJ-UNPJ 0,00 0,00 7.857,77 0,00 0,00 0,00 0,00 1.911,00 9.768,77 877,22 1.416,87 0,00 0,00 2.294,09 7.474,68 28/02/2023
40 302500 AGENOR JOSE DA SILVA JUNIOR ANALISTA DO MP JUIZ DE FORA - COMARCA; JUIZ DE FORA-PJ-07PJ 19.791,01 5.937,30 0,00 0,00 0,00 0,00 471,69 7.056,66 33.256,66 3.897,48 4.977,71 0,00 0,00 8.875,19 24.381,47 28/02/2023
41 357500 AILSON WAGNER DE ALENCAR SILVA OFICIAL DO MP BELO HORIZONTE - COMARCA; BH-12PJ JUIZO CRIMINAL-SECRETARIA 13.341,69 5.336,68 0,00 0,00 0,00 0,00 547,90 7.888,08 27.114,35 2.769,49 3.349,17 0,00 0,00 6.118,66 20.995,69 28/02/2023
42 366400 AILTON ALEXSSANDRO ALVES OFICIAL DO MP PARÁ DE MINAS - COMARCA; PARA DE MINAS-PJ-05PJ 11.008,33 4.403,33 0,00 0,00 0,00 0,00 0,00 1.911,00 17.322,66 2.246,81 2.750,97 0,00 0,00 4.997,78 12.324,88 28/02/2023
43 318900 AILTON DE CASTRO RIBEIRO JUNIOR OFICIAL DO MP CANDEIAS - COMARCA; CANDEIAS-PJ-UNPJ 11.008,33 3.302,50 0,00 0,00 0,00 0,00 524,73 7.635,33 22.470,89 2.070,68 2.288,13 0,00 0,00 4.358,81 18.112,08 28/02/2023
44 464400 ALAN MONTEIRO GASPAR ANALISTA DO MP SETE LAGOAS - COMARCA; SETE LAGOAS-PJ-08PJ 11.008,33 2.201,67 0,00 0,00 0,00 0,00 532,80 7.723,40 21.466,20 1.894,55 2.242,39 0,00 0,00 4.136,94 17.329,26 28/02/2023
45 492000 ALANA DE CASTRO FREITAS OFICIAL DO MP BELO HORIZONTE - COMARCA; SECRETARIA DO PROCON-MG 7.137,75 1.427,55 0,00 0,00 0,00 0,00 0,00 1.911,00 10.476,30 1.151,40 1.169,46 0,00 0,00 2.320,86 8.155,44 28/02/2023
46 306700 ALANA MARCIA DE OLIVEIRA OFICIAL DO MP BELO HORIZONTE - COMARCA; DIRETORIA DE ADMINISTRACAO FINANCEIRA 11.008,33 3.302,50 0,00 0,00 0,00 0,00 524,73 7.635,33 22.470,89 2.070,68 2.496,68 0,00 0,00 4.567,36 17.903,53 28/02/2023
47 324500 ALANMAR COUTINHO COSTA OFICIAL DO MP LEOPOLDINA - COMARCA; LEOPOLDINA-PJ-02PJ 11.008,33 3.302,50 0,00 0,00 0,00 0,00 524,73 7.635,33 22.470,89 2.070,68 2.392,41 0,00 0,00 4.463,09 18.007,80 28/02/2023
48 407300 ALBERTO LUIZ SOARES DE OLIVEIRA ANALISTA DO MP BELO HORIZONTE - COMARCA; DIRETORIA DE PROJETOS DE EDIFICACOES 15.659,55 3.131,91 0,00 0,00 0,00 0,00 0,00 1.911,00 20.702,46 2.787,58 3.531,71 0,00 0,00 6.319,29 14.383,17 28/02/2023
49 118200 ALBERTO PEREIRA DA COSTA OFICIAL DO MP DORES DO INDAIÁ - COMARCA; DORES DO INDAIA-PJ-UNPJ 19.791,01 17.811,91 0,00 0,00 0,00 5.454,90 520,11 7.584,96 51.162,89 5.454,90 8.830,61 2.140,70 0,00 16.426,21 34.736,68 28/02/2023
50 282400 ALCILENE MARISE DE ARAUJO ANALISTA DO MP BELO HORIZONTE - COMARCA; BH-23PJ INF-FISC MED SOC FEC 20.574,59 6.172,38 0,00 0,00 0,00 0,00 0,00 1.911,00 28.657,97 4.060,46 5.317,29 0,00 0,00 9.377,75 19.280,22 28/02/2023
51 112600 ALCIONE DA MOTA JARDIM OFICIAL DO MP BELO HORIZONTE - COMARCA; CAO-CRIANCAS E ADOLESCENTES-SECRETARIA 19.791,01 13.853,71 0,00 0,00 0,00 0,00 0,00 1.911,00 35.555,72 5.164,10 6.910,67 0,00 0,00 12.074,77 23.480,95 28/02/2023
52 396400 ALCIONE DE FREITAS E SILVA ANALISTA DO MP BELO HORIZONTE - COMARCA; ASSESS JUR DO CONS SUPERIOR DO MINISTERIO PUB 16.695,70 6.678,28 0,00 0,00 0,00 0,00 0,00 1.911,00 25.284,98 3.520,79 4.590,27 0,00 0,00 8.111,06 17.173,92 28/02/2023
53 657400 ALCIONE MARIA FERREIRA ASSESSOR PROCURADOR JUSTICA BELO HORIZONTE - COMARCA; GABINETE DE PROCURADOR DE JUSTIÇA - SALA 610 0,00 0,00 7.857,77 0,00 0,00 0,00 0,00 2.796,30 10.654,07 877,22 1.416,87 0,00 0,00 2.294,09 8.359,98 28/02/2023
54 161600 ALCIONE NERY SOUZA ASSESSOR ADMINISTRATIVO III BELO HORIZONTE - COMARCA; BH-18PJ DIREITOS HUMANOS-SECRETARIA 0,00 4.842,12 9.684,23 0,00 0,00 0,00 0,00 1.911,00 16.437,35 877,22 3.250,73 0,00 0,00 4.127,95 12.309,40 28/02/2023
55 376000 ALDA GOMES LANA OFICIAL DO MP BELO HORIZONTE - COMARCA; BH-18PJ VIOLENCIA DOMESTICA-SECRETARIA 11.008,33 2.201,67 0,00 0,00 0,00 0,00 532,80 7.723,40 21.466,20 1.894,55 2.190,25 0,00 0,00 4.084,80 17.381,40 28/02/2023
56 148000 ALDA MARTINS SIMOES OFICIAL DO MP BELO HORIZONTE - COMARCA; BH-23PJ CIVEL- FISC ENT AB POL 20.574,59 10.287,30 0,00 0,00 0,00 0,00 0,00 1.911,00 32.772,89 4.718,85 6.319,98 0,00 0,00 11.038,83 21.734,06 28/02/2023
57 318400 ALDO CREPALDI JUNIOR OFICIAL DO MP BELO HORIZONTE - COMARCA; DIVISAO DE MATERIAIS 11.008,33 3.302,50 0,00 0,00 0,00 0,00 524,73 7.635,33 22.470,89 2.070,68 2.444,54 0,00 0,00 4.515,22 17.955,67 28/02/2023
58 604500 ALENIZE APARECIDA RODRIGUES HENRIQUE OFICIAL DO MP RIO NOVO - COMARCA; RIO NOVO-PJ-UNPJ 6.694,66 669,47 0,00 0,00 0,00 0,00 135,01 3.383,83 10.882,97 959,93 891,80 0,00 0,00 1.851,73 9.031,24 28/02/2023
59 197900 ALESSA DE SOUSA E SILVA OFICIAL DO MP OLIVEIRA - COMARCA; OLIVEIRA-PJ-02PJ 19.037,29 7.614,92 0,00 0,00 0,00 0,00 0,00 2.098,17 28.750,38 4.045,30 5.243,27 0,00 0,00 9.288,57 19.461,81 28/02/2023
60 428500 ALESSANDRA ALVES DINIZ OFICIAL DO MP BELO HORIZONTE - COMARCA; CENTRAL DE APOIO TECNICO-SECRETARIA 8.932,15 4.466,08 0,00 0,00 0,00 0,00 0,00 1.911,00 15.309,23 1.924,67 2.285,87 0,00 0,00 4.210,54 11.098,69 28/02/2023
61 286801 ALESSANDRA BOTELHO JUNQUEIRA DE MENEZES ANALISTA DO MP PASSOS - COMARCA; PASSOS-PJ-05PJ 16.169,47 6.467,79 0,00 0,00 0,00 0,00 498,02 8.229,24 31.364,52 3.402,91 4.211,54 0,00 0,00 7.614,45 23.750,07 28/02/2023
62 307000 ALESSANDRA CRISTINA SANTOS MENDES ANALISTA DO MP BELO HORIZONTE - COMARCA; BH-18PJ VIOLENCIA DOMESTICA-SECRETARIA 18.312,36 5.493,71 0,00 0,00 0,00 0,00 349,16 5.719,97 29.875,20 3.589,92 4.637,94 0,00 0,00 8.227,86 21.647,34 28/02/2023
63 264400 ALESSANDRA DE SOUZA SANTOS ANALISTA DO MP BELO HORIZONTE - COMARCA; SECRETARIA DE ASSUNTOS INTERNACIONAIS 20.574,59 10.287,30 0,00 0,00 0,00 0,00 0,00 1.911,00 32.772,89 4.718,85 6.319,98 0,00 0,00 11.038,83 21.734,06 28/02/2023
64 441500 ALESSANDRA DRUMMOND DE FIGUEIREDO ROSSI ANALISTA DO MP BELO HORIZONTE - COMARCA; DIRETORIA DE PROJETOS DE EDIFICACOES 11.008,33 2.201,67 0,00 0,00 0,00 0,00 0,00 1.911,00 15.121,00 1.894,55 2.242,39 0,00 0,00 4.136,94 10.984,06 28/02/2023
65 524000 ALESSANDRA LUCIOLI DE BARROS GUERRA ANALISTA DO MP BELO HORIZONTE - COMARCA; BH-19PJ SAUDE--SECRETARIA 11.008,33 2.201,67 0,00 0,00 0,00 0,00 532,80 7.723,40 21.466,20 1.894,55 2.138,11 0,00 0,00 4.032,66 17.433,54 28/02/2023
66 479900 ALESSANDRA MARA ANDRADE DE FARIA OFICIAL DO MP UBERABA - COMARCA; UBERABA-PJ-09PJ 9.378,86 1.875,77 0,00 0,00 0,00 0,00 495,20 7.313,22 19.063,05 1.581,69 1.790,70 0,00 0,00 3.372,39 15.690,66 28/02/2023
67 226700 ALESSANDRA MARA VASCONCELOS REZENDE OFICIAL DO MP CONSELHEIRO LAFAIETE - COMARCA; CONSELHEIRO LAFAIETE-PJ-07PJ 15.659,55 6.263,82 0,00 0,00 0,00 0,00 482,31 7.172,61 29.578,29 3.288,69 4.255,18 0,00 0,00 7.543,87 22.034,42 28/02/2023
68 112100 ALESSANDRA MARCIA FERREIRA OFICIAL DO MP BELO HORIZONTE - COMARCA; BELO HORIZONTE- SECRETARIA DAS PROMOTORIAS 11.008,33 7.705,83 0,00 161,71 0,00 5.598,62 548,95 7.899,53 32.922,97 2.775,21 4.760,38 0,00 0,00 7.535,59 25.387,38 28/02/2023
69 196500 ALESSANDRA MARIA RIBEIRO LUCIANO OFICIAL DO MP RIO PARANAÍBA - COMARCA; RIO PARANAIBA-PJ-UNPJ 19.037,29 9.518,65 0,00 0,00 0,00 0,00 0,00 1.911,00 30.466,94 4.349,90 5.683,03 0,00 0,00 10.032,93 20.434,01 28/02/2023
70 651700 ALESSANDRA PROFIRIO SOUZA OFICIAL DO MP NOVA ERA - COMARCA; NOVA ERA-PJ-UNPJ 5.438,14 543,81 0,00 0,00 0,00 0,00 0,00 1.911,00 7.892,95 749,62 517,39 0,00 0,00 1.267,01 6.625,94 28/02/2023
71 384900 ALESSANDRA RODRIGUES ANALISTA DO MP VISCONDE DO RIO BRANCO - COMARCA; VISCONDE DO RIO BRANCO-PJ-03PJ 16.695,70 3.339,14 0,00 0,00 0,00 0,00 514,23 8.406,06 28.955,13 2.986,52 3.714,65 0,00 0,00 6.701,17 22.253,96 28/02/2023
72 390000 ALESSANDRA SPADANO MASSARA VASCONCELOS OFICIAL DO MP BETIM - COMARCA; BETIM-PJ-10PJ 11.008,33 2.201,67 0,00 0,00 0,00 0,00 0,00 1.911,00 15.121,00 1.894,55 2.242,39 0,00 0,00 4.136,94 10.984,06 28/02/2023
73 426500 ALESSANDRO CAMPOS DE PAIVA ANALISTA DO MP BELO HORIZONTE - COMARCA; DIR CRIACAO E MIDIAS 16.169,47 3.233,89 0,00 0,00 0,00 0,00 0,00 1.911,00 21.314,36 2.885,49 3.673,05 0,00 0,00 6.558,54 14.755,82 28/02/2023
74 623400 ALESSANDRO DE OLIVEIRA REZENDE ANALISTA DO MP BELO HORIZONTE - COMARCA; DIRET DE INFORMACAO E CONHECIMENTO-DINC/CEAF 10.325,15 1.032,52 0,00 0,00 0,00 0,00 0,00 1.911,00 13.268,67 1.598,18 1.814,50 0,00 0,00 3.412,68 9.855,99 28/02/2023
75 420600 ALESSANDRO SILVA OFICIAL DO MP VISCONDE DO RIO BRANCO - COMARCA; VISCONDE DO RIO BRANCO-PJ-02PJ 10.325,15 4.130,06 0,00 0,00 0,00 0,00 530,02 7.693,08 22.678,31 2.093,78 1.854,12 0,00 0,00 3.947,90 18.730,41 28/02/2023
76 375301 ALETHEIA PATRICIA ASSIS MORAIS MOREIRA ANALISTA DO MP ITABIRA - COMARCA; ITABIRA-PJ-02PJ 11.008,33 1.100,83 0,00 0,00 0,00 0,00 532,80 8.608,70 21.250,66 1.718,41 1.935,96 0,00 0,00 3.654,37 17.596,29 28/02/2023
77 382300 ALEX CARVALHO LIMA ANALISTA DO MP UBERLÂNDIA - COMARCA; UBERLANDIA-PJ-14PJ 16.695,70 3.339,14 0,00 0,00 0,00 0,00 514,23 8.406,06 28.955,13 2.986,52 3.818,93 0,00 0,00 6.805,45 22.149,68 28/02/2023
78 195201 ALEX DE CASTRO PEREIRA ANALISTA DO MP UBERABA - COMARCA; UBERABA-PJ-09PJ 20.574,59 8.229,84 0,00 0,00 0,00 0,00 528,08 7.671,89 37.004,40 4.389,66 5.844,70 0,00 0,00 10.234,36 26.770,04 28/02/2023
79 358900 ALEX DE PAULA LANZA ASSESSOR ADMINISTRATIVO IV BELO HORIZONTE - COMARCA; DIR CONTEUDO JORNALISTICO 0,00 0,00 12.920,95 0,00 0,00 0,00 0,00 2.796,30 15.717,25 877,22 2.809,24 0,00 0,00 3.686,46 12.030,79 28/02/2023
80 178400 ALEX RODRIGO SALDANHA GUIMARAES OFICIAL DO MP BELO HORIZONTE - COMARCA; DIRETORIA DE SISTEMAS DE INFORMACAO 6.694,66 2.677,86 0,00 0,00 0,00 0,00 0,00 1.911,00 11.283,52 1.280,55 1.355,93 0,00 0,00 2.636,48 8.647,04 28/02/2023
81 413500 ALEX VILELA OLIVEIRA ANALISTA DO MP GOVERNADOR VALADARES - COMARCA; COORD REG PJ DEF EDU DIR CRIANCA ADOL RIODOCE 16.169,47 3.233,89 0,00 0,00 0,00 0,00 213,44 4.239,40 23.856,20 2.885,49 3.673,05 0,00 0,00 6.558,54 17.297,66 28/02/2023
82 264300 ALEXANDRA FATIMA SARAIVA SOARES ANALISTA DO MP BELO HORIZONTE - COMARCA; CENTRAL DE APOIO TECN-SETOR DE MEIO AMBIENTE 20.574,59 6.172,38 0,00 0,00 0,00 0,00 0,00 1.911,00 28.657,97 4.060,46 5.369,43 0,00 0,00 9.429,89 19.228,08 28/02/2023
83 488000 ALEXANDRA LARA PAIS DE CARVALHO ANALISTA DO MP SABARÁ - COMARCA; SABARA-PJ-04PJ 11.008,33 2.201,67 0,00 0,00 0,00 0,00 532,80 7.723,40 21.466,20 1.894,55 2.085,98 0,00 0,00 3.980,53 17.485,67 28/02/2023
84 256300 ALEXANDRA SANTOS GOMES OFICIAL DO MP BELO HORIZONTE - COMARCA; DIRETORIA GESTAO COMPRAS LICITACOES 11.008,33 4.403,33 0,00 0,00 0,00 0,00 0,00 1.911,00 17.322,66 2.246,81 2.750,97 0,00 0,00 4.997,78 12.324,88 28/02/2023
85 403300 ALEXANDRE AUGUSTO RODRIGUES ANALISTA DO MP ÁGUAS FORMOSAS - COMARCA; AGUAS FORMOSAS-PJ-UNPJ 11.008,33 2.201,67 0,00 0,00 0,00 0,00 0,00 3.681,60 16.891,60 1.894,55 2.242,39 0,00 0,00 4.136,94 12.754,66 28/02/2023
86 640900 ALEXANDRE BARBOSA MASCARENHAS ANALISTA DO MP BETIM - COMARCA; BETIM-PJ-02PJ 8.377,76 837,78 0,00 0,00 0,00 0,00 0,00 1.911,00 11.126,54 982,16 1.058,44 0,00 0,00 2.040,60 9.085,94 28/02/2023
87 311700 ALEXANDRE BARCELOS RESENDE OFICIAL DO MP BELO HORIZONTE - COMARCA; BH-13ª PJ JUÍZO DE TÓXICOS-SECRETARIA 9.684,23 2.905,27 0,00 0,00 0,00 0,00 0,00 2.796,30 15.385,80 1.795,27 2.099,05 0,00 0,00 3.894,32 11.491,48 28/02/2023
88 285600 ALEXANDRE CAMPOS DE OLIVEIRA OFICIAL DO MP UBERABA - COMARCA; COORD REG BACIAS PARANAIBA BAIXO RIO GRANDE 11.008,33 3.302,50 0,00 0,00 0,00 0,00 524,73 7.635,33 22.470,89 2.070,68 2.340,27 0,00 0,00 4.410,95 18.059,94 28/02/2023
89 509200 ALEXANDRE CAPUANO DE REZENDE ANALISTA DO MP BELO HORIZONTE - COMARCA; BH-07PJ 03 TRIBUNAL DO JURI-GAB 061PJ 11.008,33 2.201,67 0,00 0,00 0,00 0,00 0,00 1.911,00 15.121,00 1.894,55 2.190,25 0,00 0,00 4.084,80 11.036,20 28/02/2023
90 229400 ALEXANDRE CARLOS BOTREL SUPERINTENDENTE BELO HORIZONTE - COMARCA; SUPERINTENDENCIA DOS ORGAOS COLEGIADOS 24.982,93 9.993,17 0,00 0,00 0,00 0,00 512,98 7.507,18 42.996,26 3.402,91 7.813,27 0,00 0,00 11.216,18 31.780,08 28/02/2023
91 411900 ALEXANDRE CARVALHO SANTOS RIBEIRO ANALISTA DO MP OLIVEIRA - COMARCA; OLIVEIRA-PJ-02PJ 16.169,47 3.233,89 0,00 0,00 0,00 0,00 498,02 8.229,24 28.130,62 2.885,49 3.673,05 0,00 0,00 6.558,54 21.572,08 28/02/2023
92 641600 ALEXANDRE DA SILVA ASSUNCAO OFICIAL DO MP BELO HORIZONTE - COMARCA; SERVICO MEDICO-DEPTO PERIC MEDICA SAUDE OCUP 5.889,39 588,94 0,00 0,00 0,00 0,00 0,00 1.911,00 8.389,33 822,63 685,96 0,00 0,00 1.508,59 6.880,74 28/02/2023
93 201200 ALEXANDRE DE ALENCAR CORDEIRO OFICIAL DO MP ÁGUAS FORMOSAS - COMARCA; AGUAS FORMOSAS-PJ-UNPJ 6.694,66 3.347,33 0,00 0,00 0,00 0,00 0,00 1.911,00 11.952,99 1.387,67 1.510,58 0,00 0,00 2.898,25 9.054,74 28/02/2023
94 288200 ALEXANDRE DE VASCONCELOS COSTA KER ANALISTA DO MP BELO HORIZONTE - COMARCA; BH-03PJ EMPRESARIAL-SECRETARIA 19.791,01 5.937,30 0,00 0,00 0,00 0,00 471,69 7.056,66 33.256,66 3.897,48 5.081,98 0,00 0,00 8.979,46 24.277,20 28/02/2023
95 445000 ALEXANDRE DIOGENES OLIVEIRA ANALISTA DO MP SALINAS - COMARCA; SALINAS-PJ-02PJ 12.118,97 2.423,79 0,00 0,00 0,00 0,00 533,23 8.613,40 23.689,39 2.107,79 2.550,26 0,00 0,00 4.658,05 19.031,34 28/02/2023
96 463400 ALEXANDRE LEAL WINKELSTROTER ANALISTA DO MP TEÓFILO OTONI - COMARCA; TEOFILO OTONI-PJ-04PJ 11.008,33 2.201,67 0,00 0,00 0,00 0,00 0,00 1.911,00 15.121,00 1.894,55 2.242,39 0,00 0,00 4.136,94 10.984,06 28/02/2023
97 615700 ALEXANDRE LUIZ DE CASTRO MACIEL ANALISTA DO MP BELO HORIZONTE - COMARCA; BH-08PJ JUIZADO ESPECIAL-SECRETARIA 10.325,15 1.032,52 0,00 0,00 0,00 0,00 0,00 1.911,00 13.268,67 1.598,18 1.814,50 0,00 0,00 3.412,68 9.855,99 28/02/2023
98 356900 ALEXANDRE MOISES MENDONCA E ARAUJO OFICIAL DO MP UBERABA - COMARCA; UBERABA-PJ-13PJ 8.650,50 2.595,15 0,00 0,00 0,00 0,00 0,00 1.911,00 13.156,65 1.580,25 1.788,63 0,00 0,00 3.368,88 9.787,77 28/02/2023
99 633300 ALEXANDRE NONATO MARTINS OFICIAL DO MP IGARAPÉ - COMARCA; IGARAPE-PJ-02PJ 5.889,39 588,94 0,00 0,00 0,00 0,00 47,51 2.429,27 8.955,11 824,08 633,42 0,00 0,00 1.457,50 7.497,61 28/02/2023
100 469900 ALEXANDRE PEREIRA GUEDES ANALISTA DO MP CATAGUASES - COMARCA; CATAGUASES-PJ-03PJ 11.008,33 2.201,67 0,00 0,00 0,00 0,00 532,80 7.723,40 21.466,20 1.894,55 2.242,39 0,00 0,00 4.136,94 17.329,26 28/02/2023
101 208700 ALEXANDRE RESENDE FRAGA ANALISTA DO MP BELO HORIZONTE - COMARCA; BH-19PJ SAUDE-SECRETARIA 130PJ 20.574,59 8.229,84 0,00 0,00 0,00 0,00 0,00 1.911,00 30.715,43 4.389,66 5.688,29 0,00 0,00 10.077,95 20.637,48 28/02/2023
102 216401 ALEXANDRE RIBEIRO DE LIMA MAIORINO ANALISTA DO MP UBERABA - COMARCA; UBERABA-PJ-03PJ 19.791,01 7.916,40 0,00 0,00 0,00 0,00 507,97 7.452,48 35.667,86 4.214,13 5.539,15 0,00 0,00 9.753,28 25.914,58 28/02/2023
103 475100 ALEXANDRE TEOTONIO COSTA ANALISTA DO MP ARAGUARI - COMARCA; ARAGUARI-PJ-01PJ 11.008,33 2.201,67 0,00 0,00 0,00 0,00 193,75 4.024,60 17.428,35 1.894,55 2.138,11 0,00 0,00 4.032,66 13.395,69 28/02/2023
104 339000 ALEXANDRE VITOR CARDOSO OFICIAL DO MP BELO HORIZONTE - COMARCA; BH-23PJ INFRACIONAL-SEC EXP 6.694,66 2.008,40 0,00 0,00 0,00 0,00 255,29 4.695,98 13.654,33 1.173,44 1.044,87 0,00 0,00 2.218,31 11.436,02 28/02/2023
105 623100 ALEXSANDER BATISTA AGUIAR COORDENADOR II BELO HORIZONTE - COMARCA; DIRETORIA DE SUPORTE E MANUTENCAO 18.312,36 1.831,24 0,00 0,00 0,00 0,00 517,02 8.436,51 29.097,13 1.598,18 4.074,22 0,00 0,00 5.672,40 23.424,73 28/02/2023
106 513300 ALFSON MIRANDA BRAGA ANALISTA DO MP BELO HORIZONTE - COMARCA; BH-12PJ JUIZO CRIMINAL-GAB 087PJ 11.008,33 2.201,67 0,00 0,00 0,00 0,00 0,00 1.911,00 15.121,00 1.894,55 2.242,39 0,00 0,00 4.136,94 10.984,06 28/02/2023
107 618400 ALICE MAGALHAES MACEDO DE CARVALHO ANALISTA DO MP IPATINGA - COMARCA; IPATINGA-PJ-10PJ 10.325,15 1.032,52 0,00 0,00 0,00 0,00 499,74 8.247,98 20.105,39 1.598,18 1.814,50 0,00 0,00 3.412,68 16.692,71 28/02/2023
108 707000 ALICE MARIA RIBEIRO DINIZ ASSESSOR PROMOTOR JUSTICA BELO HORIZONTE - COMARCA; PROC JUST ATUACAO TRIBUNAIS SUPERIORES-GAB004 0,00 0,00 7.857,77 0,00 0,00 0,00 172,87 3.796,86 11.827,50 877,22 1.416,87 0,00 0,00 2.294,09 9.533,41 28/02/2023
109 471000 ALICE TITONELI MOREIRA ANALISTA DO MP MIRADOURO - COMARCA; MIRADOURO-PJ-UNPJ 11.008,33 2.201,67 0,00 0,00 0,00 0,00 0,00 2.796,30 16.006,30 1.894,55 2.138,11 0,00 0,00 4.032,66 11.973,64 28/02/2023
110 731600 ALICIA PAULA RODRIGUES DE LIMA ASSESSOR PROMOTOR JUSTICA TIROS - COMARCA; TIROS-PJ-UNPJ 0,00 0,00 7.857,77 0,00 0,00 0,00 0,00 1.911,00 9.768,77 877,22 1.416,87 0,00 0,00 2.294,09 7.474,68 28/02/2023
111 725800 ALINE ALBIERI FRANCISCO ASSESSOR PROMOTOR JUSTICA BELO HORIZONTE - COMARCA; CAO-ORDEM ECONOMICA E TRIBUTARIA-ASSESS TECN 0,00 0,00 7.857,77 0,00 0,00 0,00 0,00 1.911,00 9.768,77 877,22 1.416,87 0,00 0,00 2.294,09 7.474,68 28/02/2023
112 622400 ALINE BALBINO PORTUGAL LOPES ANALISTA DO MP TRÊS PONTAS - COMARCA; TRES PONTAS-PJ-03PJ 10.325,15 1.032,52 0,00 0,00 0,00 0,00 499,74 8.247,98 20.105,39 1.598,18 1.814,50 0,00 0,00 3.412,68 16.692,71 28/02/2023
113 373000 ALINE BOTELHO RESENDE OFICIAL DO MP JUIZ DE FORA - COMARCA; JUIZ DE FORA-PJ-22PJ 10.661,25 3.198,38 0,00 0,00 355,38 0,00 1.066,13 1.911,00 17.192,14 2.169,07 2.736,46 0,00 0,00 4.905,53 12.286,61 28/02/2023
114 699800 ALINE CRISTINA DE OLIVEIRA AMARAL BARBOSA ASSESSOR PROCURADOR JUSTICA BELO HORIZONTE - COMARCA; GABINETE DE PROCURADOR DE JUSTIÇA - SALA 904 0,00 0,00 7.857,77 0,00 0,00 0,00 0,00 1.911,00 9.768,77 877,22 1.312,59 0,00 0,00 2.189,81 7.578,96 28/02/2023
115 407700 ALINE CRISTINA RODRIGUES PEREIRA COORDENADOR II BELO HORIZONTE - COMARCA; DIRETORIA DE PROJETOS DE EDIFICACOES 18.312,36 3.662,47 0,00 0,00 0,00 0,00 0,00 1.911,00 23.885,83 1.894,55 4.652,72 0,00 0,00 6.547,27 17.338,56 28/02/2023
116 193100 ALINE CRISTINA SENA OLIVEIRA OFICIAL DO MP UBERLÂNDIA - COMARCA; UBERLANDIA-PJ-03PJ 18.312,36 7.324,94 0,00 0,00 0,00 0,00 470,02 7.923,76 34.031,08 3.882,92 5.060,96 0,00 0,00 8.943,88 25.087,20 28/02/2023
117 554200 ALINE CRISTINA SILVA SOUZA OFICIAL DO MP TIROS - COMARCA; TIROS-PJ-UNPJ 6.694,66 669,47 0,00 0,00 0,00 0,00 0,00 1.911,00 9.275,13 959,93 891,80 0,00 0,00 1.851,73 7.423,40 28/02/2023
118 505500 ALINE DA CUNHA MARREIROS OLIVEIRA ANALISTA DO MP EUGENÓPOLIS - COMARCA; EUGENOPOLIS-PJ-UNPJ 11.008,33 2.201,67 0,00 0,00 0,00 0,00 0,00 3.681,60 16.891,60 1.894,55 2.190,25 0,00 0,00 4.084,80 12.806,80 28/02/2023
119 433500 ALINE DE MELO QUEIROZ OFICIAL DO MP BELO HORIZONTE - COMARCA; ASSESSORIA JURIDICA DO PROCON-MG 9.999,62 1.999,92 3.585,64 0,00 0,00 0,00 514,31 8.406,96 24.506,45 1.700,87 2.948,83 0,00 0,00 4.649,70 19.856,75 28/02/2023
120 691100 ALINE DE MELO SOUZA ASSESSOR PROCURADOR JUSTICA BELO HORIZONTE - COMARCA; GABINETE DE PROCURADOR DE JUSTIÇA - SALA 401 0,00 0,00 7.857,77 0,00 0,00 0,00 0,00 1.911,00 9.768,77 877,22 1.416,87 0,00 0,00 2.294,09 7.474,68 28/02/2023
121 542700 ALINE DE SOUSA ALBINO ANALISTA DO MP CONTAGEM - COMARCA; CONTAGEM-PJ-09PJ 11.008,33 1.100,83 0,00 0,00 0,00 0,00 133,20 3.364,10 15.606,46 1.718,41 1.988,10 0,00 0,00 3.706,51 11.899,95 28/02/2023
122 330000 ALINE DIORIO MAYRINK OFICIAL DO MP BELO HORIZONTE - COMARCA; NUCLEO DE ACORDOS DE NAO PERSECUCAO PENAL BH 8.932,15 1.786,43 0,00 0,00 0,00 0,00 471,62 7.055,92 18.246,12 1.495,92 1.666,87 0,00 0,00 3.162,79 15.083,33 28/02/2023
123 499000 ALINE FERREIRA LOPES ANALISTA DO MP TEÓFILO OTONI - COMARCA; TEOFILO OTONI-PJ-09PJ 11.008,33 2.201,67 0,00 0,00 4.403,33 0,00 532,80 7.723,40 25.869,53 1.894,55 3.401,17 0,00 0,00 5.295,72 20.573,81 28/02/2023
124 405300 ALINE LAIA CARDOZO SUPERINTENDENTE BELO HORIZONTE - COMARCA; SUPERINTENDENCIA LOGISTICA SERVICOS 24.982,93 4.996,59 0,00 0,00 0,00 0,00 549,62 7.906,90 38.436,04 2.986,52 6.553,72 0,00 0,00 9.540,24 28.895,80 28/02/2023
125 278200 ALINE MARCIA FARIA BARBOSA FERNANDES OFICIAL DO MP BARBACENA - COMARCA; BARBACENA-PJ-SECRETARIA 8.650,50 2.595,15 0,00 0,00 0,00 0,00 82,47 2.810,65 14.138,77 1.580,25 1.684,35 0,00 0,00 3.264,60 10.874,17 28/02/2023
126 389000 ALINE NERI NOBRE ANALISTA DO MP MONTES CLAROS - COMARCA; COORD REG PJ DEF EDUC DIR CRIANCA ADOL NORTE 16.695,70 6.678,28 0,00 0,00 0,00 0,00 514,23 7.520,76 31.408,97 3.520,79 4.590,27 0,00 0,00 8.111,06 23.297,91 28/02/2023
127 294600 ALINE PATRICIA SILVA VIEIRA OFICIAL DO MP UBERLÂNDIA - COMARCA; UBERLANDIA-PJ-03PJ 13.341,69 4.002,51 0,00 0,00 0,00 0,00 2.065,72 7.209,78 26.619,70 2.556,02 3.423,34 0,00 0,00 5.979,36 20.640,34 28/02/2023
128 420000 ALINE RODRIGUES CAMOROPIN ANALISTA DO MP SABARÁ - COMARCA; SABARA-PJ-02PJ 16.169,47 3.233,89 0,00 0,00 0,00 0,00 498,02 7.343,94 27.245,32 2.885,49 3.673,05 0,00 0,00 6.558,54 20.686,78 28/02/2023
129 715800 ALINE SANTOS PEDROSA MAIA BARBOSA ASSESSOR PROCURADOR JUSTICA BELO HORIZONTE - COMARCA; GABINETE DE PROCURADOR DE JUSTIÇA - SALA 1010 0,00 0,00 7.857,77 0,00 0,00 0,00 0,00 1.911,00 9.768,77 877,22 1.416,87 0,00 0,00 2.294,09 7.474,68 28/02/2023
130 699600 ALINE SEPULVEDA ROSA PIRES ASSESSOR PROCURADOR JUSTICA BELO HORIZONTE - COMARCA; GABINETE DE PROCURADOR DE JUSTIÇA - SALA 905 0,00 0,00 7.857,77 0,00 0,00 0,00 0,00 1.911,00 9.768,77 877,22 1.416,87 0,00 0,00 2.294,09 7.474,68 28/02/2023
131 408300 ALINE SILVA ARAUJO DE PAULA ANALISTA DO MP SÃO SEBASTIÃO DO PARAÍSO - COMARCA; SAO SEBASTIAO DO PARAISO-PJ-02PJ 16.169,47 3.233,89 0,00 0,00 0,00 0,00 213,44 4.239,40 23.856,20 982,16 4.081,97 0,00 0,00 5.064,13 18.792,07 28/02/2023
132 425400 ALINE TRINDADE DE FREITAS CAMPOS OFICIAL DO MP BELO HORIZONTE - COMARCA; BH-14PJ DEFESA CONSUMIDOR-SECRETARIA 9.999,62 1.999,92 0,00 0,00 0,00 0,00 0,00 1.911,00 13.910,54 1.700,87 1.962,77 0,00 0,00 3.663,64 10.246,90 28/02/2023
133 517200 ALISSOM PEREIRA DA SILVA ANALISTA DO MP BORDA DA MATA - COMARCA; BORDA DA MATA-PJ-UNPJ 11.008,33 2.201,67 0,00 0,00 0,00 0,00 532,80 8.608,70 22.351,50 1.894,55 2.242,39 0,00 0,00 4.136,94 18.214,56 28/02/2023
134 442400 ALISSON LABRE ANALISTA DO MP VARGINHA - COMARCA; VARGINHA-PJ-03PJ 11.736,91 2.347,38 0,00 0,00 0,00 0,00 516,42 7.544,72 22.145,43 982,16 2.733,73 0,00 0,00 3.715,89 18.429,54 28/02/2023
135 643800 ALLAN PAUL FONSECA DE CASTRO OFICIAL DO MP CONTAGEM - COMARCA; CONTAGEM-PJ-SECRETARIA 5.889,39 588,94 2.602,68 0,00 0,00 0,00 299,67 6.065,46 15.446,14 822,63 1.401,69 0,00 0,00 2.224,32 13.221,82 28/02/2023
136 612900 ALLAN VINICIUS VIEIRA ARAUJO COORDENADOR II BELO HORIZONTE - COMARCA; DIRETORIA DE GESTAO DOCUMENTAL 18.312,36 1.831,24 0,00 0,00 0,00 0,00 517,02 7.551,21 28.211,83 959,93 4.406,15 0,00 0,00 5.366,08 22.845,75 28/02/2023
137 349000 ALLEC RODRIGUES VIEIRA OFICIAL DO MP CAPINÓPOLIS - COMARCA; CAO-CIVEL 11.008,33 3.302,50 0,00 0,00 0,00 0,00 524,73 7.635,33 22.470,89 2.070,68 2.496,68 0,00 0,00 4.567,36 17.903,53 28/02/2023
138 297300 ALLYSON SALIBA MONTEIRO LAIZO ANALISTA DO MP CONSELHEIRO LAFAIETE - COMARCA; CONSELHEIRO LAFAIETE-PJ-03PJ 20.574,59 6.172,38 0,00 0,00 0,00 0,00 490,36 8.145,69 35.383,02 4.060,46 5.369,43 0,00 0,00 9.429,89 25.953,13 28/02/2023
139 303700 ALMIR LOPES LOURES ANALISTA DO MP BELO HORIZONTE - COMARCA; CENTRAL DE APOIO TECN-SETOR DE MEIO AMBIENTE 20.574,59 6.172,38 0,00 0,00 8.915,66 0,00 490,36 7.260,39 43.413,38 4.060,46 7.821,24 0,00 0,00 11.881,70 31.531,68 28/02/2023
140 696600 ALOIZIO MARTINS JALES JUNIOR ASSESSOR PROMOTOR JUSTICA CAMPESTRE - COMARCA; CAMPESTRE-PJ-SECRETARIA 0,00 0,00 7.857,77 0,00 0,00 0,00 0,00 1.911,00 9.768,77 877,22 1.416,87 0,00 0,00 2.294,09 7.474,68 28/02/2023
141 515900 ALTAIR NEVES JUNIOR OFICIAL DO MP BELO HORIZONTE - COMARCA; BH-01PJ FAZENDA PUBLICA-SECRETARIA 8.650,50 1.730,10 0,00 0,00 0,00 0,00 418,68 6.478,46 17.277,74 1.441,84 1.588,80 0,00 0,00 3.030,64 14.247,10 28/02/2023
142 233300 ALVARINDO BATISTA ANALISTA DO MP BELO HORIZONTE - COMARCA; NUCLEO APOIO TECNICO ESP COMUNICACAO 20.574,59 8.229,84 0,00 0,00 0,00 0,00 0,00 1.911,00 30.715,43 4.389,66 5.792,56 0,00 0,00 10.182,22 20.533,21 28/02/2023
143 274100 ALYSSON CARVALHO VIDAL DE LACERDA OFICIAL DO MP MANHUAÇU - COMARCA; MANHUACU-PJ-01PJ 11.008,33 3.302,50 0,00 0,00 0,00 0,00 0,00 1.911,00 16.221,83 2.070,68 2.496,68 0,00 0,00 4.567,36 11.654,47 28/02/2023
144 621000 AMANDA BASTOS ALVES ANALISTA DO MP BELO HORIZONTE - COMARCA; BH-07PJ 02 TRIBUNAL DO JURI-GAB 066PJ 10.325,15 1.032,52 0,00 0,00 0,00 0,00 0,00 1.911,00 13.268,67 982,16 1.904,50 0,00 0,00 2.886,66 10.382,01 28/02/2023
145 521700 AMANDA CRISTINA AGUIAR MACHADO OFICIAL DO MP CONGONHAS - COMARCA; CONGONHAS-PJ-01PJ 6.426,87 1.338,93 0,00 0,00 0,00 0,00 0,00 1.850,41 9.616,21 1.066,32 920,86 0,00 0,00 1.987,18 7.629,03 28/02/2023
146 713900 AMANDA DE ARAUJO CARVALHO ASSESSOR PROMOTOR JUSTICA ARAÇUAÍ - COMARCA; ARACUAI-PJ-01PJ 0,00 0,00 7.857,77 0,00 0,00 0,00 0,00 1.911,00 9.768,77 877,22 1.416,87 0,00 0,00 2.294,09 7.474,68 28/02/2023
147 613400 AMANDA DE ASSIS IUNES SANTOS ANALISTA DO MP CONGONHAS - COMARCA; CONGONHAS-PJ-01PJ 10.325,15 1.032,52 0,00 0,00 0,00 0,00 83,29 2.819,61 14.260,57 1.598,18 1.814,50 0,00 0,00 3.412,68 10.847,89 28/02/2023
148 695900 AMANDA DE OLIVEIRA ASSESSOR PROCURADOR JUSTICA BELO HORIZONTE - COMARCA; PROC JUST ATUACAO TRIBUNAIS SUPERIORES-GAB004 0,00 0,00 7.857,77 0,00 0,00 0,00 0,00 1.911,00 9.768,77 877,22 1.416,87 0,00 0,00 2.294,09 7.474,68 28/02/2023
149 520800 AMANDA DE SOUZA MACHADO ANALISTA DO MP BAEPENDI - COMARCA; BAEPENDI-PJ-UNPJ 11.008,33 2.201,67 0,00 0,00 0,00 0,00 532,80 7.723,40 21.466,20 1.894,55 2.138,11 0,00 0,00 4.032,66 17.433,54 28/02/2023
150 663900 AMANDA DENISE GONCALVES DA SILVA ASSESSOR ADMINISTRATIVO I BELO HORIZONTE - COMARCA; BH-12PJ JUIZO CRIMINAL-SECRETARIA 0,00 0,00 4.345,58 0,00 0,00 0,00 0,00 1.911,00 6.256,58 621,17 521,42 0,00 0,00 1.142,59 5.113,99 28/02/2023
151 677000 AMANDA LETICIA MESSIAS PEGO ASSESSOR PROMOTOR JUSTICA CORAÇÃO DE JESUS - COMARCA; CORACAO DE JESUS-PJ-UNPJ 0,00 0,00 7.857,77 0,00 0,00 0,00 0,00 1.911,00 9.768,77 877,22 1.416,87 0,00 0,00 2.294,09 7.474,68 28/02/2023
152 543100 AMANDA VIEIRA FREITAS BRESSANE ANALISTA DO MP VARGINHA - COMARCA; COORD REG DEF ORDEM ECON TRIB VARGINHA 11.008,33 1.100,83 0,00 0,00 0,00 0,00 0,00 1.911,00 14.020,16 1.718,41 1.988,10 0,00 0,00 3.706,51 10.313,65 28/02/2023
153 434400 AMARILIS ASSIS SIMAO CURCIO ANALISTA DO MP BELO HORIZONTE - COMARCA; DIRETORIA GESTAO COMPRAS LICITACOES 11.008,33 2.201,67 0,00 0,00 0,00 0,00 0,00 1.911,00 15.121,00 1.894,55 2.242,39 0,00 0,00 4.136,94 10.984,06 28/02/2023
154 652000 AMAURI SILVA ALVES ASSESSOR ADMINISTRATIVO III BELO HORIZONTE - COMARCA; BH-23PJ INFRACIONAL-SEC EXP 9.684,23 968,42 0,00 0,00 3.550,88 0,00 429,66 6.598,17 21.231,36 745,69 2.831,55 0,00 0,00 3.577,24 17.654,12 28/02/2023
155 58000 AMELIA GUARIZE DE CASTRO OFICIAL DO MP JUIZ DE FORA - COMARCA; JUIZ DE FORA-PJ-SECRETARIA 7.370,10 8.107,11 0,00 0,00 0,00 2.257,30 510,75 7.482,80 25.728,06 2.257,30 3.386,87 0,00 0,00 5.644,17 20.083,89 28/02/2023
156 324301 AMERICA SUELI FERREIRA DA SILVA ANALISTA DO MP UBERLÂNDIA - COMARCA; UBERLANDIA-PJ-02PJ 11.008,33 2.201,67 0,00 0,00 0,00 0,00 532,80 7.723,40 21.466,20 1.894,55 2.190,25 0,00 0,00 4.084,80 17.381,40 28/02/2023
157 273300 AMUJACY DE BRITO ASSIZ OFICIAL DO MP BELO HORIZONTE - COMARCA; BH-12PJ JUIZO CRIMINAL-SECRETARIA 11.008,33 3.302,50 0,00 0,00 0,00 0,00 0,00 1.911,00 16.221,83 2.070,68 2.288,13 0,00 0,00 4.358,81 11.863,02 28/02/2023
158 482200 ANA ALICE LOPES ACHTSCHIN ANALISTA DO MP BELO HORIZONTE - COMARCA; PROC JUST ATUACAO TRIBUNAIS SUPERIORES-GAB002 13.341,69 2.668,34 0,00 0,00 0,00 0,00 528,33 7.674,61 24.212,97 2.342,55 2.889,20 0,00 0,00 5.231,75 18.981,22 28/02/2023
159 490400 ANA AMELIA PAULINO GARCIA OFICIAL DO MP CONTAGEM - COMARCA; CONTAGEM-PJ-SECRETARIA 9.378,86 1.875,77 0,00 0,00 0,00 0,00 0,00 2.796,30 14.050,93 1.581,69 1.738,56 0,00 0,00 3.320,25 10.730,68 28/02/2023
160 690400 ANA ANGELICA MOREIRA DA CUNHA ASSESSOR PROMOTOR JUSTICA TIMÓTEO - COMARCA; TIMOTEO-PJ-02PJ 0,00 0,00 7.857,77 0,00 0,00 0,00 0,00 1.911,00 9.768,77 877,22 1.416,87 0,00 0,00 2.294,09 7.474,68 28/02/2023
161 714900 ANA BEATRIZ LOBATO ALVES DE CARVALHO ASSESSOR PROCURADOR JUSTICA BELO HORIZONTE - COMARCA; GABINETE DE PROCURADOR DE JUSTICA - SALA 309 0,00 3.143,11 7.857,77 0,00 0,00 0,00 0,00 1.911,00 12.911,88 877,22 2.281,22 0,00 0,00 3.158,44 9.753,44 28/02/2023
162 715000 ANA CARLA RODRIGUES DE SOUZA ASSESSOR PROMOTOR JUSTICA TRÊS CORACOES - COMARCA; TRES CORACOES-PJ-01PJ 0,00 0,00 7.857,77 0,00 0,00 0,00 0,00 1.911,00 9.768,77 877,22 1.416,87 0,00 0,00 2.294,09 7.474,68 28/02/2023
163 279100 ANA CAROLINA ARAUJO PEREIRA ANALISTA DO MP BELO HORIZONTE - COMARCA; DIRETORIA DE PROJETOS DE EDIFICACOES 20.574,59 6.172,38 0,00 0,00 0,00 0,00 0,00 1.911,00 28.657,97 4.060,46 5.317,29 0,00 0,00 9.377,75 19.280,22 28/02/2023
164 653300 ANA CAROLINA CYRNE DINIZ ASSESSOR ADMINISTRATIVO III BELO HORIZONTE - COMARCA; CENTRAL DE APOIO TECNICO-SETOR CONTABIL 0,00 0,00 9.684,23 0,00 0,00 0,00 0,00 1.911,00 11.595,23 877,22 1.919,14 0,00 0,00 2.796,36 8.798,87 28/02/2023
165 359400 ANA CAROLINA DE ABREU FARIA ASSESSOR ADMINISTRATIVO IV BELO HORIZONTE - COMARCA; SUPERINTENDÊNCIA DE ENGENHARIA E ARQUITETURA 0,00 0,00 12.920,95 0,00 4.306,98 0,00 521,15 8.481,52 26.230,60 877,22 3.941,52 0,00 0,00 4.818,74 21.411,86 28/02/2023
166 408500 ANA CAROLINA DE CASTRO CARVALHO ANALISTA DO MP BARBACENA - COMARCA; BARBACENA - SECRETARIA DAS PJS CRIMINAIS 16.169,47 3.233,89 0,00 0,00 0,00 0,00 0,00 2.796,30 22.199,66 2.885,49 3.673,05 0,00 0,00 6.558,54 15.641,12 28/02/2023
167 688000 ANA CAROLINA DE OLIVEIRA PINTO ASSESSOR PROCURADOR JUSTICA BELO HORIZONTE - COMARCA; GABINETE DE PROCURADOR DE JUSTIÇA - SALA 1005 0,00 0,00 7.857,77 0,00 0,00 0,00 0,00 1.911,00 9.768,77 877,22 1.416,87 0,00 0,00 2.294,09 7.474,68 28/02/2023
168 420200 ANA CAROLINA FERNANDES SILVA ANALISTA DO MP BELO HORIZONTE - COMARCA; GABINETE DE PROCURADOR DE JUSTIÇA - SALA 704 15.659,55 3.131,91 0,00 0,00 0,00 0,00 0,00 1.911,00 20.702,46 2.787,58 3.531,71 0,00 0,00 6.319,29 14.383,17 28/02/2023
169 522100 ANA CAROLINA FERNANDINO VIDAL PEREIRA SANTOS OFICIAL DO MP BELO HORIZONTE - COMARCA; SECRETARIA DO PROCON-MG 8.650,50 1.730,10 0,00 0,00 0,00 0,00 0,00 1.911,00 12.291,60 982,16 1.655,95 0,00 0,00 2.638,11 9.653,49 28/02/2023
170 716000 ANA CAROLINA FIGUEIREDO SILVA ASSESSOR PROCURADOR JUSTICA BELO HORIZONTE - COMARCA; PROC JUST ATUACAO TRIBUNAIS SUPERIORES-GAB001 0,00 0,00 7.857,77 0,00 0,00 0,00 0,00 1.911,00 9.768,77 877,22 1.416,87 0,00 0,00 2.294,09 7.474,68 28/02/2023
171 502400 ANA CAROLINA GONCALVES FERNANDES ANALISTA DO MP IPATINGA - COMARCA; IPATINGA-PJ-01PJ 11.008,33 2.201,67 0,00 0,00 0,00 0,00 532,80 9.494,00 23.236,80 982,16 2.375,68 0,00 0,00 3.357,84 19.878,96 28/02/2023
172 529900 ANA CAROLINA GONCALVES PECANHA CHEQUER ANALISTA DO MP MANHUAÇU - COMARCA; MANHUACU-PJ-04PJ 11.008,33 1.100,83 0,00 0,00 0,00 0,00 0,00 3.681,60 15.790,76 1.718,41 1.988,10 0,00 0,00 3.706,51 12.084,25 28/02/2023
173 431900 ANA CAROLINA MOTTA GUATIMOSIM ANALISTA DO MP BELO HORIZONTE - COMARCA; ASSESSORIA JURIDICO-ADMINISTRATIVA 15.659,55 3.131,91 0,00 0,00 0,00 0,00 0,00 2.796,30 21.587,76 2.787,58 3.531,71 0,00 0,00 6.319,29 15.268,47 28/02/2023
174 490600 ANA CAROLINA XAVIER GODOY ANALISTA DO MP BELO HORIZONTE - COMARCA; BH-18PJ DIREITOS HUMANOS-SECRETARIA 11.008,33 2.201,67 0,00 0,00 0,00 0,00 532,80 9.494,00 23.236,80 1.894,55 2.138,11 0,00 0,00 4.032,66 19.204,14 28/02/2023
175 600300 ANA CAROLINE PEREIRA DINIZ ANALISTA DO MP BELO HORIZONTE - COMARCA; PROC JUST ESP ACOES COMP ORIG CRIMINAL-SEC 11.008,33 1.100,83 0,00 0,00 0,00 0,00 532,80 8.608,70 21.250,66 1.718,41 1.988,10 0,00 0,00 3.706,51 17.544,15 28/02/2023
176 615800 ANA CAROLINE PEREIRA OLIVEIRA OFICIAL DO MP ALFENAS - COMARCA; ALFENAS-PJ-06PJ 6.694,66 669,47 0,00 0,00 0,00 0,00 135,01 3.383,83 10.882,97 959,93 891,80 0,00 0,00 1.851,73 9.031,24 28/02/2023
177 324800 ANA CECILIA MENDES DA SILVA OFICIAL DO MP OURO FINO - COMARCA; OURO FINO-PJ-01PJ 11.008,33 4.403,33 0,00 0,00 0,00 0,00 0,00 1.911,00 17.322,66 2.246,81 2.698,84 0,00 0,00 4.945,65 12.377,01 28/02/2023
178 704100 ANA CLARA MARTINS ALBUQUERQUE ASSESSOR ADMINISTRATIVO I BELO HORIZONTE - COMARCA; CAO-CRIANCAS E ADOLESCENTES-ASS TECNICA 0,00 0,00 4.345,58 0,00 0,00 0,00 0,00 1.911,00 6.256,58 621,17 521,42 0,00 0,00 1.142,59 5.113,99 28/02/2023
179 698700 ANA CLARA SANTOS ALMEIDA ASSESSOR PROMOTOR JUSTICA SABINÓPOLIS - COMARCA; SABINOPOLIS-PJ-UNPJ 0,00 0,00 7.857,77 0,00 0,00 0,00 0,00 1.911,00 9.768,77 877,22 1.416,87 0,00 0,00 2.294,09 7.474,68 28/02/2023
180 441300 ANA CLAUDIA ALKIMIM MIRANDA BOMTEMPO ANALISTA DO MP MONTES CLAROS - COMARCA; MONTES CLAROS-PJ-11PJ 15.659,55 3.131,91 0,00 0,00 0,00 0,00 0,00 1.911,00 20.702,46 2.787,58 3.427,43 0,00 0,00 6.215,01 14.487,45 28/02/2023
181 642500 ANA CLAUDIA DA COSTA NAVES OFICIAL DO MP MONTE CARMELO - COMARCA; MONTE CARMELO-PJ-02PJ 5.438,14 543,81 0,00 0,00 0,00 0,00 0,00 2.796,30 8.778,25 745,69 570,61 0,00 0,00 1.316,30 7.461,95 28/02/2023
182 716800 ANA CLAUDIA DOURADO MENDES ASSESSOR PROMOTOR JUSTICA ARAÇUAÍ - COMARCA; ARACUAI-PJ-02PJ 0,00 0,00 7.857,77 0,00 0,00 0,00 0,00 1.911,00 9.768,77 877,22 1.416,87 0,00 0,00 2.294,09 7.474,68 28/02/2023
183 604900 ANA CLAUDIA OLIVEIRA DE MIRANDA OFICIAL DO MP PONTE NOVA - COMARCA; PONTE NOVA-PJ-04PJ 6.694,66 669,47 0,00 0,00 0,00 0,00 0,00 1.911,00 9.275,13 959,93 839,66 0,00 0,00 1.799,59 7.475,54 28/02/2023
184 379300 ANA CRISTINA ALVES FLAVIO ANALISTA DO MP SÃO GOTARDO - COMARCA; SAO GOTARDO-PJ-01PJ 16.695,70 3.339,14 0,00 0,00 0,00 0,00 0,00 2.796,30 22.831,14 2.986,52 3.766,79 0,00 0,00 6.753,31 16.077,83 28/02/2023
185 461200 ANA CRISTINA ALVES PASCHOAL ANALISTA DO MP BELO HORIZONTE - COMARCA; BH-07PJ 03 TRIBUNAL DO JURI-GAB 064PJ 11.008,33 2.201,67 0,00 0,00 0,00 0,00 0,00 1.911,00 15.121,00 1.894,55 2.190,25 0,00 0,00 4.084,80 11.036,20 28/02/2023
186 514100 ANA CRISTINA ARAUJO ASSUNCAO ANALISTA DO MP BELO HORIZONTE - COMARCA; ASSESS JUR DO CONS SUPERIOR DO MINISTERIO PUB 11.008,33 2.201,67 0,00 0,00 0,00 0,00 0,00 2.796,30 16.006,30 1.894,55 2.190,25 0,00 0,00 4.084,80 11.921,50 28/02/2023
187 113401 ANA CRISTINA BRAGA ALBUQUERQUE ASSESSOR ADM. ESPECIAL BELO HORIZONTE - COMARCA; DIRETORIA-GERAL 0,00 0,00 24.982,93 0,00 0,00 0,00 0,00 1.333,00 26.315,93 877,22 6.126,29 0,00 0,00 7.003,51 19.312,42 28/02/2023
188 233800 ANA CRISTINA BRAGA SOARES OFICIAL DO MP BELO HORIZONTE - COMARCA; DIRETORIA DE CONTABILIDADE 13.341,69 5.336,68 0,00 0,00 0,00 0,00 0,00 1.911,00 20.589,37 2.769,49 3.401,31 0,00 0,00 6.170,80 14.418,57 28/02/2023
189 186400 ANA CRISTINA DE AZEVEDO LOPES OFICIAL DO MP UBÁ - COMARCA; UBA-PJ-01PJ 18.312,36 7.324,94 0,00 0,00 0,00 0,00 470,02 7.038,46 33.145,78 3.882,92 5.113,09 0,00 0,00 8.996,01 24.149,77 28/02/2023
190 693000 ANA CRISTINA DE MELO SILVEIRA ASSESSOR PROCURADOR JUSTICA BELO HORIZONTE - COMARCA; COORD DE CONTROLE CONSTITUCIONALIDADE 0,00 0,00 7.857,77 0,00 0,00 0,00 0,00 2.796,30 10.654,07 877,22 1.416,87 0,00 0,00 2.294,09 8.359,98 28/02/2023
191 465100 ANA CRISTINA DE OLIVEIRA GUIMARAES ANALISTA DO MP ITAJUBA - COMARCA; ITAJUBA-PJ-05PJ 11.008,33 2.201,67 0,00 0,00 0,00 0,00 532,80 8.608,70 22.351,50 1.894,55 2.138,11 0,00 0,00 4.032,66 18.318,84 28/02/2023
192 500600 ANA CRISTINA LATADO SUDARIO ANALISTA DO MP UBERLÂNDIA - COMARCA; UBERLANDIA-PJ-09PJ 11.008,33 2.201,67 0,00 0,00 0,00 0,00 0,00 1.911,00 15.121,00 1.894,55 2.242,39 0,00 0,00 4.136,94 10.984,06 28/02/2023
193 331400 ANA CRISTINA RIBEIRO ALVES OFICIAL DO MP BAMBUÍ - COMARCA; BAMBUI-PJ-UNPJ 11.008,33 3.302,50 0,00 0,00 0,00 0,00 524,73 7.635,33 22.470,89 2.070,68 2.444,54 0,00 0,00 4.515,22 17.955,67 28/02/2023
194 249300 ANA ELOINA MARTINS OFICIAL DO MP BETIM - COMARCA; BETIM-PJ-02PJ 15.659,55 7.829,78 0,00 0,00 0,00 0,00 516,77 7.548,44 31.554,54 3.539,24 4.616,91 0,00 0,00 8.156,15 23.398,39 28/02/2023
195 257400 ANA FLAVIA CAMBRAIA ANALISTA DO MP BELO HORIZONTE - COMARCA; BH-19PJ SAUDE-SECRETARIA 150PJ 20.574,59 8.229,84 0,00 0,00 0,00 0,00 0,00 1.911,00 30.715,43 4.389,66 5.792,56 0,00 0,00 10.182,22 20.533,21 28/02/2023
196 248201 ANA FLAVIA DE MORAIS SOUZA ANALISTA DO MP DIVINÓPOLIS - COMARCA; DIVINOPOLIS-PJ-01PJ 13.341,69 5.336,68 0,00 0,00 0,00 0,00 547,90 8.773,38 27.999,65 2.769,49 3.401,31 0,00 0,00 6.170,80 21.828,85 28/02/2023
197 621100 ANA FLAVIA DINIZ TEODORO OFICIAL DO MP SANTA LUZIA - COMARCA; SANTA LUZIA-PJ-06PJ 6.694,66 669,47 0,00 0,00 0,00 0,00 0,00 1.911,00 9.275,13 959,93 891,80 0,00 0,00 1.851,73 7.423,40 28/02/2023
198 238600 ANA FLAVIA FRANCO OFICIAL DO MP BELO HORIZONTE - COMARCA; DIRETORIA DE PESSOAL ADMINISTRATIVO - DPAD 16.169,47 6.467,79 0,00 0,00 0,00 0,00 498,02 7.343,94 30.479,22 3.402,91 4.420,09 0,00 0,00 7.823,00 22.656,22 28/02/2023
199 690000 ANA FLAVIA LURIAN DE PAIVA ASSESSOR PROCURADOR JUSTICA BELO HORIZONTE - COMARCA; GABINETE DE PROCURADOR DE JUSTIÇA - SALA 609 0,00 0,00 7.857,77 0,00 0,00 0,00 0,00 1.911,00 9.768,77 877,22 1.416,87 0,00 0,00 2.294,09 7.474,68 28/02/2023
200 402900 ANA FLAVIA PORTES DE CARVALHO ANALISTA DO MP BELO HORIZONTE - COMARCA; DIRET DE PLANOS PROJETOS E PROGRAMAS INST 16.695,70 3.339,14 0,00 0,00 0,00 0,00 514,23 7.520,76 28.069,83 2.986,52 3.766,79 0,00 0,00 6.753,31 21.316,52 28/02/2023
201 382700 ANA KARENINA SALDANHA GONTIJO ANALISTA DO MP BELO HORIZONTE - COMARCA; ASSESS TECNICO-JUR JUNTO AS PROC. DE JUST 16.944,07 3.388,81 0,00 0,00 0,00 0,00 0,00 1.911,00 22.243,88 3.034,21 3.887,77 0,00 0,00 6.921,98 15.321,90 28/02/2023
202 620500 ANA KARINE DE ANDRADE OLIVEIRA ANALISTA DO MP RIBEIRÃO DAS NEVES - COMARCA; RIBEIRAO NEVES-SEC PJ EXECUCAO PENAL 9.378,86 937,89 0,00 0,00 0,00 0,00 0,00 1.911,00 12.227,75 1.431,63 1.574,05 0,00 0,00 3.005,68 9.222,07 28/02/2023
203 462200 ANA LUCIA ANDRADE TOMICH OTTONI ANALISTA DO MP TEÓFILO OTONI - COMARCA; TEOFILO OTONI-PJ-07PJ 11.008,33 2.201,67 0,00 0,00 0,00 0,00 0,00 2.796,30 16.006,30 1.894,55 2.138,11 0,00 0,00 4.032,66 11.973,64 28/02/2023
204 504100 ANA LUCIA CATAO DE CARVALHO OFICIAL DO MP BELO HORIZONTE - COMARCA; DIR RELACOES INSTITUCIONAIS 9.378,86 1.875,77 0,00 0,00 0,00 0,00 536,47 7.763,41 19.554,51 1.581,69 1.738,56 0,00 0,00 3.320,25 16.234,26 28/02/2023
205 274700 ANA LUCIA DE ALENCAR BRAGATO OFICIAL DO MP UBERABA - COMARCA; UBERABA-PJ-07PJ 11.008,33 3.302,50 0,00 0,00 0,00 0,00 524,73 7.635,33 22.470,89 2.070,68 2.496,68 0,00 0,00 4.567,36 17.903,53 28/02/2023
206 509400 ANA LUCIA DORNELAS MALLOSTO ANALISTA DO MP JUIZ DE FORA - COMARCA; JUIZ DE FORA-PJ-25PJ 11.008,33 2.201,67 0,00 0,00 4.403,33 0,00 193,75 4.024,60 21.831,68 1.894,55 3.401,17 0,00 0,00 5.295,72 16.535,96 28/02/2023
207 302600 ANA LUCIA LOPES SANTOS OFICIAL DO MP BELO HORIZONTE - COMARCA; DIVISÃO DE FISCALIZAÇÃO DAS RELAÇÕES DE CONSU 11.008,33 3.302,50 0,00 0,00 0,00 0,00 1.580,00 1.911,00 17.801,83 2.070,68 2.879,04 0,00 0,00 4.949,72 12.852,11 28/02/2023
208 716700 ANA LUISA DE LANA COELHO ASSESSOR PROCURADOR JUSTICA BELO HORIZONTE - COMARCA; GABINETE DE PROCURADOR DE JUSTIÇA - SALA 715 0,00 0,00 7.857,77 0,00 0,00 0,00 0,00 1.911,00 9.768,77 877,22 1.416,87 0,00 0,00 2.294,09 7.474,68 28/02/2023
209 702000 ANA LUISA DE OLIVEIRA RIBEIRO ASSESSOR PROCURADOR JUSTICA BELO HORIZONTE - COMARCA; ASSESS TECNICO-JUR JUNTO AS PROC. DE JUST 0,00 0,00 7.857,77 0,00 0,00 0,00 0,00 1.911,00 9.768,77 877,22 1.416,87 0,00 0,00 2.294,09 7.474,68 28/02/2023
210 493400 ANA LUISA NOGUEIRA MOREIRA ANALISTA DO MP BELO HORIZONTE - COMARCA; BH-19PJ SAUDE-SECRETARIA 130PJ 11.008,33 2.201,67 0,00 0,00 0,00 0,00 0,00 1.911,00 15.121,00 1.894,55 2.242,39 0,00 0,00 4.136,94 10.984,06 28/02/2023
211 389300 ANA LUISA REUTER LIMA ANALISTA DO MP BELO HORIZONTE - COMARCA; DIRETORIA DE SISTEMAS DE INFORMACAO 16.695,70 3.339,14 4.939,72 0,00 0,00 0,00 0,00 1.911,00 26.885,56 2.986,52 5.177,35 0,00 0,00 8.163,87 18.721,69 28/02/2023
212 480600 ANA LUIZA FERNANDES FRAGA E GRECO COORDENADOR I BELO HORIZONTE - COMARCA; OUVIDORIA DO MPMG 14.687,60 2.937,52 0,00 0,00 0,00 0,00 517,00 7.551,04 25.693,16 1.441,84 3.581,04 0,00 0,00 5.022,88 20.670,28 28/02/2023
213 726800 ANA LUIZA GOMES PEREIRA ASSESSOR ADMINISTRATIVO I BELO HORIZONTE - COMARCA; OUVIDORIA DO MPMG 0,00 0,00 4.345,58 0,00 0,00 0,00 0,00 1.911,00 6.256,58 621,17 521,42 0,00 0,00 1.142,59 5.113,99 28/02/2023
214 517800 ANA LUIZA MAGALHAES CIRINO PIOTO DE MELO OFICIAL DO MP BELO HORIZONTE - COMARCA; DIVISAO DE MATERIAIS 6.081,20 608,12 0,00 0,00 0,00 0,00 0,00 3.681,60 10.370,92 855,73 734,88 0,00 0,00 1.590,61 8.780,31 28/02/2023
215 481400 ANA MARCIA CANDIDA FERREIRA OFICIAL DO MP BRUMADINHO - COMARCA; BRUMADINHO-PJ-02PJ 6.694,66 1.338,93 0,00 0,00 0,00 0,00 0,00 1.911,00 9.944,59 1.066,32 1.046,64 0,00 0,00 2.112,96 7.831,63 28/02/2023
216 643100 ANA MARIA LOPES MIRANDA ANALISTA DO MP BELO HORIZONTE - COMARCA; CAO-FUNDACOES 9.223,00 922,30 0,00 0,00 0,00 0,00 0,00 2.796,30 12.941,60 982,16 1.541,69 0,00 0,00 2.523,85 10.417,75 28/02/2023
217 556400 ANA MARIA OLIVEIRA SOUZA OFICIAL DO MP ITAPECERICA - COMARCA; ITAPECERICA-PJ-UNPJ 7.137,75 713,78 0,00 0,00 0,00 0,00 0,00 1.911,00 9.762,53 1.037,19 1.004,58 0,00 0,00 2.041,77 7.720,76 28/02/2023
218 409600 ANA OLIVIA FARIA ROSENBURG ANALISTA DO MP BELO HORIZONTE - COMARCA; DIRETORIA DO COLEGIO E DA CAMARA DE PJ 16.169,47 6.467,79 0,00 0,00 0,00 0,00 1.413,64 7.343,94 31.394,84 3.402,91 4.671,88 0,00 0,00 8.074,79 23.320,05 28/02/2023
219 461500 ANA PAULA ALVES CARVALHO ANALISTA DO MP UBERLÂNDIA - COMARCA; UBERLANDIA-PJ-25PJ 11.736,91 2.347,38 0,00 0,00 0,00 0,00 516,42 8.430,02 23.030,73 2.034,43 2.340,08 0,00 0,00 4.374,51 18.656,22 28/02/2023
220 523200 ANA PAULA ALVES DA SILVA OFICIAL DO MP GOVERNADOR VALADARES - COMARCA; GOVERNADOR VALADARES-PJ-10PJ 8.650,50 1.730,10 0,00 0,00 3.460,20 0,00 418,68 10.019,66 24.279,14 982,16 2.503,23 0,00 0,00 3.485,39 20.793,75 28/02/2023
221 381200 ANA PAULA BARROS PEREIRA RIGHI ANALISTA DO MP BELO HORIZONTE - COMARCA; PROC JUST ATUACAO TRIBUNAIS SUPERIORES-GAB003 16.695,70 3.339,14 0,00 0,00 0,00 0,00 0,00 2.796,30 22.831,14 982,16 4.059,61 0,00 0,00 5.041,77 17.789,37 28/02/2023
222 696400 ANA PAULA CARVALHO SILVA ASSESSOR PROMOTOR JUSTICA PERDÕES - COMARCA; PERDOES-PJ-UNPJ 0,00 0,00 7.857,77 0,00 0,00 0,00 0,00 2.796,30 10.654,07 877,22 1.364,73 0,00 0,00 2.241,95 8.412,12 28/02/2023
223 700900 ANA PAULA CRAVO SALOME ASSESSOR ADMINISTRATIVO I BELO HORIZONTE - COMARCA; PROCURADOR-GERAL DE JUSTIÇA 0,00 0,00 4.345,58 0,00 0,00 0,00 0,00 1.911,00 6.256,58 621,17 521,42 0,00 0,00 1.142,59 5.113,99 28/02/2023
224 227200 ANA PAULA DA SILVA CAMPOLINA ANALISTA DO MP BELO HORIZONTE - COMARCA; DIRETORIA DE ORCAMENTO-DIOR/SPC 20.574,59 10.287,30 0,00 0,00 0,00 0,00 452,64 6.848,90 38.163,43 4.718,85 6.319,98 0,00 0,00 11.038,83 27.124,60 28/02/2023
225 278500 ANA PAULA DIAS CAPANEMA OFICIAL DO MP BELO HORIZONTE - COMARCA; DIRETORIA DE SEGURANCA 11.736,91 3.521,07 0,00 0,00 0,00 0,00 503,51 7.403,87 23.165,36 2.222,23 2.715,47 0,00 0,00 4.937,70 18.227,66 28/02/2023
226 327300 ANA PAULA GARCIA MAXIMO OFICIAL DO MP UNAÍ - COMARCA; UNAI-PJ-01PJ 13.776,02 6.888,01 0,00 0,00 0,00 0,00 530,38 7.696,93 28.891,34 3.087,19 3.807,86 0,00 0,00 6.895,05 21.996,29 28/02/2023
227 270000 ANA PAULA GOULART CRUZ DE MAGALHAES ANALISTA DO MP BELO HORIZONTE - COMARCA; ASSESSORIA ESPECIAL DO PGJ 20.574,59 6.172,38 0,00 0,00 0,00 0,00 490,36 7.260,39 34.497,72 4.060,46 5.369,43 0,00 0,00 9.429,89 25.067,83 28/02/2023
228 262100 ANA PAULA KOMATSUZAKI ABIJAUDI ANALISTA DO MP BELO HORIZONTE - COMARCA; BH-17PJ PATRIMONIO PUBLICO-SECRETARIA 20.574,59 10.287,30 0,00 0,00 0,00 0,00 452,64 6.848,90 38.163,43 4.718,85 6.215,70 0,00 0,00 10.934,55 27.228,88 28/02/2023
229 278900 ANA PAULA MOREIRA GURGEL ANALISTA DO MP BELO HORIZONTE - COMARCA; ASSESSORIA JURIDICO-ADMINISTRATIVA 20.574,59 8.229,84 7.494,88 0,00 0,00 0,00 520,11 7.584,96 44.404,38 4.389,66 7.675,59 837,09 0,00 12.902,34 31.502,04 28/02/2023
230 425701 ANA PAULA ROCHA ANALISTA DO MP BELO HORIZONTE - COMARCA; ASSESSORIA DE COMUNICACAO INTEGRADA 11.008,33 1.100,83 0,00 0,00 0,00 0,00 0,00 2.796,30 14.905,46 1.718,41 1.988,10 0,00 0,00 3.706,51 11.198,95 28/02/2023
231 395601 ANA PAULA SALGE OLIVEIRA ANALISTA DO MP UBERABA - COMARCA; UBERABA-PJ-15PJ 11.008,33 3.302,50 0,00 0,00 0,00 0,00 524,73 7.635,33 22.470,89 2.070,68 2.496,68 0,00 0,00 4.567,36 17.903,53 28/02/2023
232 473200 ANA PAULA SCOTTON BRASIL ANALISTA DO MP JUIZ DE FORA - COMARCA; JUIZ DE FORA-PJ-09PJ 11.008,33 2.201,67 0,00 0,00 0,00 0,00 532,80 7.723,40 21.466,20 1.894,55 2.242,39 0,00 0,00 4.136,94 17.329,26 28/02/2023
233 633600 ANA PAULA SILVA FERNANDES OFICIAL DO MP CATAGUASES - COMARCA; CATAGUASES-PJ-04PJ 6.483,63 648,36 0,00 0,00 0,00 0,00 0,00 1.911,00 9.042,99 923,95 837,85 0,00 0,00 1.761,80 7.281,19 28/02/2023
234 470900 ANA PAULA VALADARES ANALISTA DO MP PITANGUI - COMARCA; PITANGUI-PJ-01PJ 11.008,33 2.201,67 0,00 0,00 0,00 0,00 0,00 1.911,00 15.121,00 1.894,55 2.138,11 0,00 0,00 4.032,66 11.088,34 28/02/2023
235 447000 ANA PAULA VALENTIM DE ARAUJO ANALISTA DO MP BELO HORIZONTE - COMARCA; PROC JUST ESP ACOES COMP ORIG CRIMINAL-ASSESS 12.118,97 2.423,79 0,00 0,00 0,00 0,00 0,00 1.911,00 16.453,76 2.107,79 2.550,26 0,00 0,00 4.658,05 11.795,71 28/02/2023
236 604200 ANA PAULA VIANA E SILVA OFICIAL DO MP BELO HORIZONTE - COMARCA; BH-17PJ PATRIMONIO PUBLICO-SECRETARIA 6.694,66 669,47 0,00 0,00 0,00 0,00 0,00 1.911,00 9.275,13 959,93 891,80 0,00 0,00 1.851,73 7.423,40 28/02/2023
237 505400 ANA PAULA VIEIRA SOUTO OFICIAL DO MP ALMENARA - COMARCA; ALMENARA-PJ-01PJ 6.694,66 2.677,86 0,00 0,00 0,00 0,00 0,00 1.911,00 11.283,52 1.280,55 1.303,79 0,00 0,00 2.584,34 8.699,18 28/02/2023
238 280200 ANA RACHEL BRANDAO LADEIRA ROLAND ANALISTA DO MP BELO HORIZONTE - COMARCA; SUPERINTENDENCIA GESTÃO DE PESSOAS 20.574,59 6.172,38 7.494,88 0,00 0,00 0,00 502,21 7.389,70 42.133,76 4.060,46 7.430,52 0,00 0,00 11.490,98 30.642,78 28/02/2023
239 691000 ANA RACHEL DOS REIS E SENA COSTA ASSESSOR PROMOTOR JUSTICA BELO HORIZONTE - COMARCA; GABINETE DE PROCURADOR DE JUSTIÇA - SALA 601 0,00 0,00 7.857,77 0,00 2.619,26 0,00 172,87 3.796,86 14.446,76 877,22 2.137,16 0,00 0,00 3.014,38 11.432,38 28/02/2023
240 601200 ANA REGINA RIBEIRO ANALISTA DO MP BELO HORIZONTE - COMARCA; DIV FISCAL ADM CONT TERCEIRIZACAO 11.008,33 1.100,83 4.406,28 0,00 0,00 0,00 545,01 7.856,56 24.917,01 982,16 3.216,50 0,00 0,00 4.198,66 20.718,35 28/02/2023
241 384700 ANA RODRIGUES PEREIRA MARRA ANALISTA DO MP COROMANDEL - COMARCA; COROMANDEL-PJ-01PJ 11.008,33 2.201,67 0,00 0,00 0,00 0,00 532,80 8.372,62 22.115,42 1.894,55 2.138,11 0,00 0,00 4.032,66 18.082,76 28/02/2023
242 232700 ANA SILVIA SEMBLANO NAKAMURA OFICIAL DO MP BELO HORIZONTE - COMARCA; CENT DE APOIO TEC-SETOR DEF,IDOSO E INFANC 11.008,33 4.403,33 3.585,64 0,00 0,00 0,00 139,31 3.430,78 22.567,39 2.246,81 3.737,02 0,00 0,00 5.983,83 16.583,56 28/02/2023
243 602100 ANACLETO FRANCISCO MARCIER PIMENTA OFICIAL DO MP SÃO JOÃO DEL REI - COMARCA; SAO JOAO DEL REI-PJ-03PJ 6.694,66 669,47 0,00 0,00 0,00 0,00 0,00 2.796,30 10.160,43 959,93 631,11 0,00 0,00 1.591,04 8.569,39 28/02/2023
244 310400 ANADEJE DO CARMO DINIZ ARAUJO OFICIAL DO MP BELO HORIZONTE - COMARCA; DIRETORIA DE PESSOAL ADMINISTRATIVO - DPAD 11.008,33 3.302,50 0,00 0,00 0,00 0,00 524,73 7.635,33 22.470,89 2.070,68 2.496,68 0,00 0,00 4.567,36 17.903,53 28/02/2023
245 337000 ANAILDES MARIA MENDES OFICIAL DO MP JANAÚBA - COMARCA; JANAUBA-PJ-02PJ 11.008,33 3.302,50 0,00 0,00 0,00 0,00 0,00 2.796,30 17.107,13 2.070,68 2.496,68 0,00 0,00 4.567,36 12.539,77 28/02/2023
246 192900 ANATALIA CERQUEIRA LIMA PERES OFICIAL DO MP UBERABA - COMARCA; COORD REG SAUDE MACROR SANIT TRIANGULO SUL 13.776,02 5.510,41 0,00 0,00 0,00 0,00 495,02 7.311,20 27.092,65 2.866,78 3.646,04 0,00 0,00 6.512,82 20.579,83 28/02/2023
247 377400 ANDEIRSON DA MATTA BARBOSA ANALISTA DO MP POUSO ALEGRE - COMARCA; POUSO ALEGRE-PJ-01PJ 11.008,33 2.201,67 0,00 0,00 0,00 0,00 532,80 8.608,70 22.351,50 1.894,55 2.242,39 0,00 0,00 4.136,94 18.214,56 28/02/2023
248 317400 ANDERSON DA SILVA BICALHO OFICIAL DO MP CONTAGEM - COMARCA; CONTAGEM-PJ-SECRETARIA 10.661,25 3.198,38 0,00 0,00 0,00 0,00 0,00 1.911,00 15.770,63 1.998,49 2.236,04 0,00 0,00 4.234,53 11.536,10 28/02/2023
249 506900 ANDERSON DE SOUZA DAMIANI ANALISTA DO MP BELO HORIZONTE - COMARCA; DIRETORIA DE PAGAMENTO DE PESSOAL-DPAG 11.008,33 4.403,33 4.939,72 0,00 0,00 0,00 522,35 7.609,39 28.483,12 2.246,81 4.057,26 0,00 0,00 6.304,07 22.179,05 28/02/2023
250 410000 ANDERSON DE SOUZA NETO ASSESSOR ADMINISTRATIVO II BELO HORIZONTE - COMARCA; DIRETORIA DE ADMINISTRACAO FINANCEIRA 0,00 0,00 6.694,66 0,00 0,00 0,00 73,64 2.714,36 9.482,66 877,22 1.097,01 0,00 0,00 1.974,23 7.508,43 28/02/2023
251 181900 ANDERSON FLAVIO DE OLIVEIRA OFICIAL DO MP ITAGUARA - COMARCA; ITAGUARA-PJ-SECRETARIA 16.169,47 6.467,79 0,00 0,00 0,00 0,00 0,00 1.911,00 24.548,26 3.402,91 4.420,09 0,00 0,00 7.823,00 16.725,26 28/02/2023
252 333200 ANDERSON JOSE DE FREITAS OFICIAL DO MP IPATINGA - COMARCA; IPATINGA-PJ-04PJ 11.008,33 3.302,50 0,00 0,00 0,00 0,00 2.104,40 8.517,00 24.932,23 2.070,68 2.774,77 0,00 0,00 4.845,45 20.086,78 28/02/2023
253 699400 ANDERSON LUIZ CABRAL ASSESSOR PROMOTOR JUSTICA ALÉM PARAÍBA - COMARCA; ALEM PARAIBA-PJ-03PJ 0,00 0,00 7.857,77 0,00 0,00 0,00 0,00 1.911,00 9.768,77 877,22 1.416,87 0,00 0,00 2.294,09 7.474,68 28/02/2023
254 462100 ANDERSON LUIZ GUIMARAES CARDOSO ANALISTA DO MP BARBACENA - COMARCA; BARBACENA-PJ-02PJ 13.341,69 2.668,34 0,00 0,00 0,00 0,00 528,33 7.674,61 24.212,97 2.342,55 2.889,20 0,00 0,00 5.231,75 18.981,22 28/02/2023
255 429700 ANDERSON MELO DE SOUZA ASSESSOR ADMINISTRATIVO IV BELO HORIZONTE - COMARCA; DIRET DE ESTAGIOS E CONVENIOS ACADEMICOS 12.920,95 2.584,19 0,00 0,00 0,00 0,00 511,67 7.492,85 23.509,66 1.066,32 3.101,32 0,00 0,00 4.167,64 19.342,02 28/02/2023
256 545600 ANDERSON MENDES PROCOPIO FERREIRA ANALISTA DO MP BELO HORIZONTE - COMARCA; BH-12PJ JUIZO CRIMINAL-GAB 089PJ 11.008,33 1.100,83 0,00 0,00 0,00 0,00 532,80 7.723,40 20.365,36 1.718,41 1.988,10 0,00 0,00 3.706,51 16.658,85 28/02/2023
257 519900 ANDERSON MOREIRA DOEHLER ANALISTA DO MP TEÓFILO OTONI - COMARCA; COORD REG SAUDE MACRORREGIAO SANIT NORDESTE 11.008,33 4.403,33 0,00 0,00 0,00 0,00 0,00 1.911,00 17.322,66 2.246,81 2.750,97 0,00 0,00 4.997,78 12.324,88 28/02/2023
258 103000 ANDERSON TADEU DE DEUS ASSESSOR ADMINISTRATIVO II BELO HORIZONTE - COMARCA; BH-26 CRIME CONT CRIAN ADOL-SECRETARIA 0,00 5.355,73 6.694,66 0,00 0,00 0,00 0,00 10.730,07 22.780,46 877,22 2.569,84 0,00 0,00 3.447,06 19.333,40 28/02/2023
259 309200 ANDITYAS SOARES DE MOURA COSTA MATOS ANALISTA DO MP BELO HORIZONTE - COMARCA; GABINETE DE PROCURADOR DE JUSTIÇA - SALA 909 18.312,36 5.493,71 0,00 0,00 0,00 0,00 0,00 1.911,00 25.717,07 3.589,92 4.690,08 0,00 0,00 8.280,00 17.437,07 28/02/2023
260 519200 ANDRE BORJA LANA ANALISTA DO MP BELO HORIZONTE - COMARCA; DIR CONTEUDO JORNALISTICO 11.008,33 2.201,67 0,00 0,00 0,00 0,00 0,00 1.911,00 15.121,00 1.894,55 2.242,39 0,00 0,00 4.136,94 10.984,06 28/02/2023
261 637200 ANDRE FERNANDES DA CUNHA OFICIAL DO MP MORADA NOVA DE MINAS - COMARCA; MORADA NOVA DE MINAS-PJ-UNPJ 6.483,63 648,36 0,00 0,00 0,00 0,00 549,16 7.901,87 15.583,02 923,95 837,85 0,00 0,00 1.761,80 13.821,22 28/02/2023
262 651500 ANDRE GONCALVES MARANHAO OFICIAL DO MP ANDRADAS - COMARCA; ANDRADAS-PJ-02PJ 5.438,14 543,81 0,00 0,00 0,00 0,00 0,00 1.911,00 7.892,95 749,62 569,53 0,00 0,00 1.319,15 6.573,80 28/02/2023
263 521900 ANDRE LUIS GOMES SILVA ANALISTA DO MP FORMIGA - COMARCA; FORMIGA-PJ-02PJ 11.008,33 2.201,67 0,00 0,00 4.403,33 0,00 532,80 9.494,00 27.640,13 1.894,55 2.954,29 0,00 0,00 4.848,84 22.791,29 28/02/2023
264 304300 ANDRE LUIZ AVELAR ANALISTA DO MP BELO HORIZONTE - COMARCA; DIRETORIA DE REDES E BANCOS DE DADOS 9.223,00 2.766,90 0,00 0,00 0,00 0,00 0,00 1.911,00 13.900,90 1.699,33 1.908,41 0,00 0,00 3.607,74 10.293,16 28/02/2023
265 397400 ANDRE PATARO MYRRHA DE PAULA E SILVA ANALISTA DO MP BELO HORIZONTE - COMARCA; ASSESSORIA JURIDICO-ADMINISTRATIVA 16.695,70 3.339,14 0,00 0,00 0,00 0,00 514,23 8.406,06 28.955,13 2.986,52 3.818,93 0,00 0,00 6.805,45 22.149,68 28/02/2023
266 650100 ANDRE THOME VARGAS OFICIAL DO MP LEOPOLDINA - COMARCA; LEOPOLDINA-PJ-04PJ 5.889,39 588,94 0,00 0,00 0,00 0,00 47,51 2.429,27 8.955,11 822,63 685,96 0,00 0,00 1.508,59 7.446,52 28/02/2023
267 548500 ANDRE VINICIUS CARVALHO MEIRA ANALISTA DO MP JUIZ DE FORA - COMARCA; JUIZ DE FORA-PJ-24PJ 11.008,33 1.100,83 0,00 0,00 0,00 0,00 0,00 1.911,00 14.020,16 982,16 2.095,65 0,00 0,00 3.077,81 10.942,35 28/02/2023
268 297200 ANDRE WILLE ROSARIO ANALISTA DO MP BELO HORIZONTE - COMARCA; ASSESSORIA ESPECIAL DO PGJ 20.574,59 6.172,38 0,00 0,00 0,00 0,00 490,36 7.260,39 34.497,72 4.060,46 5.265,16 0,00 0,00 9.325,62 25.172,10 28/02/2023
269 423600 ANDREA COSTA GUALBERTO ALVES ANALISTA DO MP GOVERNADOR VALADARES - COMARCA; COORD REG PJ DEF EDU DIR CRIANCA ADOL RIODOCE 15.659,55 12.527,65 0,00 0,00 0,00 4.290,90 0,00 1.911,00 34.389,10 4.290,90 6.829,98 0,00 0,00 11.120,88 23.268,22 28/02/2023
270 467300 ANDREA DE CASSIA PENNA ALVERNAZ ANALISTA DO MP PONTE NOVA - COMARCA; PONTE NOVA-PJ-01PJ 11.008,33 2.201,67 0,00 0,00 0,00 0,00 193,75 4.024,60 17.428,35 1.894,55 2.190,25 0,00 0,00 4.084,80 13.343,55 28/02/2023
271 308000 ANDREA DE CASSIA SANTOS OLIVEIRA ANALISTA DO MP BELO HORIZONTE - COMARCA; COORD DE GABINETE DO PGJ 19.791,01 5.937,30 0,00 0,00 0,00 0,00 0,00 1.911,00 27.639,31 3.897,48 5.081,98 0,00 0,00 8.979,46 18.659,85 28/02/2023
272 349500 ANDREA DE OLIVEIRA LOIOLA REGIS OFICIAL DO MP IGUATAMA - COMARCA; IGUATAMA-PJ-UNPJ 11.008,33 3.302,50 0,00 0,00 0,00 0,00 0,00 1.911,00 16.221,83 2.070,68 2.392,41 0,00 0,00 4.463,09 11.758,74 28/02/2023
273 287900 ANDREA FERNANDES PENA MARTINS OFICIAL DO MP MONTES CLAROS - COMARCA; MONTES CLAROS-PJ-09PJ 11.008,33 3.302,50 0,00 0,00 0,00 0,00 524,73 7.635,33 22.470,89 2.070,68 2.392,41 0,00 0,00 4.463,09 18.007,80 28/02/2023
274 300800 ANDREA FERREIRA ANALISTA DO MP LAVRAS - COMARCA; LAVRAS-PJ-04PJ 19.037,29 5.711,19 0,00 0,00 0,00 0,00 544,47 7.850,64 33.143,59 3.740,71 4.907,78 0,00 0,00 8.648,49 24.495,10 28/02/2023
275 395100 ANDREA LANNA MENDES NOVAIS ANALISTA DO MP BELO HORIZONTE - COMARCA; PROMOT ESTADUAL DE DEF PATRI CULT E TUR DE MG 16.695,70 3.339,14 0,00 0,00 0,00 0,00 0,00 1.911,00 21.945,84 2.986,52 3.766,79 0,00 0,00 6.753,31 15.192,53 28/02/2023
276 67300 ANDREA LEAO MAGALHAES ROQUE ASSESSOR ADMINISTRATIVO IV BELO HORIZONTE - COMARCA; COORD ESTADUAL COMBATE CRIMES CIBERNETICOS 0,00 10.336,77 12.920,95 0,00 0,00 0,00 0,00 1.911,00 25.168,72 877,22 5.599,72 0,00 0,00 6.476,94 18.691,78 28/02/2023
277 335700 ANDREA LOPES PEREIRA ANALISTA DO MP GOVERNADOR VALADARES - COMARCA; COORD REG DO MA DA BACIA DO RIO DOCE 19.791,01 5.937,30 0,00 0,00 0,00 0,00 0,00 1.911,00 27.639,31 3.897,48 5.134,12 0,00 0,00 9.031,60 18.607,71 28/02/2023
278 419000 ANDREIA BARBOSA DE ALMEIDA ANALISTA DO MP BELO HORIZONTE - COMARCA; SUPER DE RECURSOS HUMANOS-COOP REMOTA 15.659,55 3.131,91 0,00 0,00 0,00 0,00 482,31 7.172,61 26.446,38 2.787,58 3.531,71 0,00 0,00 6.319,29 20.127,09 28/02/2023
279 281501 ANDREIA CARLA COSTA ANALISTA DO MP UBÁ - COMARCA; UBA-PJ-02PJ 16.169,47 3.233,89 0,00 0,00 0,00 0,00 498,02 7.343,94 27.245,32 2.885,49 3.673,05 0,00 0,00 6.558,54 20.686,78 28/02/2023
280 477100 ANDREIA DE ALMEIDA RIBEIRO MELO OFICIAL DO MP CONTAGEM - COMARCA; CONTAGEM-PJ-SECRETARIA 9.378,86 2.813,66 0,00 0,00 0,00 0,00 0,00 1.911,00 14.103,52 1.731,75 2.007,35 0,00 0,00 3.739,10 10.364,42 28/02/2023
281 619000 ANDREIA FERREIRA NORONHA COORDENADOR II BELO HORIZONTE - COMARCA; DIRETORIA DE SERVICO CRIMINAL 18.312,36 1.831,24 0,00 0,00 0,00 0,00 517,02 7.551,21 28.211,83 959,93 4.406,15 0,00 0,00 5.366,08 22.845,75 28/02/2023
282 424000 ANDREIA LUCIA COUTO ANALISTA DO MP BELO HORIZONTE - COMARCA; BH-18PJ DIREITOS HUMANOS-SECRETARIA 16.169,47 3.233,89 0,00 0,00 0,00 0,00 0,00 1.911,00 21.314,36 2.885,49 3.673,05 0,00 0,00 6.558,54 14.755,82 28/02/2023
283 370100 ANDREIA MARIA SILVA PINTO OFICIAL DO MP CORONEL FABRICIANO - COMARCA; CORONEL FABRICIANO-PJ-01PJ 11.008,33 3.302,50 0,00 0,00 0,00 0,00 0,00 2.796,30 17.107,13 982,16 2.655,71 0,00 0,00 3.637,87 13.469,26 28/02/2023
284 382100 ANDREIA NATALI PEREIRA DE OLIVEIRA OFICIAL DO MP PRADOS - COMARCA; PRADOS-PJ-UNPJ 11.008,33 2.201,67 0,00 0,00 0,00 0,00 0,00 1.911,00 15.121,00 1.894,55 2.242,39 0,00 0,00 4.136,94 10.984,06 28/02/2023
285 275200 ANDREIA RIBEIRO FREITAS OFICIAL DO MP VIÇOSA - COMARCA; VICOSA-PJ-04PJ 11.736,91 4.694,76 0,00 0,00 0,00 0,00 0,00 1.911,00 18.342,67 2.410,02 2.934,46 0,00 0,00 5.344,48 12.998,19 28/02/2023
286 352200 ANDREIA XAVIER PEREIRA OFICIAL DO MP CLÁUDIO - COMARCA; CLAUDIO-PJ-UNPJ 11.008,33 3.302,50 0,00 0,00 0,00 0,00 262,37 6.101,12 20.674,32 2.070,68 2.496,68 0,00 0,00 4.567,36 16.106,96 28/02/2023
287 638500 ANDRESA ALVES FEITOSA CASAGRANDE ANALISTA DO MP LAVRAS - COMARCA; COORD REG DO MA DA BACIA DO RIO GRANDE 9.999,62 999,96 0,00 0,00 0,00 0,00 0,00 1.911,00 12.910,58 982,16 1.885,43 0,00 0,00 2.867,59 10.042,99 28/02/2023
288 383700 ANDRESSA EDUARDO SOUZA ANALISTA DO MP OURO BRANCO - COMARCA; OURO BRANCO-PJ-SECRETARIA 16.695,70 3.339,14 0,00 0,00 0,00 0,00 0,00 2.796,30 22.831,14 2.986,52 3.818,93 0,00 0,00 6.805,45 16.025,69 28/02/2023
289 678400 ANDRESSA LUIZA SILVA LOPES ASSESSOR PROMOTOR JUSTICA CARMO DO PARANAÍBA - COMARCA; CARMO DO PARANAIBA-PJ-02PJ 0,00 0,00 7.857,77 0,00 0,00 0,00 0,00 1.911,00 9.768,77 877,22 1.416,87 0,00 0,00 2.294,09 7.474,68 28/02/2023
290 426200 ANDRESSA MENDES CASAL OFICIAL DO MP BELO HORIZONTE - COMARCA; DIR ESTRUTURA E PROCESSOS ORGANIZACIONAIS 8.650,50 1.730,10 0,00 0,00 0,00 0,00 0,00 2.796,30 13.176,90 1.441,84 1.536,66 0,00 0,00 2.978,50 10.198,40 28/02/2023
291 390100 ANDRESSA RIBEIRO PUCCI OFICIAL DO MP UBERABA - COMARCA; UBERABA-PJ-14PJ 8.377,76 1.675,55 0,00 0,00 3.351,10 0,00 368,62 5.932,32 19.705,35 1.389,48 2.434,75 0,00 0,00 3.824,23 15.881,12 28/02/2023
292 462500 ANDREZA APARECIDA COSTA E SILVA ANALISTA DO MP CONSELHEIRO LAFAIETE - COMARCA; CONSELHEIRO LAFAIETE-PJ-02PJ 11.008,33 2.201,67 0,00 0,00 0,00 0,00 0,00 3.681,60 16.891,60 982,16 2.375,68 0,00 0,00 3.357,84 13.533,76 28/02/2023
293 677700 ANDREZA DE LOURDES FERREIRA DE PAIVA ASSESSOR PROMOTOR JUSTICA ABRE CAMPO - COMARCA; ABRE CAMPO-PJ-01PJ 0,00 0,00 7.857,77 0,00 0,00 0,00 0,00 1.911,00 9.768,77 877,22 1.416,87 0,00 0,00 2.294,09 7.474,68 28/02/2023
294 537800 ANDREZZA LUZIA DE OLIVEIRA ALVES ANALISTA DO MP PATOS DE MINAS - COMARCA; COORD REG PJ DEF EDU DIR CRI ADO AL PAR NOROE 11.008,33 1.100,83 0,00 0,00 0,00 0,00 532,80 7.723,40 20.365,36 1.718,41 1.935,96 0,00 0,00 3.654,37 16.710,99 28/02/2023
295 491600 ANE PATRICIA RIBEIRO DUARTE ANALISTA DO MP SETE LAGOAS - COMARCA; SETE LAGOAS-PJ-11PJ 11.008,33 2.201,67 0,00 0,00 0,00 0,00 0,00 1.911,00 15.121,00 1.894,55 2.190,25 0,00 0,00 4.084,80 11.036,20 28/02/2023
296 465800 ANELISE GAMA ASSESSOR ADMINISTRATIVO III BELO HORIZONTE - COMARCA; BH-18PJ VIOLENCIA DOMESTICA-SECRETARIA 0,00 0,00 9.684,23 0,00 0,00 0,00 532,63 7.721,54 17.938,40 877,22 1.919,14 0,00 0,00 2.796,36 15.142,04 28/02/2023
297 535200 ANELIZE FERNANDA ALVES VILARINHO OFICIAL DO MP CAPINÓPOLIS - COMARCA; CAPINOPOLIS-PJ-UNPJ 6.694,66 669,47 0,00 0,00 0,00 0,00 135,01 4.269,13 11.768,27 959,93 891,80 0,00 0,00 1.851,73 9.916,54 28/02/2023
298 197200 ANGELA COELHO SALDANHA OFICIAL DO MP PARÁ DE MINAS - COMARCA; PARA DE MINAS-PJ-03PJ 19.037,29 7.614,92 0,00 0,00 0,00 0,00 0,00 1.911,00 28.563,21 4.045,30 5.347,54 0,00 0,00 9.392,84 19.170,37 28/02/2023
299 307400 ANGELA CRISTINA GONCALVES MUNIZ ANALISTA DO MP UBERLÂNDIA - COMARCA; UBERLANDIA-PJ-SEC FAMILIA 20.574,59 8.229,84 0,00 0,00 0,00 0,00 0,00 1.911,00 30.715,43 4.389,66 5.740,43 0,00 0,00 10.130,09 20.585,34 28/02/2023
300 191800 ANGELA MARIA DE OLIVEIRA OFICIAL DO MP GUARANÉSIA - COMARCA; GUARANESIA-PJ-SECRETARIA 19.037,29 15.229,83 0,00 0,00 0,00 5.263,69 0,00 1.911,00 41.441,81 5.263,69 8.554,10 0,00 0,00 13.817,79 27.624,02 28/02/2023
301 497400 ANGELA MARIA HENRIQUES ANALISTA DO MP BELO HORIZONTE - COMARCA; COORD REG BACIAS RIO VELHAS E PARAOPEBA 11.008,33 2.201,67 0,00 0,00 4.403,33 0,00 532,80 7.723,40 25.869,53 1.894,55 3.453,30 0,00 0,00 5.347,85 20.521,68 28/02/2023
302 260700 ANGELICA CRISTINA AZEVEDO MOREIRA MOUCO OFICIAL DO MP UBÁ - COMARCA; UBA-PJ-05PJ 15.659,55 4.697,87 0,00 0,00 0,00 0,00 522,51 7.611,08 28.491,01 3.038,14 3.893,44 0,00 0,00 6.931,58 21.559,43 28/02/2023
303 708300 ANGELICA NUNES VIEIRA DA SILVA ASSESSOR PROMOTOR JUSTICA IBIRITÉ - COMARCA; IBIRITE-PJ-02PJ 0,00 0,00 7.857,77 0,00 0,00 0,00 0,00 1.911,00 9.768,77 877,22 1.416,87 0,00 0,00 2.294,09 7.474,68 28/02/2023
304 334600 ANGELICA PANISSA DE FREITAS GALLATI OFICIAL DO MP GUAXUPÉ - COMARCA; GUAXUPE-PJ-02PJ 11.008,33 4.403,33 0,00 0,00 0,00 0,00 508,59 8.344,50 24.264,75 2.246,81 2.698,84 0,00 0,00 4.945,65 19.319,10 28/02/2023
305 521100 ANGELICA SALES MOREIRA OFICIAL DO MP BELO HORIZONTE - COMARCA; BH-02PJ FAMILIA-SECRETARIA 8.650,50 1.730,10 0,00 0,00 0,00 0,00 38,06 2.326,22 12.744,88 1.441,84 1.588,80 0,00 0,00 3.030,64 9.714,24 28/02/2023
306 466500 ANGELLO MARQUES AGRELLI ANALISTA DO MP MAR DE ESPANHA - COMARCA; MAR DE ESPANHA-PJ-UNPJ 11.008,33 2.201,67 0,00 0,00 0,00 0,00 0,00 1.911,00 15.121,00 1.894,55 2.242,39 0,00 0,00 4.136,94 10.984,06 28/02/2023
307 363300 ANGELO VERDOLIN HENRIQUES ANALISTA DO MP SETE LAGOAS - COMARCA; SETE LAGOAS-PJ-04PJ 19.037,29 7.614,92 0,00 0,00 0,00 0,00 488,62 7.241,44 34.382,27 4.045,30 5.347,54 0,00 0,00 9.392,84 24.989,43 28/02/2023
308 250900 ANISIO APARECIDO SANTOS OFICIAL DO MP BETIM - COMARCA; BETIM - SECRETARIA DAS PJS CRIMINAIS 6.694,66 2.677,86 0,00 0,00 0,00 0,00 34,37 2.285,90 11.692,79 1.280,55 743,77 0,00 0,00 2.024,32 9.668,47 28/02/2023
309 698100 ANNA CAROLINA POLICARIO BERTOLIN ASSESSOR PROCURADOR JUSTICA BELO HORIZONTE - COMARCA; PROC. JUSTICA DIR. DIFUSOS E COLETIVOS-SEC 0,00 0,00 7.857,77 0,00 0,00 0,00 0,00 1.911,00 9.768,77 877,22 1.416,87 0,00 0,00 2.294,09 7.474,68 28/02/2023
310 253400 ANNA FLAVIA LEHMAN ANALISTA DO MP BELO HORIZONTE - COMARCA; SUPRIN DE PLANEJAMENTO E COORDENACAO 20.574,59 8.229,84 7.494,88 0,00 0,00 0,00 0,00 1.911,00 38.210,31 4.389,66 7.519,18 837,09 0,00 12.745,93 25.464,38 28/02/2023
311 688800 ANNA LUIZA MATTOS DUARTE ASSESSOR PROCURADOR JUSTICA BELO HORIZONTE - COMARCA; GABINETE DE PROCURADOR DE JUSTICA - SALA 311 0,00 0,00 7.857,77 0,00 0,00 0,00 288,12 5.054,11 13.200,00 877,22 1.416,87 0,00 0,00 2.294,09 10.905,91 28/02/2023
312 447600 ANNGELUCE ALCANTARA DE CAMPOS OFICIAL DO MP DIVINÓPOLIS - COMARCA; DIVINOPOLIS-PJ-07PJ 9.223,00 2.766,90 0,00 0,00 0,00 0,00 527,56 7.666,15 20.183,61 1.699,33 1.960,55 0,00 0,00 3.659,88 16.523,73 28/02/2023
313 119600 ANSELMO BORGES PARREIRAS OFICIAL DO MP BONFIM - COMARCA; BONFIM-PJ-UNPJ 9.684,23 8.715,81 0,00 0,00 0,00 2.724,95 0,00 1.911,00 23.035,99 2.724,95 4.138,51 0,00 0,00 6.863,46 16.172,53 28/02/2023
314 630300 ANTONIA GOMES RAMALHO OFICIAL DO MP NOVO CRUZEIRO - COMARCA; NOVO CRUZEIRO-PJ-UNPJ 6.694,66 669,47 0,00 0,00 0,00 0,00 0,00 3.681,60 11.045,73 959,93 891,80 0,00 0,00 1.851,73 9.194,00 28/02/2023
315 401600 ANTONIO CARLOS GUEDES AROUCA ANALISTA DO MP BELO HORIZONTE - COMARCA; ASSESSORIA JURIDICO-ADMINISTRATIVA 14.687,60 2.937,52 0,00 0,00 0,00 0,00 0,00 1.911,00 19.536,12 2.600,97 3.262,28 0,00 0,00 5.863,25 13.672,87 28/02/2023
316 333900 ANTONIO GONCALVES DE SOUZA FILHO OFICIAL DO MP BELO HORIZONTE - COMARCA; DIRETORIA DE CONTABILIDADE 11.008,33 3.302,50 0,00 0,00 0,00 0,00 0,00 1.911,00 16.221,83 2.070,68 2.496,68 0,00 0,00 4.567,36 11.654,47 28/02/2023
317 176100 ANTONIO MARCELO CAMPOS CAMPANELLA OFICIAL DO MP BELO HORIZONTE - COMARCA; COORD DE GABINETE DO PGJ 19.037,29 9.518,65 0,00 0,00 0,00 0,00 523,53 7.622,19 36.701,66 4.349,90 5.787,30 0,00 0,00 10.137,20 26.564,46 28/02/2023
318 321001 ANTONIO OLINTO VIEIRA MACHADO ANALISTA DO MP BELO HORIZONTE - COMARCA; CENTRAL DE APOIO TECN-SETOR DE MEIO AMBIENTE 16.695,70 3.339,14 0,00 0,00 0,00 2.986,52 514,23 7.520,76 31.056,35 2.986,52 4.535,95 0,00 0,00 7.522,47 23.533,88 28/02/2023
319 356200 ANTONIO PAULA DA SILVA OFICIAL DO MP JUIZ DE FORA - COMARCA; JUIZ DE FORA-PJ-20PJ 10.661,25 4.264,50 0,00 0,00 0,00 0,00 547,28 7.881,30 23.354,33 2.169,07 2.638,73 0,00 0,00 4.807,80 18.546,53 28/02/2023
320 119900 ANTONIO RODRIGUES DE PINHO OFICIAL DO MP GUANHÃES - COMARCA; GUANHAES-PJ-01PJ 18.312,36 12.818,65 0,00 0,00 0,00 0,00 456,59 6.891,96 38.479,56 4.761,91 6.277,87 0,00 0,00 11.039,78 27.439,78 28/02/2023
321 373300 ANTONIO SERGIO ANANIAS OFICIAL DO MP SÃO JOÃO NEPOMUCENO - COMARCA; SAO JOAO NEPOMUCENO-PJ-01PJ 9.999,62 1.999,92 0,00 0,00 0,00 0,00 0,00 1.911,00 13.910,54 982,16 2.108,28 0,00 0,00 3.090,44 10.820,10 28/02/2023
322 608100 ANTONIO SIDINEY VIEIRA LEMOS ANALISTA DO MP PIRAPORA - COMARCA; PIRAPORA-PJ-01PJ 10.325,15 5.162,58 0,00 0,00 0,00 0,00 511,09 8.371,88 24.370,70 2.258,99 2.716,41 0,00 0,00 4.975,40 19.395,30 28/02/2023
323 374700 ANTONIO SILVA NETO OFICIAL DO MP BELO HORIZONTE - COMARCA; BH-12PJ JUIZO CRIMINAL-SECRETARIA 11.008,33 2.201,67 0,00 0,00 0,00 0,00 0,00 2.796,30 16.006,30 1.894,55 2.242,39 0,00 0,00 4.136,94 11.869,36 28/02/2023
324 636700 ANTONIUS VITORIANO FERNANDES OFICIAL DO MP BELO HORIZONTE - COMARCA; ASSESSORIA JURIDICA DO PROCON-MG 5.889,39 588,94 0,00 0,00 0,00 0,00 0,00 1.911,00 8.389,33 822,63 685,96 0,00 0,00 1.508,59 6.880,74 28/02/2023
325 413200 ANY PEREIRA SILVA ANALISTA DO MP TRÊS PONTAS - COMARCA; TRES PONTAS-PJ-01PJ 15.659,55 3.131,91 0,00 0,00 0,00 0,00 482,31 7.172,61 26.446,38 2.787,58 3.531,71 0,00 0,00 6.319,29 20.127,09 28/02/2023
326 151401 APARECIDA DE FATIMA MENDES DE ALMEIDA ASSESSOR ADMINISTRATIVO II JUIZ DE FORA - COMARCA; JUIZ DE FORA-PJ-SECRETARIA 0,00 0,00 6.694,66 0,00 0,00 0,00 73,64 2.714,36 9.482,66 877,22 1.097,01 0,00 0,00 1.974,23 7.508,43 28/02/2023
327 329300 APARECIDA MARIA MELO DE ASSIS OFICIAL DO MP BELO HORIZONTE - COMARCA; BH-18PJ DIREITOS HUMANOS-SECRETARIA 11.008,33 3.302,50 0,00 0,00 0,00 0,00 0,00 1.911,00 16.221,83 2.070,68 2.496,68 0,00 0,00 4.567,36 11.654,47 28/02/2023
328 653000 APARECIDA ROSA DE LIMA ASSESSOR ADMINISTRATIVO III BELO HORIZONTE - COMARCA; SECRETARIA PROCESSOS DISCIPES ADMINISTRATIVOS 0,00 0,00 9.684,23 0,00 0,00 0,00 355,09 5.784,69 15.824,01 877,22 1.919,14 0,00 0,00 2.796,36 13.027,65 28/02/2023
329 354500 APARECIDA VIEIRA DE CARVALHO OFICIAL DO MP BELO HORIZONTE - COMARCA; DIVISÃO DE EDUCAÇÃO PARA O CONSUMO 9.378,86 2.813,66 0,00 0,00 0,00 0,00 536,47 7.763,41 20.492,40 1.731,75 2.007,35 0,00 0,00 3.739,10 16.753,30 28/02/2023
330 551000 ARACELES BICALHO FELIX ANALISTA DO MP MANHUAÇU - COMARCA; MANHUACU-PJ-SECRETARIA 11.008,33 1.100,83 0,00 0,00 0,00 0,00 0,00 3.681,60 15.790,76 1.718,41 1.988,10 0,00 0,00 3.706,51 12.084,25 28/02/2023
331 286200 ARACELI MEDRADO DOS SANTOS LIMA OFICIAL DO MP PARACATU - COMARCA; PARACATU-PJ-03PJ 6.694,66 2.008,40 0,00 0,00 0,00 0,00 0,00 1.911,00 10.614,06 1.173,44 1.201,29 0,00 0,00 2.374,73 8.239,33 28/02/2023
332 112200 ARAQUEM AUGUSTO DE MATOS AGENTE DO MP BELO HORIZONTE - COMARCA; BH-23PJ CIVEL-SEC EXP CIVEIS 11.736,91 10.563,22 0,00 2.419,14 0,00 7.787,31 0,00 3.797,70 36.304,28 3.348,97 5.158,90 0,00 0,00 8.507,87 27.796,41 28/02/2023
333 280600 ARDUINO FRATTEZI ANALISTA DO MP BELO HORIZONTE - COMARCA; CENTRAL DE APOIO TECNICO-SETOR CONTABIL 20.574,59 6.172,38 0,00 0,00 0,00 0,00 490,36 7.260,39 34.497,72 4.060,46 5.369,43 0,00 0,00 9.429,89 25.067,83 28/02/2023
334 520201 ARIANE DE FATIMA CARVALHO ALMEIDA RODRIGUES ANALISTA DO MP VESPASIANO - COMARCA; VESPASIANO-PJ-SECRETARIA 10.325,15 1.032,52 0,00 0,00 0,00 0,00 0,00 3.238,95 14.596,62 1.598,18 1.658,09 0,00 0,00 3.256,27 11.340,35 28/02/2023
335 537600 ARIELA FREIRE MONTIJO ANALISTA DO MP ARCOS - COMARCA; ARCOS-PJ-01PJ 11.008,33 1.100,83 0,00 0,00 0,00 0,00 0,00 1.911,00 14.020,16 1.718,41 1.883,82 0,00 0,00 3.602,23 10.417,93 28/02/2023
336 182000 ARILSON ALEXANDRE MARTINS MAGALHAES OFICIAL DO MP JOÃO MONLEVADE - COMARCA; JOAO MONLEVADE-PJ-01PJ 18.312,36 9.156,18 0,00 0,00 0,00 0,00 503,59 10.503,26 38.475,39 4.175,91 5.275,43 0,00 0,00 9.451,34 29.024,05 28/02/2023
337 511000 ARISLANE CAROLINA DA SILVA ANALISTA DO MP MONTE CARMELO - COMARCA; MONTE CARMELO-PJ-02PJ 11.008,33 2.201,67 0,00 0,00 0,00 0,00 0,00 3.681,60 16.891,60 1.894,55 2.242,39 0,00 0,00 4.136,94 12.754,66 28/02/2023
338 170000 ARLEY BRITES DA SILVA ASSESSOR ADMINISTRATIVO II BELO HORIZONTE - COMARCA; BH-14PJ DEFESA CONSUMIDOR-SECRETARIA 0,00 2.677,86 6.694,66 0,00 0,00 0,00 309,29 5.285,11 14.966,92 877,22 1.197,14 0,00 0,00 2.074,36 12.892,56 28/02/2023
339 120400 ARLINDO CASSIO DA CRUZ OFICIAL DO MP SÃO GONÇALO DO SAPUCAÍ - COMARCA; SAO GONCALO DO SAPUCAI-PJ-01PJ 20.574,59 18.517,14 0,00 0,00 0,00 5.454,90 0,00 1.911,00 46.457,63 5.454,90 8.778,48 3.629,51 0,00 17.862,89 28.594,74 28/02/2023
340 243700 ARLINDO MARCIO LACERDA OFICIAL DO MP CONTAGEM - COMARCA; CONTAGEM-PJ-SECRETARIA 15.659,55 7.829,78 0,00 0,00 0,00 0,00 1.580,00 1.911,00 26.980,33 3.539,24 5.051,41 0,00 0,00 8.590,65 18.389,68 28/02/2023
341 392100 ARNALDO DE ANDRADE OFICIAL DO MP DIVINÓPOLIS - COMARCA; DIVINOPOLIS-PJ-02PJ 11.008,33 2.201,67 0,00 0,00 0,00 0,00 2.122,30 7.827,00 23.159,30 1.894,55 2.624,75 0,00 0,00 4.519,30 18.640,00 28/02/2023
342 642400 ARTANE INARDE DE SIQUEIRA DAMASCENO ANALISTA DO MP BELO HORIZONTE - COMARCA; SECRETARIA DE ASSUNTOS INTERNACIONAIS 8.932,15 893,22 0,00 0,00 0,00 0,00 0,00 1.911,00 11.736,37 982,16 1.514,72 0,00 0,00 2.496,88 9.239,49 28/02/2023
343 712100 ARTUR FONTE BOA TEOFILO ASSESSOR ADMINISTRATIVO I BELO HORIZONTE - COMARCA; DIRET DE ESTAGIOS E CONVENIOS ACADEMICOS 0,00 0,00 4.345,58 0,00 0,00 0,00 0,00 1.911,00 6.256,58 621,17 521,42 0,00 0,00 1.142,59 5.113,99 28/02/2023
344 302100 AUGUSTO ROUSSEAU DE CASTRO ANALISTA DO MP CATAGUASES - COMARCA; CATAGUASES-PJ-02PJ 20.574,59 6.172,38 0,00 0,00 0,00 0,00 490,36 7.260,39 34.497,72 4.060,46 5.369,43 0,00 0,00 9.429,89 25.067,83 28/02/2023
345 540200 AUREA AVELAR BITTENCOURT OFICIAL DO MP BELO HORIZONTE - COMARCA; GRUPO ESP PROM JUST DEF PROB ADM PAT PUB 6.694,66 669,47 0,00 0,00 0,00 0,00 270,02 4.856,65 12.490,80 959,93 839,66 0,00 0,00 1.799,59 10.691,21 28/02/2023
346 633501 AUREA GONTIJO BIRCHAL ASSESSOR DE GABINETE I BELO HORIZONTE - COMARCA; PROCURADOR-GERAL DE JUSTIÇA 0,00 0,00 16.169,47 0,00 0,00 0,00 0,00 1.911,00 18.080,47 877,22 3.702,58 0,00 0,00 4.579,80 13.500,67 28/02/2023
347 183200 AURELIANO MAGELA DE REZENDE OFICIAL DO MP BELO HORIZONTE - COMARCA; COORD DE GABINETE DO PGJ 18.312,36 7.324,94 5.493,71 0,00 0,00 0,00 456,59 6.891,96 38.479,56 3.882,92 6.623,86 0,00 0,00 10.506,78 27.972,78 28/02/2023
348 629400 AYESKA DA COSTA VAL MOURA DABIEN OFICIAL DO MP BELO HORIZONTE - COMARCA; BH-09PJ AUDITORIA MILITAR-SECRETARIA 6.081,20 608,12 0,00 0,00 0,00 0,00 0,00 1.911,00 8.600,32 855,73 734,88 0,00 0,00 1.590,61 7.009,71 28/02/2023
349 707400 AYMEE JOHANSSENN TYNEE CORREIA ALVES ASSESSOR PROMOTOR JUSTICA NOVA LIMA - COMARCA; NOVA LIMA-PJ-01PJ 0,00 0,00 7.857,77 0,00 2.619,26 0,00 172,87 3.796,86 14.446,76 877,22 2.137,16 0,00 0,00 3.014,38 11.432,38 28/02/2023
350 701600 BARBARA CHAVES OLIVEIRA ASSESSOR PROCURADOR JUSTICA BELO HORIZONTE - COMARCA; PROC. JUSTICA DIR. DIFUSOS E COLETIVOS-SEC 0,00 0,00 7.857,77 0,00 0,00 0,00 0,00 1.911,00 9.768,77 877,22 1.416,87 0,00 0,00 2.294,09 7.474,68 28/02/2023
351 691900 BARBARA COUTINHO REIS ASSESSOR PROCURADOR JUSTICA BELO HORIZONTE - COMARCA; GABINETE DE PROCURADOR DE JUSTIÇA - SALA 910 0,00 0,00 7.857,77 0,00 0,00 0,00 0,00 1.911,00 9.768,77 877,22 1.416,87 0,00 0,00 2.294,09 7.474,68 28/02/2023
352 692200 BARBARA CRISTINA MENDES BANDEIRA DE MELO DUTRA ASSESSOR PROCURADOR JUSTICA BELO HORIZONTE - COMARCA; GABINETE DE PROCURADOR DE JUSTIÇA - SALA 1009 0,00 0,00 7.857,77 0,00 2.619,26 0,00 172,87 3.796,86 14.446,76 877,22 2.137,16 0,00 0,00 3.014,38 11.432,38 28/02/2023
353 723400 BARBARA CRISTINA TAVARES CARNEIRO ASSESSOR PROCURADOR JUSTICA BELO HORIZONTE - COMARCA; GABINETE DE PROCURADOR DE JUSTIÇA - SALA 502 0,00 0,00 7.857,77 0,00 0,00 0,00 0,00 1.911,00 9.768,77 877,22 1.416,87 0,00 0,00 2.294,09 7.474,68 28/02/2023
354 727200 BARBARA FERNANDES AMARAL ASSESSOR PROMOTOR JUSTICA GOVERNADOR VALADARES - COMARCA; GOVERNADOR VALADARES-PJ-SECRETARIA 0,00 0,00 7.857,77 0,00 0,00 0,00 0,00 1.911,00 9.768,77 877,22 1.416,87 0,00 0,00 2.294,09 7.474,68 28/02/2023
355 652800 BARBARA JULIANNE MOREIRA CASTRO ASSESSOR PROCURADOR JUSTICA BELO HORIZONTE - COMARCA; ASSESS TECNICO-JUR JUNTO AS PROC. DE JUST 0,00 0,00 7.857,77 0,00 0,00 0,00 374,55 5.997,04 14.229,36 877,22 1.416,87 0,00 0,00 2.294,09 11.935,27 28/02/2023
356 707700 BARBARA LOUISE PUFF DE OLIVEIRA ASSESSOR PROMOTOR JUSTICA RIBEIRÃO DAS NEVES - COMARCA; RIBEIRAO DAS NEVES-PJ-02PJ 0,00 0,00 7.857,77 0,00 0,00 0,00 172,87 3.796,86 11.827,50 877,22 1.416,87 0,00 0,00 2.294,09 9.533,41 28/02/2023
357 663600 BARBARA REGINA PEREIRA DE PINHO MAGALHAES ASSESSOR PROMOTOR JUSTICA BELO HORIZONTE - COMARCA; CAO-DH CONT EXT ATIV POLIC E AP COMUNIT 0,00 0,00 7.857,77 0,00 0,00 0,00 0,00 1.911,00 9.768,77 877,22 1.416,87 0,00 0,00 2.294,09 7.474,68 28/02/2023
358 692400 BARBARA SOUZA OLIVEIRA ASSESSOR PROMOTOR JUSTICA DIVINO - COMARCA; DIVINO-PJ-UNPJ 0,00 0,00 7.857,77 0,00 0,00 0,00 0,00 1.911,00 9.768,77 877,22 1.416,87 0,00 0,00 2.294,09 7.474,68 28/02/2023
359 546500 BARBARA ZACARONI GOULART OFICIAL DO MP BETIM - COMARCA; BETIM-PJ-08PJ 6.694,66 669,47 0,00 0,00 2.454,71 0,00 135,01 3.383,83 13.337,68 959,93 1.566,84 0,00 0,00 2.526,77 10.810,91 28/02/2023
360 316500 BEATRIZ ABILVIA DA SILVA ANALISTA DO MP GOVERNADOR VALADARES - COMARCA; GOVERNADOR VALADARES-PJ-07PJ 19.791,01 5.937,30 0,00 0,00 0,00 3.897,48 471,69 7.056,66 37.154,14 3.897,48 6.205,93 0,00 0,00 10.103,41 27.050,73 28/02/2023
361 311800 BEATRIZ APARECIDA SOARES GANEM OFICIAL DO MP ITAMBACURI - COMARCA; ITAMBACURI-PJ-02PJ 12.118,97 4.847,59 0,00 0,00 0,00 0,00 497,69 7.340,30 24.804,55 2.495,60 2.953,74 0,00 0,00 5.449,34 19.355,21 28/02/2023
362 266800 BEATRIZ AUGUSTA VILACA GOMES DE HUBER OFICIAL DO MP BELO HORIZONTE - COMARCA; BH-05PJ-JUÍZO SUCESSÕES-SEC 11.008,33 3.302,50 0,00 0,00 0,00 0,00 0,00 1.911,00 16.221,83 2.070,68 2.496,68 0,00 0,00 4.567,36 11.654,47 28/02/2023
363 235200 BEATRIZ BOTELHO BATISTA OFICIAL DO MP MATEUS LEME - COMARCA; MATEUS LEME-PJ-02PJ 11.008,33 4.403,33 0,00 0,00 0,00 0,00 0,00 1.911,00 17.322,66 2.246,81 2.750,97 0,00 0,00 4.997,78 12.324,88 28/02/2023
364 182300 BEATRIZ PAULA SOUSA RAMOS OFICIAL DO MP MARIANA - COMARCA; MARIANA-PJ-01PJ 18.312,36 9.156,18 0,00 0,00 0,00 0,00 0,00 1.911,00 29.379,54 4.175,91 5.536,11 0,00 0,00 9.712,02 19.667,52 28/02/2023
365 507000 BELCHIOR FRANKLIN AMARAL LEITE ANALISTA DO MP BELO HORIZONTE - COMARCA; CAO ORGAOS MPMG DESIG FUNC ELEITORAIS-SEC 12.118,97 2.423,79 0,00 0,00 0,00 0,00 533,23 7.728,10 22.804,09 2.107,79 2.393,85 0,00 0,00 4.501,64 18.302,45 28/02/2023
366 345100 BENITO ELIAS RODRIGUES ANALISTA DO MP BARBACENA - COMARCA; BARBACENA - SECRETARIA DAS PJS CRIMINAIS 19.037,29 5.711,19 0,00 0,00 0,00 0,00 544,47 7.850,64 33.143,59 3.740,71 4.855,64 0,00 0,00 8.596,35 24.547,24 28/02/2023
367 207300 BENITO VIEIRA DOS SANTOS ANALISTA DO MP BELO HORIZONTE - COMARCA; PROC JUST ESP ACOES COMP ORIG CRIMINAL-ASSESS 20.574,59 10.287,30 0,00 0,00 0,00 4.718,85 452,64 6.848,90 42.882,28 4.718,85 6.229,22 0,00 0,00 10.948,07 31.934,21 28/02/2023
368 480200 BERNADETE NUNES DOS SANTOS ANALISTA DO MP GUANHÃES - COMARCA; GUANHAES-PJ-02PJ 11.008,33 4.403,33 0,00 0,00 0,00 0,00 508,59 7.459,20 23.379,45 2.246,81 2.750,97 0,00 0,00 4.997,78 18.381,67 28/02/2023
369 378400 BETANIA FARNESI DE SOUZA E SILVA OFICIAL DO MP CURVELO - COMARCA; CURVELO-PJ-01PJ 11.008,33 4.403,33 0,00 0,00 0,00 0,00 0,00 1.911,00 17.322,66 2.246,81 2.698,84 0,00 0,00 4.945,65 12.377,01 28/02/2023
370 387400 BETANIA MENDONCA DE ASSIS CARVALHO ANALISTA DO MP JUIZ DE FORA - COMARCA; JUIZ DE FORA-PJ-03PJ 16.695,70 3.339,14 0,00 0,00 0,00 0,00 0,00 2.796,30 22.831,14 2.986,52 3.766,79 0,00 0,00 6.753,31 16.077,83 28/02/2023
371 714400 BIANCA DE CASTRO RAMOS ASSESSOR PROMOTOR JUSTICA BETIM - COMARCA; BETIM-PJ-13PJ 0,00 0,00 7.857,77 0,00 0,00 0,00 0,00 1.911,00 9.768,77 877,22 1.416,87 0,00 0,00 2.294,09 7.474,68 28/02/2023
372 712700 BIANCA DE JESUS SOUZA ASSESSOR ADMINISTRATIVO I GOVERNADOR VALADARES - COMARCA; COOR REG APOIO COM INC MOB VALE DO RIO DOCE 0,00 0,00 4.345,58 0,00 0,00 0,00 0,00 1.911,00 6.256,58 621,17 521,42 0,00 0,00 1.142,59 5.113,99 28/02/2023
373 450300 BIANCA OLIVEIRA DE ALBUQUERQUE ANALISTA DO MP BELO HORIZONTE - COMARCA; BH-10PJ EXECUÇÃO PENAL-SECRETARIA 11.008,33 2.201,67 0,00 0,00 0,00 0,00 0,00 2.796,30 16.006,30 1.894,55 2.242,39 0,00 0,00 4.136,94 11.869,36 28/02/2023
374 535400 BIANCA SALOTO ROSSI ANALISTA DO MP SANTOS DUMONT - COMARCA; SANTOS DUMONT-PJ-01PJ 11.008,33 1.100,83 0,00 0,00 0,00 0,00 0,00 2.796,30 14.905,46 1.718,41 1.988,10 0,00 0,00 3.706,51 11.198,95 28/02/2023
375 120800 BRAS MARQUES DE SOUZA ANALISTA DO MP BELO HORIZONTE - COMARCA; SUPERINTENDENCIA DE GESTAO ADMINISTRATIVA 25.971,96 23.374,77 0,00 0,00 0,00 5.454,90 520,11 7.584,96 62.906,70 5.454,90 8.778,48 13.884,51 0,00 28.117,89 34.788,81 28/02/2023
376 724400 BRENDA PIMENTEL DE SOUZA VIANA ASSESSOR PROMOTOR JUSTICA MANHUMIRIM - COMARCA; MANHUMIRIM-PJ-01PJ 0,00 0,00 7.857,77 0,00 0,00 0,00 0,00 1.911,00 9.768,77 877,22 1.416,87 0,00 0,00 2.294,09 7.474,68 28/02/2023
377 710500 BRENNO VINICIUS MAGESTE ROSA ASSESSOR PROMOTOR JUSTICA MANHUAÇU - COMARCA; MANHUACU-PJ-02PJ 0,00 0,00 7.857,77 0,00 0,00 0,00 0,00 1.911,00 9.768,77 877,22 1.416,87 0,00 0,00 2.294,09 7.474,68 28/02/2023
378 460900 BRENO CRISTIANO DE SOUZA REZENDE ANALISTA DO MP ITAÚNA - COMARCA; ITAUNA-PJ-02PJ 11.008,33 2.201,67 0,00 0,00 0,00 0,00 532,80 7.723,40 21.466,20 1.894,55 2.242,39 0,00 0,00 4.136,94 17.329,26 28/02/2023
379 239000 BRENO VENANCIO ROMANINI OFICIAL DO MP BELO HORIZONTE - COMARCA; BH-20PJ ORD ECON TRIBUTARIA-SECRETARIA 11.008,33 4.403,33 0,00 0,00 0,00 0,00 0,00 1.911,00 17.322,66 2.246,81 2.750,97 0,00 0,00 4.997,78 12.324,88 28/02/2023
380 722700 BRUNA DE SA FERREIRA LIMA ASSESSOR PROMOTOR JUSTICA MANGA - COMARCA; MANGA-PJ-01PJ 0,00 0,00 7.857,77 0,00 2.619,26 0,00 0,00 1.911,00 12.388,03 877,22 2.137,16 0,00 0,00 3.014,38 9.373,65 28/02/2023
381 722100 BRUNA HENRIQUE DE SOUZA ASSESSOR PROMOTOR JUSTICA PIRAPETINGA - COMARCA; PIRAPETINGA-PJ-UNPJ 0,00 0,00 7.857,77 0,00 2.619,26 0,00 0,00 1.911,00 12.388,03 877,22 2.137,16 0,00 0,00 3.014,38 9.373,65 28/02/2023
382 642300 BRUNA IZABELITA DE FATIMA OLIVEIRA COSTA OFICIAL DO MP BELO HORIZONTE - COMARCA; BH-02PJ FAMILIA-SECRETARIA 6.483,63 648,36 0,00 0,00 0,00 0,00 392,26 6.190,19 13.714,44 923,95 837,85 0,00 0,00 1.761,80 11.952,64 28/02/2023
383 513600 BRUNA KARLA MARTINS CARVALHO ANALISTA DO MP GOVERNADOR VALADARES - COMARCA; GOVERNADOR VALADARES-PJ-14PJ 11.008,33 2.201,67 0,00 0,00 0,00 0,00 532,80 7.723,40 21.466,20 982,16 2.375,68 0,00 0,00 3.357,84 18.108,36 28/02/2023
384 415100 BRUNA MARIA SOARES OLIVEIRA COSTA RAMOS ANALISTA DO MP UBÁ - COMARCA; COORD REG BACIA DO RIO PARAIBA DO SUL 16.169,47 3.233,89 0,00 0,00 0,00 0,00 0,00 1.911,00 21.314,36 982,16 3.951,12 0,00 0,00 4.933,28 16.381,08 28/02/2023
385 692900 BRUNA MENDES COELHO ASSESSOR PROCURADOR JUSTICA BELO HORIZONTE - COMARCA; GABINETE DE PROCURADOR DE JUSTIÇA - SALA 801 0,00 0,00 7.857,77 0,00 0,00 0,00 0,00 1.911,00 9.768,77 877,22 1.416,87 0,00 0,00 2.294,09 7.474,68 28/02/2023
386 470000 BRUNA MORAES ANALISTA DO MP TOMBOS - COMARCA; TOMBOS-PJ-UNPJ 14.224,47 2.844,89 0,00 0,00 0,00 0,00 438,11 6.690,42 24.197,89 2.512,05 2.977,49 0,00 0,00 5.489,54 18.708,35 28/02/2023
387 614700 BRUNA NATTANY DE LIMA OFICIAL DO MP MANTENA - COMARCA; MANTENA-PJ-01PJ 6.694,66 669,47 0,00 0,00 0,00 0,00 135,01 4.269,13 11.768,27 959,93 891,80 0,00 0,00 1.851,73 9.916,54 28/02/2023
388 729800 BRUNA PAULA AMARAL CEOLIN ASSESSOR PROMOTOR JUSTICA COMARCA - JUATUBA; JUATUBA-PJ-UNPJ 0,00 0,00 7.857,77 0,00 0,00 0,00 0,00 1.911,00 9.768,77 877,22 1.416,87 0,00 0,00 2.294,09 7.474,68 28/02/2023
389 631800 BRUNA RAPOSO JORGE OFICIAL DO MP JUIZ DE FORA - COMARCA; JUIZ DE FORA-PJ-06PJ 6.694,66 669,47 0,00 0,00 0,00 0,00 0,00 1.911,00 9.275,13 959,93 891,80 0,00 0,00 1.851,73 7.423,40 28/02/2023
390 707800 BRUNA ROMIE WERDINE ASSESSOR PROMOTOR JUSTICA IBIRITÉ - COMARCA; IBIRITE-PJ-06PJ 0,00 0,00 7.857,77 0,00 2.619,26 0,00 172,87 3.796,86 14.446,76 877,22 2.137,16 0,00 0,00 3.014,38 11.432,38 28/02/2023
391 697400 BRUNA SILVA SANTOS ASSESSOR PROMOTOR JUSTICA TIMÓTEO - COMARCA; TIMOTEO-PJ-04PJ 0,00 0,00 7.857,77 0,00 0,00 0,00 345,74 5.682,73 13.886,24 877,22 1.416,87 0,00 0,00 2.294,09 11.592,15 28/02/2023
392 699300 BRUNA URSINE TIMO ASSESSOR PROCURADOR JUSTICA BELO HORIZONTE - COMARCA; PROC JUST ESP ACOES COMP ORIG CRIMINAL-ASSESS 0,00 0,00 7.857,77 0,00 0,00 0,00 0,00 1.911,00 9.768,77 877,22 1.416,87 0,00 0,00 2.294,09 7.474,68 28/02/2023
393 463800 BRUNO ALVES TEIXEIRA ANALISTA DO MP UBERLÂNDIA - COMARCA; UBERLANDIA-PJ-04PJ 11.008,33 2.201,67 0,00 0,00 0,00 0,00 532,80 7.723,40 21.466,20 1.894,55 2.242,39 0,00 0,00 4.136,94 17.329,26 28/02/2023
394 538500 BRUNO AUGUSTO DA SILVA OFICIAL DO MP SANTA LUZIA - COMARCA; SANTA LUZIA-PJ-03PJ 6.694,66 669,47 0,00 0,00 0,00 0,00 0,00 1.911,00 9.275,13 959,93 891,80 0,00 0,00 1.851,73 7.423,40 28/02/2023
395 318200 BRUNO BARROS DE SOUZA OFICIAL DO MP BELO HORIZONTE - COMARCA; DIRETORIA GESTAO CONTRATOS CONVENIOS 11.008,33 3.302,50 0,00 0,00 0,00 0,00 524,73 7.635,33 22.470,89 982,16 2.249,42 0,00 0,00 3.231,58 19.239,31 28/02/2023
396 427400 BRUNO CESAR RIBEIRO DE PAIVA ANALISTA DO MP BELO HORIZONTE - COMARCA; DIRETORIA DO COLEGIO E DA CAMARA DE PJ 16.169,47 3.233,89 0,00 0,00 0,00 0,00 498,02 7.343,94 27.245,32 2.885,49 3.673,05 0,00 0,00 6.558,54 20.686,78 28/02/2023
397 380900 BRUNO CIRILO ANTUNES OFICIAL DO MP VARGINHA - COMARCA; VARGINHA-PJ-05PJ 10.661,25 2.132,25 0,00 0,00 0,00 0,00 516,00 7.540,14 20.849,64 1.827,91 2.146,18 0,00 0,00 3.974,09 16.875,55 28/02/2023
398 329000 BRUNO DE MELO REIS ANALISTA DO MP PATROCÍNIO - COMARCA; PATROCINIO-PJ-02PJ 19.791,01 7.916,40 0,00 0,00 0,00 0,00 507,97 9.223,08 37.438,46 4.214,13 5.487,02 0,00 0,00 9.701,15 27.737,31 28/02/2023
399 697800 BRUNO GAZZOLA BEZERRA FALCAO ASSESSOR PROCURADOR JUSTICA BELO HORIZONTE - COMARCA; PROCURADOR-GERAL ADJUNTO JURIDICO- GABINETE 0,00 0,00 7.857,77 0,00 0,00 0,00 0,00 1.911,00 9.768,77 877,22 1.416,87 0,00 0,00 2.294,09 7.474,68 28/02/2023
400 378300 BRUNO HERDY LOPES DE OLIVEIRA ANALISTA DO MP GOVERNADOR VALADARES - COMARCA; GOVERNADOR VALADARES-PJ-03PJ 16.695,70 3.339,14 0,00 0,00 0,00 0,00 514,23 7.520,76 28.069,83 2.986,52 3.818,93 0,00 0,00 6.805,45 21.264,38 28/02/2023
401 529700 BRUNO JOSE BUENO DIAS OFICIAL DO MP SÃO SEBASTIÃO DO PARAÍSO - COMARCA; SAO SEBASTIAO DO PARAISO-PJ-02PJ 6.694,66 669,47 0,00 0,00 0,00 0,00 135,01 3.383,83 10.882,97 959,93 839,66 0,00 0,00 1.799,59 9.083,38 28/02/2023
402 691600 BRUNO JOSE RIBEIRO ASSESSOR PROMOTOR JUSTICA CLÁUDIO - COMARCA; CLAUDIO-PJ-UNPJ 0,00 0,00 7.857,77 0,00 0,00 0,00 172,87 3.796,86 11.827,50 877,22 1.416,87 0,00 0,00 2.294,09 9.533,41 28/02/2023
403 350100 BRUNO LAUD SERRANO DOS REIS OFICIAL DO MP UBÁ - COMARCA; UBA-PJ-02PJ 11.008,33 4.403,33 0,00 0,00 0,00 0,00 508,59 7.459,20 23.379,45 2.246,81 2.698,84 0,00 0,00 4.945,65 18.433,80 28/02/2023
404 728900 BRUNO LIMA PITANGA ASSESSOR PROMOTOR JUSTICA BELO HORIZONTE - COMARCA; NUCLEO DA EXECUCAO PENAL 0,00 0,00 7.857,77 0,00 0,00 0,00 0,00 1.911,00 9.768,77 877,22 1.416,87 0,00 0,00 2.294,09 7.474,68 28/02/2023
405 373800 BRUNO MARTINO DE ALBUQUERQUE ANALISTA DO MP PONTE NOVA - COMARCA; PONTE NOVA-PJ-03PJ 16.695,70 5.008,71 0,00 0,00 556,52 0,00 2.189,92 7.587,54 32.038,39 3.520,79 4.639,04 0,00 0,00 8.159,83 23.878,56 28/02/2023
406 470400 BRUNO NOVAIS CABRAL ANALISTA DO MP MUTUM - COMARCA; MUTUM-PJ-UNPJ 11.008,33 2.201,67 0,00 0,00 4.403,33 0,00 532,80 7.723,40 25.869,53 1.894,55 3.095,25 0,00 0,00 4.989,80 20.879,73 28/02/2023
407 648600 BRUNO RIBEIRO E MELO ASSESSOR ADMINISTRATIVO IV BELO HORIZONTE - COMARCA; DIR RELACOES INSTITUCIONAIS 0,00 0,00 12.920,95 0,00 4.306,98 0,00 521,15 7.596,22 25.345,30 877,22 3.993,66 0,00 0,00 4.870,88 20.474,42 28/02/2023
408 369200 BRUNO ROBERTO DIAS DE OLIVEIRA OFICIAL DO MP BELO HORIZONTE - COMARCA; BH-22PJ PES COM DEF E IDOSOS-SECRETARIA 11.008,33 3.302,50 0,00 0,00 0,00 0,00 524,73 7.635,33 22.470,89 982,16 2.655,71 0,00 0,00 3.637,87 18.833,02 28/02/2023
409 547700 BRUNO ROBERTO SOUZA GONCALVES ANALISTA DO MP PARACATU - COMARCA; PARACATU-PJ-03PJ 11.008,33 1.100,83 0,00 0,00 0,00 0,00 0,00 2.796,30 14.905,46 1.718,41 1.988,10 0,00 0,00 3.706,51 11.198,95 28/02/2023
410 546100 BRUNO SA VIEIRA ANALISTA DO MP BARBACENA - COMARCA; BARBACENA-PJ-SECRETARIA 11.008,33 1.100,83 0,00 0,00 0,00 0,00 133,20 4.249,40 16.491,76 1.718,41 1.883,82 0,00 0,00 3.602,23 12.889,53 28/02/2023
411 438200 BRUNO SALES PEREIRA ANALISTA DO MP BELO HORIZONTE - COMARCA; CENTRAL DE APOIO TECNICO-SETOR CONTABIL 14.224,47 2.844,89 0,00 0,00 5.689,79 0,00 500,70 7.373,20 30.633,05 2.512,05 4.646,46 0,00 0,00 7.158,51 23.474,54 28/02/2023
412 537400 BRUNO SANT'ANA CESAR ANALISTA DO MP BELO HORIZONTE - COMARCA; BH-12PJ JUIZO CRIMINAL-GAB 105PJ 11.008,33 1.100,83 0,00 0,00 0,00 0,00 532,80 7.723,40 20.365,36 1.718,41 1.988,10 0,00 0,00 3.706,51 16.658,85 28/02/2023
413 727700 BYANKA DA SILVA MORAIS ASSESSOR PROCURADOR JUSTICA BELO HORIZONTE - COMARCA; GABINETE DE PROCURADOR DE JUSTIÇA - SALA 805 0,00 0,00 7.857,77 0,00 0,00 0,00 0,00 1.911,00 9.768,77 877,22 1.416,87 0,00 0,00 2.294,09 7.474,68 28/02/2023
414 405800 CAIO FERNANDO RODRIGUES DE OLIVEIRA ANALISTA DO MP BELO HORIZONTE - COMARCA; ASSESSORIA JURIDICO-ADMINISTRATIVA 16.169,47 3.233,89 0,00 0,00 0,00 0,00 498,02 7.343,94 27.245,32 982,16 4.081,97 0,00 0,00 5.064,13 22.181,19 28/02/2023
415 530000 CAIO GUEDES DE OLIVEIRA ANALISTA DO MP DIAMANTINA - COMARCA; DIAMANTINA-PJ-02PJ 11.008,33 1.100,83 0,00 0,00 0,00 0,00 444,00 6.754,66 19.307,82 1.718,41 1.935,96 0,00 0,00 3.654,37 15.653,45 28/02/2023
416 491400 CAIO MIRANDA JUNQUEIRA ANALISTA DO MP BUENO BRANDAO - COMARCA; BUENO BRANDAO-PJ-UNPJ 11.008,33 2.201,67 0,00 0,00 0,00 0,00 0,00 1.911,00 15.121,00 1.894,55 2.138,11 0,00 0,00 4.032,66 11.088,34 28/02/2023
417 415800 CAMILA ALVES DA SILVA ANALISTA DO MP CAETÉ - COMARCA; CAETE-PJ-01PJ 16.169,47 3.233,89 0,00 0,00 0,00 0,00 498,02 7.343,94 27.245,32 2.885,49 3.673,05 0,00 0,00 6.558,54 20.686,78 28/02/2023
418 555800 CAMILA CAROLINE ROCHA CHAVES OFICIAL DO MP SALINAS - COMARCA; SALINAS-PJ-01PJ 6.694,66 669,47 0,00 0,00 0,00 0,00 0,00 1.911,00 9.275,13 959,93 891,80 0,00 0,00 1.851,73 7.423,40 28/02/2023
419 445200 CAMILA CONDE ROCHA ANALISTA DO MP CONTAGEM - COMARCA; CONTAGEM-PJ-21PJ 12.118,97 2.423,79 0,00 0,00 0,00 0,00 533,23 7.728,10 22.804,09 2.107,79 2.550,26 0,00 0,00 4.658,05 18.146,04 28/02/2023
420 419900 CAMILA CUNNINGHAM PIMENTA DE PADUA ANALISTA DO MP BELO HORIZONTE - COMARCA; ASSESSORIA PSICOSSOCIAL 16.169,47 3.233,89 0,00 0,00 0,00 0,00 0,00 1.911,00 21.314,36 2.885,49 3.673,05 0,00 0,00 6.558,54 14.755,82 28/02/2023
421 714200 CAMILA DE SOUSA CUNHA ASSESSOR PROMOTOR JUSTICA PRADOS - COMARCA; PRADOS-PJ-UNPJ 0,00 0,00 7.857,77 0,00 0,00 0,00 0,00 1.911,00 9.768,77 877,22 1.416,87 0,00 0,00 2.294,09 7.474,68 28/02/2023
422 507700 CAMILA ELIZABETH RODRIGUES ANALISTA DO MP BELO HORIZONTE - COMARCA; BH-02PJ FAMILIA-SECRETARIA 13.341,69 2.668,34 0,00 0,00 0,00 0,00 352,22 5.753,41 22.115,66 2.342,55 2.889,20 0,00 0,00 5.231,75 16.883,91 28/02/2023
423 372700 CAMILA FONSECA LIMONGE ANALISTA DO MP BETIM - COMARCA; BETIM-PJ-01PJ 16.695,70 3.339,14 0,00 0,00 0,00 0,00 514,23 7.520,76 28.069,83 2.986,52 3.818,93 0,00 0,00 6.805,45 21.264,38 28/02/2023
424 621300 CAMILA GOLFETO DE SOUSA VALENTE OFICIAL DO MP CARANGOLA - COMARCA; CARANGOLA-PJ-SECRETARIA 6.694,66 669,47 0,00 0,00 0,00 0,00 135,01 4.711,78 12.210,92 959,93 787,52 0,00 0,00 1.747,45 10.463,47 28/02/2023
425 409800 CAMILA GONCALVES COSTA RIBEIRO ANALISTA DO MP INHAPIM - COMARCA; INHAPIM-PJ-02PJ 11.008,33 2.201,67 0,00 0,00 0,00 0,00 532,80 8.608,70 22.351,50 1.894,55 2.138,11 0,00 0,00 4.032,66 18.318,84 28/02/2023
426 335000 CAMILA GONTIJO DE PAIVA ANALISTA DO MP BELO HORIZONTE - COMARCA; COORD DE CONTROLE CONSTITUCIONALIDADE 20.574,59 6.172,38 0,00 0,00 0,00 0,00 0,00 1.911,00 28.657,97 4.060,46 5.317,29 0,00 0,00 9.377,75 19.280,22 28/02/2023
427 693400 CAMILA HECKSHER MONTEIRO ASSESSOR PROCURADOR JUSTICA BELO HORIZONTE - COMARCA; GABINETE DE PROCURADOR DE JUSTIÇA - SALA 613 0,00 0,00 7.857,77 0,00 0,00 0,00 0,00 1.911,00 9.768,77 877,22 1.416,87 0,00 0,00 2.294,09 7.474,68 28/02/2023
428 696000 CAMILA IMACULADA OLIVEIRA ASSESSOR PROCURADOR JUSTICA BELO HORIZONTE - COMARCA; GABINETE DE PROCURADOR DE JUSTIÇA - SALA 816 0,00 0,00 7.857,77 0,00 0,00 0,00 0,00 1.911,00 9.768,77 877,22 1.416,87 0,00 0,00 2.294,09 7.474,68 28/02/2023
429 547800 CAMILA MATTARELLI DE ABREU E SILVA ANALISTA DO MP BELO HORIZONTE - COMARCA; CAO-VIOLENCIA DOMESTICA E FAMILIAR 11.008,33 1.100,83 0,00 0,00 0,00 0,00 133,20 3.364,10 15.606,46 1.718,41 1.988,10 0,00 0,00 3.706,51 11.899,95 28/02/2023
430 430000 CANDIDA MARINA COSTA ANALISTA DO MP BELO HORIZONTE - COMARCA; DIRET DE INFORMACAO E CONHECIMENTO-DINC/CEAF 16.169,47 3.233,89 0,00 0,00 0,00 0,00 0,00 1.911,00 21.314,36 2.885,49 3.673,05 0,00 0,00 6.558,54 14.755,82 28/02/2023
431 614300 CARINA CORTIELHA OFICIAL DO MP BELO HORIZONTE - COMARCA; BH-23PJ CIVEL-FISC AC POL PUB I 6.081,20 608,12 0,00 0,00 0,00 0,00 0,00 1.911,00 8.600,32 855,73 734,88 0,00 0,00 1.590,61 7.009,71 28/02/2023
432 380400 CARINA DIAS FACANHA DE SOUZA ANALISTA DO MP SANTA RITA DO SAPUCAÍ - COMARCA; SANTA RITA DO SAPUCAI-PJ-01PJ 16.695,70 3.339,14 0,00 0,00 0,00 0,00 514,23 8.406,06 28.955,13 2.986,52 3.818,93 0,00 0,00 6.805,45 22.149,68 28/02/2023
433 255000 CARLA ADRIANA DE MENEZES OFICIAL DO MP BELO HORIZONTE - COMARCA; CENT DE APOIO TEC-SETOR DEF,IDOSO E INFANC 11.008,33 4.403,33 0,00 0,00 0,00 0,00 508,59 7.459,20 23.379,45 2.246,81 2.750,97 0,00 0,00 4.997,78 18.381,67 28/02/2023
434 425100 CARLA ADRIANA DINIZ AMARAL OFICIAL DO MP CONTAGEM - COMARCA; CONTAGEM-PJ-SECRETARIA 9.999,62 1.999,92 2.602,68 0,00 0,00 0,00 267,71 4.831,44 19.701,37 1.700,87 2.678,51 0,00 0,00 4.379,38 15.321,99 28/02/2023
435 508100 CARLA ALESSANDRA FONSECA ANALISTA DO MP BELO HORIZONTE - COMARCA; CAO-ORDEM ECONOMICA E TRIBUTARIA-SECRETARIA 11.008,33 2.201,67 0,00 0,00 0,00 0,00 532,80 7.723,40 21.466,20 1.894,55 2.242,39 0,00 0,00 4.136,94 17.329,26 28/02/2023
436 607100 CARLA ANGELICA DIAS MIRANDA OFICIAL DO MP SANTA LUZIA - COMARCA; SANTA LUZIA-PJ-SECRETARIA 6.694,66 669,47 0,00 0,00 2.454,71 0,00 135,01 3.383,83 13.337,68 959,93 1.410,43 0,00 0,00 2.370,36 10.967,32 28/02/2023
437 351500 CARLA APARECIDA MENDES RAMIRIO OFICIAL DO MP PASSOS - COMARCA; PASSOS-PJ-01PJ 11.008,33 3.302,50 0,00 0,00 0,00 0,00 524,73 7.635,33 22.470,89 2.070,68 2.444,54 0,00 0,00 4.515,22 17.955,67 28/02/2023
438 713100 CARLA DOS SANTOS SOUZA ASSESSOR PROMOTOR JUSTICA ESPERA FELIZ - COMARCA; ESPERA FELIZ-PJ-UNPJ 0,00 0,00 7.857,77 0,00 0,00 0,00 0,00 1.911,00 9.768,77 877,22 1.416,87 0,00 0,00 2.294,09 7.474,68 28/02/2023
439 442800 CARLA GONCALVES COSTA SOALHEIRO ANALISTA DO MP GOVERNADOR VALADARES - COMARCA; GOVERNADOR VALADARES-PJ-11PJ 11.224,96 2.347,38 0,00 0,00 0,00 0,00 516,42 8.430,02 22.518,78 2.034,43 2.251,43 0,00 0,00 4.285,86 18.232,92 28/02/2023
440 321500 CARLA GONCALVES MASSOTE OFICIAL DO MP CAMPO BELO - COMARCA; CAMPO BELO-PJ-02PJ 11.008,33 3.302,50 0,00 0,00 4.770,28 0,00 524,73 7.635,33 27.241,17 2.070,68 3.808,51 0,00 0,00 5.879,19 21.361,98 28/02/2023
441 429200 CARLA HAUTEQUESTT BECHARA ANALISTA DO MP BELO HORIZONTE - COMARCA; DIRET DE INFORMACAO E CONHECIMENTO-DINC/CEAF 16.169,47 3.233,89 0,00 0,00 0,00 0,00 0,00 1.911,00 21.314,36 2.885,49 3.673,05 0,00 0,00 6.558,54 14.755,82 28/02/2023
442 247500 CARLA MATILDE GUIMARAES DE OLIVEIRA OFICIAL DO MP ITAJUBA - COMARCA; ITAJUBA-PJ-SECRETARIA 11.008,33 4.403,33 0,00 0,00 0,00 0,00 0,00 1.911,00 17.322,66 2.246,81 2.698,84 0,00 0,00 4.945,65 12.377,01 28/02/2023
443 226100 CARLA MERLI DA CONCEICAO ANALISTA DO MP BELO HORIZONTE - COMARCA; CENTRAL DE APOIO TECNICO-SETOR CONTABIL 20.574,59 8.229,84 0,00 0,00 0,00 0,00 528,08 7.671,89 37.004,40 4.389,66 5.792,56 0,00 0,00 10.182,22 26.822,18 28/02/2023
444 181401 CARLO MICHEL GAUDENSI COELHO ANALISTA DO MP BELO HORIZONTE - COMARCA; BH-08PJ JUIZADO ESPECIAL-SECRETARIA 15.659,55 6.263,82 0,00 0,00 7.307,79 0,00 482,31 7.172,61 36.886,08 3.288,69 6.264,82 0,00 0,00 9.553,51 27.332,57 28/02/2023
445 634000 CARLOS ALBERTO AMORMINO TRIGUEIRO ANALISTA DO MP BELO HORIZONTE - COMARCA; DIRET DE APOIO AS PROCURADORIAS DE JUSTICA 9.999,62 999,96 0,00 0,00 0,00 0,00 0,00 2.796,30 13.795,88 982,16 1.761,27 0,00 0,00 2.743,43 11.052,45 28/02/2023
446 637900 CARLOS ALBERTO DE MOURA OFICIAL DO MP SETE LAGOAS - COMARCA; SETE LAGOAS-PJ-07PJ 6.483,63 648,36 0,00 0,00 0,00 0,00 0,00 1.911,00 9.042,99 923,95 785,71 0,00 0,00 1.709,66 7.333,33 28/02/2023
447 638700 CARLOS ALBERTO FERREIRA BRAGA ANALISTA DO MP VESPASIANO - COMARCA; VESPASIANO-PJ-06PJ 9.999,62 999,96 0,00 0,00 3.666,53 0,00 443,65 6.750,82 21.860,58 982,16 2.789,45 0,00 0,00 3.771,61 18.088,97 28/02/2023
448 375801 CARLOS ALBERTO ROCHA ANALISTA DO MP VARGINHA - COMARCA; GAECO REGIONAL DE VARGINHA 11.008,33 1.100,83 0,00 0,00 0,00 0,00 0,00 2.796,30 14.905,46 1.718,41 1.935,96 0,00 0,00 3.654,37 11.251,09 28/02/2023
449 462800 CARLOS ANDREI SOARES FAGUNDES ANALISTA DO MP MONTES CLAROS - COMARCA; MONTES CLAROS-PJ-09PJ 11.008,33 2.201,67 0,00 0,00 0,00 0,00 532,80 7.723,40 21.466,20 1.894,55 2.190,25 0,00 0,00 4.084,80 17.381,40 28/02/2023
450 370300 CARLOS AUGUSTO BUENO DIAS ASSESSOR ADMINISTRATIVO IV BELO HORIZONTE - COMARCA; SUPERINTENDÊNCIA DE ENGENHARIA E ARQUITETURA 0,00 0,00 12.920,95 0,00 0,00 0,00 189,51 3.978,35 17.088,81 877,22 2.017,15 0,00 0,00 2.894,37 14.194,44 28/02/2023
451 505100 CARLOS CEZAR CARVALHO ANALISTA DO MP CONTAGEM - COMARCA; CONTAGEM-PJ-02PJ 11.008,33 5.504,17 0,00 0,00 0,00 0,00 544,91 7.855,50 24.912,91 2.422,95 2.900,99 0,00 0,00 5.323,94 19.588,97 28/02/2023
452 196800 CARLOS EDUARDO DE OLIVEIRA MARINHO OFICIAL DO MP ALPINÓPOLIS - COMARCA; ALPINOPOLIS-PJ-UNPJ 19.037,29 13.326,11 0,00 0,00 0,00 0,00 474,66 7.089,14 39.927,20 4.959,09 6.614,69 0,00 0,00 11.573,78 28.353,42 28/02/2023
453 650800 CARLOS EDUARDO NIZA DA SILVA OFICIAL DO MP IGARAPÉ - COMARCA; IGARAPE-PJ-01PJ 5.889,39 588,94 0,00 0,00 2.159,44 0,00 546,34 8.756,36 17.940,47 822,63 1.175,53 0,00 0,00 1.998,16 15.942,31 28/02/2023
454 491800 CARLOS EDUARDO ROMAN OFICIAL DO MP BARBACENA - COMARCA; BARBACENA-PJ-09PJ 9.378,86 2.813,66 0,00 0,00 0,00 0,00 0,00 1.911,00 14.103,52 1.731,75 2.007,35 0,00 0,00 3.739,10 10.364,42 28/02/2023
455 299300 CARLOS HENRIQUE BICALHO ANALISTA DO MP BELO HORIZONTE - COMARCA; BH-17PJ PATRIMONIO PUBLICO-SECRETARIA 20.574,59 10.287,30 0,00 0,00 0,00 0,00 452,64 7.734,20 39.048,73 4.718,85 6.319,98 0,00 0,00 11.038,83 28.009,90 28/02/2023
456 205100 CARLOS HENRIQUE ESTEVES OFICIAL DO MP ITAMBACURI - COMARCA; ITAMBACURI-PJ-01PJ 19.037,29 7.614,92 0,00 0,00 0,00 0,00 0,00 1.911,00 28.563,21 4.045,30 5.295,40 0,00 0,00 9.340,70 19.222,51 28/02/2023
457 351600 CARLOS HENRIQUE FELICIO DA FONSECA OFICIAL DO MP JUIZ DE FORA - COMARCA; JUIZ DE FORA-PJ-21PJ 11.008,33 4.403,33 0,00 0,00 0,00 0,00 508,59 7.459,20 23.379,45 2.246,81 2.698,84 0,00 0,00 4.945,65 18.433,80 28/02/2023
458 729100 CARLOS HENRIQUE TEIXEIRA BRAGA ASSESSOR ADMINISTRATIVO II BELO HORIZONTE - COMARCA; DIRETORIA DE SUPORTE E MANUTENCAO 0,00 0,00 6.694,66 0,00 0,00 0,00 0,00 1.911,00 8.605,66 877,22 1.097,01 0,00 0,00 1.974,23 6.631,43 28/02/2023
459 85400 CARLOS JOSE VIEIRA OFICIAL DO MP BELO HORIZONTE - COMARCA; DIRETORIA DO COLEGIO E DA CAMARA DE PJ 25.971,96 20.777,57 0,00 0,00 0,00 5.454,90 520,11 7.584,95 60.309,49 5.454,90 8.882,75 11.287,31 0,00 25.624,96 34.684,53 28/02/2023
460 229100 CARLOS MERCES DE OLIVEIRA ANALISTA DO MP BELO HORIZONTE - COMARCA; CENTRAL DE APOIO TECN-SETOR DE MEIO AMBIENTE 20.574,59 8.229,84 0,00 0,00 0,00 0,00 0,00 1.911,00 30.715,43 4.389,66 4.598,65 0,00 0,00 8.988,31 21.727,12 28/02/2023
461 538300 CARLOS RANGEL SILVA DE MELO ANALISTA DO MP BELO HORIZONTE - COMARCA; DIVISAO DE CONTROLE IMOBILIARIO 11.008,33 4.403,33 0,00 0,00 0,00 0,00 0,00 3.681,60 19.093,26 2.246,81 2.750,97 0,00 0,00 4.997,78 14.095,48 28/02/2023
462 265100 CARLOS REIFF MIRANDA ANALISTA DO MP BELO HORIZONTE - COMARCA; BH-19PJ SAUDE-SECRETARIA 150PJ 20.574,59 6.172,38 0,00 0,00 0,00 0,00 0,00 1.911,00 28.657,97 4.060,46 5.369,43 0,00 0,00 9.429,89 19.228,08 28/02/2023
463 305400 CARLOS ROCHA DE SOUZA OFICIAL DO MP MONTALVÂNIA - COMARCA; MONTALVANIA-PJ-SECRETARIA 6.694,66 2.008,40 0,00 0,00 0,00 0,00 255,29 5.372,68 14.331,03 1.173,44 992,74 0,00 0,00 2.166,18 12.164,85 28/02/2023
464 399900 CARMELITA EVANGELISTA DE SOUZA OFICIAL DO MP JOÃO PINHEIRO - COMARCA; JOAO PINHEIRO-PJ-01PJ 9.684,23 1.936,85 0,00 0,00 0,00 0,00 511,33 7.489,12 19.621,53 1.640,32 1.875,35 0,00 0,00 3.515,67 16.105,86 28/02/2023
465 202000 CARMEN LUCIA MARIZ DE MACEDO OFICIAL DO MP BELO HORIZONTE - COMARCA; DIRETORIA GESTAO COMPRAS LICITACOES 18.312,36 12.818,66 4.846,91 0,00 0,00 0,00 0,00 1.911,00 37.888,93 4.761,91 7.468,95 515,71 0,00 12.746,57 25.142,36 28/02/2023
466 701900 CAROLINA CARVALHO COSTA ASSESSOR PROCURADOR JUSTICA BELO HORIZONTE - COMARCA; GABINETE DE PROCURADOR DE JUSTIÇA - SALA 811 0,00 0,00 7.857,77 0,00 0,00 0,00 0,00 1.911,00 9.768,77 877,22 1.416,87 0,00 0,00 2.294,09 7.474,68 28/02/2023
467 228500 CAROLINA CHIARELLA DOS SANTOS RIBEIRO COORDENADOR I BELO HORIZONTE - COMARCA; DIVISAO TRANSPORTES 14.687,60 5.875,04 0,00 0,00 0,00 0,00 226,19 4.378,52 25.167,35 2.246,81 4.063,22 0,00 0,00 6.310,03 18.857,32 28/02/2023
468 446500 CAROLINA COSTA VAL RODRIGUES ANALISTA DO MP BELO HORIZONTE - COMARCA; DIVISAO DE MATERIAIS 15.659,55 4.697,87 4.406,28 0,00 0,00 0,00 544,80 7.854,29 33.162,79 3.038,14 5.105,17 0,00 0,00 8.143,31 25.019,48 28/02/2023
469 603501 CAROLINA DOMINGOS BRANDAO RABELLO ANALISTA DO MP BARROSO - COMARCA; BARROSO-PJ-01PJ 11.008,33 1.100,83 0,00 0,00 0,00 0,00 0,00 3.711,11 15.820,27 1.718,41 1.988,10 0,00 0,00 3.706,51 12.113,76 28/02/2023
470 404300 CAROLINA DOS SANTOS VIEIRA ANALISTA DO MP BELO HORIZONTE - COMARCA; BH-08PJ JUIZADO ESPECIAL-SECRETARIA 16.695,70 3.339,14 0,00 0,00 0,00 0,00 514,23 7.520,76 28.069,83 2.986,52 3.714,65 0,00 0,00 6.701,17 21.368,66 28/02/2023
471 551200 CAROLINA LOPES ARANTES MASCARENHAS ANALISTA DO MP BELO HORIZONTE - COMARCA; CAO-VIOLENCIA DOMESTICA E FAMILIAR 11.008,33 1.100,83 0,00 0,00 0,00 0,00 532,80 8.520,17 21.162,13 1.718,41 1.883,82 0,00 0,00 3.602,23 17.559,90 28/02/2023
472 622600 CAROLINA LOREDO LOPES CATIZANI OFICIAL DO MP RIBEIRÃO DAS NEVES - COMARCA; RIBEIRAO DAS NEVES-PJ-12PJ 6.081,20 608,12 0,00 0,00 0,00 0,00 73,58 2.713,72 9.476,62 855,73 734,88 0,00 0,00 1.590,61 7.886,01 28/02/2023
473 382200 CAROLINA MENDES CHAVES LIN ANALISTA DO MP BELO HORIZONTE - COMARCA; BH-12PJ JUIZO CRIMINAL-GAB 088PJ 11.008,33 2.201,67 0,00 0,00 0,00 0,00 0,00 2.796,30 16.006,30 1.894,55 2.190,25 0,00 0,00 4.084,80 11.921,50 28/02/2023
474 461900 CAROLINA MURTA TEIXEIRA DIAS ANALISTA DO MP BELO HORIZONTE - COMARCA; CENTRO AUTOCOMPOSICAO DE CONFLITOS 11.008,33 2.201,67 0,00 0,00 0,00 0,00 0,00 1.911,00 15.121,00 1.894,55 2.242,39 0,00 0,00 4.136,94 10.984,06 28/02/2023
475 509600 CAROLINA PINTO DE OLIVEIRA SOUZA ANALISTA DO MP MURIAÉ - COMARCA; MURIAE-PJ-01PJ 11.008,33 2.201,67 0,00 0,00 0,00 0,00 532,80 8.608,70 22.351,50 1.894,55 2.138,11 0,00 0,00 4.032,66 18.318,84 28/02/2023
476 629100 CAROLINA RODRIGUES AMARAL ANALISTA DO MP BELO HORIZONTE - COMARCA; PROC. JUSTICA DIR. DIFUSOS E COLETIVOS-SEC 10.325,15 1.032,52 0,00 0,00 0,00 0,00 416,45 6.454,07 18.228,19 1.598,18 1.814,50 0,00 0,00 3.412,68 14.815,51 28/02/2023
477 502600 CAROLINA RODRIGUES RUBEN ANALISTA DO MP BELO HORIZONTE - COMARCA; BH-18PJ VIOLENCIA DOMESTICA-GAB 007PJ 11.008,33 2.201,67 0,00 0,00 0,00 0,00 532,80 9.494,00 23.236,80 1.894,55 2.138,11 0,00 0,00 4.032,66 19.204,14 28/02/2023
478 529600 CAROLINA VAZ DE MELO MAMBRINI ANALISTA DO MP BELO HORIZONTE - COMARCA; BH-14PJ DEFESA CONSUMIDOR-GAB 005PJ 11.008,33 1.100,83 0,00 0,00 0,00 0,00 0,00 1.911,00 14.020,16 1.718,41 1.988,10 0,00 0,00 3.706,51 10.313,65 28/02/2023
479 619100 CAROLINA ZAKHIA NARDELLI RODRIGUES ANALISTA DO MP NEPOMUCENO - COMARCA; NEPOMUCENO-PJ-UNPJ 10.325,15 1.032,52 0,00 0,00 0,00 0,00 83,29 3.704,91 15.145,87 1.598,18 1.762,36 0,00 0,00 3.360,54 11.785,33 28/02/2023
480 517600 CAROLINE ALVES DE OLIVEIRA MULLER ANALISTA DO MP VISCONDE DO RIO BRANCO - COMARCA; VISCONDE DO RIO BRANCO-PJ-01PJ 11.008,33 2.201,67 0,00 0,00 0,00 0,00 0,00 1.911,00 15.121,00 1.894,55 2.190,25 0,00 0,00 4.084,80 11.036,20 28/02/2023
481 373200 CAROLINE ANTUNES RIBEIRO OFICIAL DO MP JACUI - COMARCA; JACUI-PJ-UNPJ 11.008,33 2.201,67 0,00 0,00 0,00 0,00 532,80 7.723,40 21.466,20 1.894,55 2.190,25 0,00 0,00 4.084,80 17.381,40 28/02/2023
482 723500 CAROLINE CORDEIRO FERNANDES MACHADO ASSESSOR PROMOTOR JUSTICA BELO HORIZONTE - COMARCA; COORD DE INCLUSAO E MOBILIZACAO SOCIAIS 0,00 0,00 7.857,77 0,00 0,00 0,00 0,00 1.911,00 9.768,77 877,22 1.416,87 0,00 0,00 2.294,09 7.474,68 28/02/2023
483 556800 CAROLINE DE SOUZA CARDOSO DOMINGUES OFICIAL DO MP BRASÍLIA DE MINAS - COMARCA; BRASILIA DE MINAS-PJ-02PJ 6.694,66 669,47 0,00 0,00 0,00 0,00 0,00 1.911,00 9.275,13 959,93 891,80 0,00 0,00 1.851,73 7.423,40 28/02/2023
484 499400 CAROLINE MARQUES DE LOURDES MARZULLO OFICIAL DO MP JUIZ DE FORA - COMARCA; JUIZ DE FORA-PJ-08PJ 9.378,86 1.875,77 0,00 0,00 0,00 0,00 0,00 3.238,95 14.493,58 982,16 1.878,28 0,00 0,00 2.860,44 11.633,14 28/02/2023
485 616800 CAROLINE MONTEIRO DE BARROS ANALISTA DO MP CONTAGEM - COMARCA; CONTAGEM-PJ-11PJ 10.325,15 1.032,52 0,00 0,00 0,00 0,00 83,29 4.059,03 15.499,99 982,16 1.904,50 0,00 0,00 2.886,66 12.613,33 28/02/2023
486 618100 CAROLINE VASCONCELOS COSTA LANZA ANALISTA DO MP PARAOPEBA - COMARCA; PARAOPEBA-PJ-UNPJ 10.325,15 1.032,52 0,00 0,00 3.785,89 0,00 499,74 9.133,28 24.776,58 1.598,18 2.855,62 0,00 0,00 4.453,80 20.322,78 28/02/2023
487 699000 CAROLLINA RODRIGUES SOUTO AMARAL ASSESSOR PROCURADOR JUSTICA BELO HORIZONTE - COMARCA; GABINETE DE PROCURADOR DE JUSTIÇA - SALA 405 0,00 0,00 7.857,77 0,00 0,00 0,00 0,00 1.911,00 9.768,77 877,22 1.416,87 0,00 0,00 2.294,09 7.474,68 28/02/2023
488 604000 CASSIA APARECIDA DA SILVA OFICIAL DO MP PARACATU - COMARCA; PARACATU-PJ-01PJ 6.694,66 669,47 0,00 0,00 0,00 0,00 0,00 1.911,00 9.275,13 959,93 891,80 0,00 0,00 1.851,73 7.423,40 28/02/2023
489 268800 CASSIA BEATRIZ TEIXEIRA OFICIAL DO MP BELO HORIZONTE - COMARCA; PROC. JUSTICA DE HABEAS CORPUS 15.659,55 4.697,87 3.876,29 0,00 0,00 0,00 533,14 7.727,09 32.493,94 3.038,14 4.959,42 0,00 0,00 7.997,56 24.496,38 28/02/2023
490 500000 CASSIA DE OLIVEIRA COSTA VIANA ANALISTA DO MP SETE LAGOAS - COMARCA; SETE LAGOAS-PJ-09PJ 11.008,33 7.705,83 0,00 0,00 0,00 0,00 0,00 1.911,00 20.625,16 2.775,21 3.513,85 0,00 0,00 6.289,06 14.336,10 28/02/2023
491 368800 CASSIA LUISA BATISTA MENDONCA WEBER COORDENADOR II BELO HORIZONTE - COMARCA; DIVISÃO DE EDUCAÇÃO PARA O CONSUMO 18.312,36 5.493,71 0,00 0,00 0,00 0,00 523,73 7.624,46 31.954,26 1.699,33 5.209,99 0,00 0,00 6.909,32 25.044,94 28/02/2023
492 622200 CASSIA VAZ DE AZEVEDO LISBOA MARZANO ASSESSOR ADMINISTRATIVO III BELO HORIZONTE - COMARCA; CGMP-SECRETARIA DA CORREGEDORIA-GERAL DO MP 0,00 0,00 9.684,23 0,00 0,00 0,00 0,00 1.911,00 11.595,23 877,22 1.762,73 0,00 0,00 2.639,95 8.955,28 28/02/2023
493 121000 CASSIO HENRIQUE AFONSO DA SILVA OFICIAL DO MP BELO HORIZONTE - COMARCA; CGMP-ASSESSORIA JURIDICA 20.574,59 16.459,68 0,00 0,00 0,00 0,00 520,11 7.584,95 45.139,33 5.454,90 7.278,38 1.572,05 0,00 14.305,33 30.834,00 28/02/2023
494 512001 CATARINA NATALINO CALIXTO COORDENADOR II BELO HORIZONTE - COMARCA; DIRETORIA GESTAO TRANSPORTES 18.312,36 1.831,24 0,00 0,00 0,00 0,00 0,00 2.796,30 22.939,90 1.598,18 4.230,63 0,00 0,00 5.828,81 17.111,09 28/02/2023
495 606200 CATARINE DE SIQUEIRA DE QUADROS ANALISTA DO MP CONTAGEM - COMARCA; CONTAGEM-PJ-08PJ 11.008,33 1.100,83 0,00 0,00 0,00 0,00 532,80 8.608,70 21.250,66 1.718,41 1.883,82 0,00 0,00 3.602,23 17.648,43 28/02/2023
496 622300 CECILIA APARECIDA PEREIRA ASSUNCAO OFICIAL DO MP TRÊS PONTAS - COMARCA; TRES PONTAS-PJ-SECRETARIA 7.137,75 713,78 0,00 0,00 0,00 0,00 0,00 2.796,30 10.647,83 1.037,19 952,45 0,00 0,00 1.989,64 8.658,19 28/02/2023
497 538000 CECILIA FONTES DE MATOS PIMENTEL ANALISTA DO MP PALMA - COMARCA; PALMA-PJ-UNPJ 11.008,33 1.100,83 0,00 0,00 0,00 0,00 0,00 2.796,30 14.905,46 1.718,41 1.988,10 0,00 0,00 3.706,51 11.198,95 28/02/2023
498 261300 CECILIO ANTONIO CAMPOS DOS REIS ANALISTA DO MP BELO HORIZONTE - COMARCA; AUDITORIA INTERNA 20.574,59 8.229,84 0,00 0,00 0,00 0,00 0,00 1.911,00 30.715,43 4.389,66 5.844,70 0,00 0,00 10.234,36 20.481,07 28/02/2023
499 386400 CEFAS AMORELI DE FIGUEIREDO OFICIAL DO MP CABO VERDE - COMARCA; CABO VERDE-PJ-SECRETARIA 6.694,66 1.338,93 0,00 0,00 0,00 0,00 0,00 1.911,00 9.944,59 1.066,32 1.046,64 0,00 0,00 2.112,96 7.831,63 28/02/2023
500 421000 CELINA BENEDITA DE SOUZA ALMEIDA OFICIAL DO MP CAMBUÍ - COMARCA; CAMBUI-PJ-01PJ 9.999,62 6.999,73 0,00 0,00 0,00 0,00 498,65 7.350,79 24.848,79 2.500,84 3.065,59 0,00 0,00 5.566,43 19.282,36 28/02/2023
501 252900 CELIO DE MELO CASTOR ANALISTA DO MP BELO HORIZONTE - COMARCA; DIVISAO FROTA 20.574,59 8.229,84 0,00 0,00 0,00 0,00 0,00 1.911,00 30.715,43 4.389,66 5.844,70 0,00 0,00 10.234,36 20.481,07 28/02/2023
502 395700 CELIO FERREIRA LIMA OFICIAL DO MP CONTAGEM - COMARCA; CONTAGEM-PJ-SECRETARIA 10.661,25 2.132,25 0,00 0,00 0,00 0,00 0,00 1.911,00 14.704,50 1.827,91 2.094,04 0,00 0,00 3.921,95 10.782,55 28/02/2023
503 281300 CELMA REGINA PEREIRA SANTOS ANALISTA DO MP BELO HORIZONTE - COMARCA; PROMOT ESTADUAL DE DEF PATRI CULT E TUR DE MG 20.574,59 6.172,38 0,00 0,00 0,00 0,00 490,36 7.260,39 34.497,72 4.060,46 5.369,43 0,00 0,00 9.429,89 25.067,83 28/02/2023
504 535600 CELSO MEDEIROS DE PAIVA OFICIAL DO MP RIO PRETO - COMARCA; RIO PRETO-PJ-SECRETARIA 6.694,66 669,47 0,00 0,00 0,00 0,00 135,01 3.383,83 10.882,97 959,93 839,66 0,00 0,00 1.799,59 9.083,38 28/02/2023
505 367000 CESAR NARVAES DE AVELAR OFICIAL DO MP BELO HORIZONTE - COMARCA; DIRET DE INFORMACAO E CONHECIMENTO-DINC/CEAF 11.008,33 3.302,50 0,00 0,00 0,00 0,00 0,00 1.911,00 16.221,83 2.070,68 2.496,68 0,00 0,00 4.567,36 11.654,47 28/02/2023
506 226500 CESAR SILVEIRA BARROUIN OFICIAL DO MP BELO HORIZONTE - COMARCA; DIRETORIA DE ADMINISTRACAO FINANCEIRA 15.659,55 7.829,78 0,00 0,00 0,00 0,00 516,77 7.548,44 31.554,54 3.539,24 4.616,91 0,00 0,00 8.156,15 23.398,39 28/02/2023
507 121400 CEZAR MORENO CONCEICAO TAVARES OFICIAL DO MP BELO HORIZONTE - COMARCA; COORD DE INCLUSAO E MOBILIZACAO SOCIAIS 19.791,01 15.832,81 0,00 0,00 0,00 5.454,90 520,11 8.470,25 50.069,08 5.454,90 8.778,48 161,60 0,00 14.394,98 35.674,10 28/02/2023
508 243800 CHARLES MARTINS MUNIZ OFICIAL DO MP BELO HORIZONTE - COMARCA; LAB TECNOLOGIA CONTRA LAVAGEM DINHEIRO 15.659,55 6.263,82 0,00 0,00 0,00 0,00 482,31 6.594,61 29.000,29 3.288,69 4.255,18 0,00 0,00 7.543,87 21.456,42 28/02/2023
509 193500 CHARLIN CESAR KOURLY OFICIAL DO MP ARAGUARI - COMARCA; ARAGUARI-PJ-07PJ 19.037,29 7.614,92 0,00 0,00 0,00 0,00 488,62 7.241,44 34.382,27 4.045,30 5.347,54 0,00 0,00 9.392,84 24.989,43 28/02/2023
510 385500 CHILLEN PEIXOTO DE MOURA OFICIAL DO MP BELO HORIZONTE - COMARCA; DIVISAO DE MATERIAIS 10.661,25 2.132,25 0,00 0,00 0,00 0,00 0,00 2.796,30 15.589,80 1.827,91 2.146,18 0,00 0,00 3.974,09 11.615,71 28/02/2023
511 534500 CHRISTIAN DOUGLAS BRITO RUAS OFICIAL DO MP SÃO JOÃO DA PONTE - COMARCA; SAO JOAO DA PONTE-PJ-SECRETARIA 6.694,66 669,47 0,00 0,00 2.454,71 0,00 135,01 3.383,83 13.337,68 959,93 1.566,84 0,00 0,00 2.526,77 10.810,91 28/02/2023
512 370600 CHRISTIAN KARINE FELIX PRATES ASSESSOR ADMINISTRATIVO IV BELO HORIZONTE - COMARCA; SUPRIN DE PLANEJAMENTO E COORDENACAO 0,00 0,00 12.920,95 0,00 0,00 0,00 0,00 1.911,00 14.831,95 877,22 2.809,24 0,00 0,00 3.686,46 11.145,49 28/02/2023
513 435800 CHRISTIANA BAHIA ANDRADE PINA ANALISTA DO MP BELO HORIZONTE - COMARCA; LABORATORIO TECNOLOGIA INTELIGENCIA 16.169,47 3.233,89 0,00 0,00 0,00 0,00 498,02 7.343,94 27.245,32 2.885,49 3.673,05 0,00 0,00 6.558,54 20.686,78 28/02/2023
514 516800 CHRISTIANE FERREIRA DO NASCIMENTO ANALISTA DO MP POUSO ALEGRE - COMARCA; POUSO ALEGRE-PJ-08PJ 11.008,33 2.201,67 0,00 0,00 0,00 0,00 0,00 1.911,00 15.121,00 1.894,55 2.242,39 0,00 0,00 4.136,94 10.984,06 28/02/2023
515 176000 CHRISTIANE JUNQUEIRA PULITI ANDRADE DE BARROS ASSESSOR ADM. ESPECIAL BELO HORIZONTE - COMARCA; PROCURADORIA-GERAL ADJUNTA INSTITUCIONAL 0,00 19.986,35 24.982,93 0,00 13.639,04 5.454,90 520,11 7.584,95 72.168,28 5.454,90 13.504,97 9.507,06 0,00 28.466,93 43.701,35 28/02/2023
516 319200 CHRISTIANE MARIA DE ASSIS RUSSO OFICIAL DO MP BELO HORIZONTE - COMARCA; CAO-ORDEM ECONOMICA E TRIBUTARIA-SECRETARIA 13.776,02 4.132,81 0,00 0,00 0,00 0,00 0,00 2.796,30 20.705,13 2.646,36 3.275,68 0,00 0,00 5.922,04 14.783,09 28/02/2023
517 510300 CHRISTIANE MARY DE CARVALHO FERREIRA ANALISTA DO MP BELO HORIZONTE - COMARCA; DIRETORIA DE SISTEMAS DE INFORMACAO 11.008,33 2.201,67 0,00 0,00 0,00 0,00 0,00 1.911,00 15.121,00 1.894,55 2.190,25 0,00 0,00 4.084,80 11.036,20 28/02/2023
518 424900 CHRISTIANE PEREIRA TURNER DE ARAUJO OFICIAL DO MP BELO HORIZONTE - COMARCA; CAO-PATRIMONIO PUBLICO 9.999,62 1.999,92 0,00 0,00 0,00 0,00 527,98 8.556,08 21.083,60 1.700,87 1.858,50 0,00 0,00 3.559,37 17.524,23 28/02/2023
519 731000 CHRISTIANE TEIXEIRA ANTUNA ASSESSOR ADMINISTRATIVO II BELO HORIZONTE - COMARCA; DIR CONTEUDO JORNALISTICO 0,00 0,00 6.694,66 0,00 0,00 0,00 0,00 1.911,00 8.605,66 877,22 1.097,01 0,00 0,00 1.974,23 6.631,43 28/02/2023
520 513700 CHRISTIANE VIEIRA SOARES PEDERSOLI COORDENADOR II BELO HORIZONTE - COMARCA; ASSESSORIA JURIDICA DO PROCON-MG 18.312,36 3.662,47 0,00 0,00 7.324,94 0,00 483,45 8.070,26 37.853,48 1.894,55 6.667,08 0,00 0,00 8.561,63 29.291,85 28/02/2023
521 412300 CHRYSTIAN MACHADO RIBEIRO ANALISTA DO MP VARGINHA - COMARCA; VARGINHA-PJ-04PJ 16.169,47 3.233,89 0,00 0,00 0,00 0,00 498,02 7.343,94 27.245,32 2.885,49 3.673,05 0,00 0,00 6.558,54 20.686,78 28/02/2023
522 513800 CHRYSTIANE DO NASCIMENTO DE MAGALHAES OFICIAL DO MP UBERLÂNDIA - COMARCA; UBERLANDIA-PJ-10PJ 8.650,50 1.730,10 0,00 0,00 0,00 0,00 38,06 2.326,22 12.744,88 1.441,84 1.484,52 0,00 0,00 2.926,36 9.818,52 28/02/2023
523 497900 CIBELE DE FREITAS SANCHES DIAS ANALISTA DO MP SABARÁ - COMARCA; SABARA-PJ-03PJ 11.008,33 2.201,67 0,00 0,00 0,00 0,00 532,80 7.723,40 21.466,20 982,16 2.323,54 0,00 0,00 3.305,70 18.160,50 28/02/2023
524 500900 CIBELLE SILVA PRADO ALVARENGA ANALISTA DO MP ITANHANDU - COMARCA; ITANHANDU-PJ-UNPJ 11.008,33 2.201,67 0,00 0,00 0,00 0,00 532,80 8.608,70 22.351,50 1.894,55 2.242,39 0,00 0,00 4.136,94 18.214,56 28/02/2023
525 296400 CINTIA APARECIDA MOREIRA NAVES E RODRIGUES ANALISTA DO MP CAMPO BELO - COMARCA; CAMPO BELO-PJ-01PJ 20.574,59 6.172,38 0,00 0,00 0,00 0,00 490,36 7.260,39 34.497,72 4.060,46 5.369,43 0,00 0,00 9.429,89 25.067,83 28/02/2023
526 407900 CINTIA NETO COMELLI ANALISTA DO MP BELO HORIZONTE - COMARCA; CENTRAL DE APOIO TECNICO-SETOR CONTABIL 16.169,47 3.233,89 0,00 0,00 0,00 0,00 0,00 1.911,00 21.314,36 2.885,49 3.620,92 0,00 0,00 6.506,41 14.807,95 28/02/2023
527 304700 CINTIA QUEIROZ OFICIAL DO MP BELO HORIZONTE - COMARCA; OUVIDORIA DO MPMG 11.008,33 3.302,50 0,00 0,00 0,00 0,00 524,73 7.635,33 22.470,89 2.070,68 2.496,68 0,00 0,00 4.567,36 17.903,53 28/02/2023
528 286100 CIRO CANGUSSU CORDEIRO OFICIAL DO MP IPATINGA - COMARCA; IPATINGA-PJ-09PJ 9.378,86 2.813,66 0,00 0,00 0,00 0,00 536,47 8.648,71 21.377,70 1.731,75 1.903,08 0,00 0,00 3.634,83 17.742,87 28/02/2023
529 689900 CISSA NOGUEIRA COLEN ASSESSOR PROCURADOR JUSTICA BELO HORIZONTE - COMARCA; GABINETE DE PROCURADOR DE JUSTIÇA - SALA 608 0,00 0,00 7.857,77 0,00 2.619,26 0,00 172,87 3.796,86 14.446,76 877,22 2.137,16 0,00 0,00 3.014,38 11.432,38 28/02/2023
530 681700 CLARA FERREIRA ALKIMIM ASSESSOR PROMOTOR JUSTICA PEDRA AZUL - COMARCA; PEDRA AZUL-PJ-02PJ 0,00 0,00 7.857,77 0,00 2.619,26 0,00 172,87 3.796,86 14.446,76 877,22 2.137,16 0,00 0,00 3.014,38 11.432,38 28/02/2023
531 715500 CLARA ISABELLE SOUSA FARIA ASSESSOR PROCURADOR JUSTICA BELO HORIZONTE - COMARCA; GABINETE DE PROCURADOR DE JUSTIÇA - SALA 712 0,00 0,00 7.857,77 0,00 0,00 0,00 0,00 1.911,00 9.768,77 877,22 1.416,87 0,00 0,00 2.294,09 7.474,68 28/02/2023
532 723100 CLARA PRADO CAMPOS ASSESSOR PROCURADOR JUSTICA BELO HORIZONTE - COMARCA; GABINETE DE PROCURADOR DE JUSTIÇA - SALA 1006 0,00 0,00 7.857,77 0,00 0,00 0,00 0,00 1.911,00 9.768,77 877,22 1.416,87 0,00 0,00 2.294,09 7.474,68 28/02/2023
533 695500 CLARA RODRIGUES BLACH ASSESSOR PROCURADOR JUSTICA BELO HORIZONTE - COMARCA; GABINETE DE PROCURADOR DE JUSTIÇA - SALA 1003 0,00 0,00 7.857,77 0,00 0,00 0,00 0,00 1.911,00 9.768,77 877,22 1.416,87 0,00 0,00 2.294,09 7.474,68 28/02/2023
534 412500 CLARICE GOMES MAROTTA ANALISTA DO MP BELO HORIZONTE - COMARCA; COORD ESTADUAL DE DEFESA DOS ANIMAIS 16.169,47 6.467,79 0,00 0,00 0,00 0,00 0,00 1.911,00 24.548,26 3.402,91 4.420,09 0,00 0,00 7.823,00 16.725,26 28/02/2023
535 605300 CLARISSA AZEVEDO ROCHA OFICIAL DO MP BELO HORIZONTE - COMARCA; BH-17PJ PATRIMONIO PUBLICO-SECRETARIA 6.694,66 669,47 0,00 0,00 0,00 0,00 0,00 1.911,00 9.275,13 959,93 891,80 0,00 0,00 1.851,73 7.423,40 28/02/2023
536 308100 CLARISSA DUARTE BELLONI DIRETOR-GERAL BELO HORIZONTE - COMARCA; DIRETORIA-GERAL 30.917,06 9.275,12 0,00 0,00 0,00 0,00 520,12 10.240,86 50.953,16 4.060,46 7.661,85 4.729,96 0,00 16.452,27 34.500,89 28/02/2023
537 730500 CLARISSA FERNANDES ABREU ASSESSOR PROMOTOR JUSTICA SANTOS DUMONT - COMARCA; SANTOS DUMONT-PJ-02PJ 0,00 0,00 7.857,77 0,00 0,00 0,00 0,00 1.911,00 9.768,77 877,22 1.416,87 0,00 0,00 2.294,09 7.474,68 28/02/2023
538 497100 CLARISSA ROCHA GUIDI ANALISTA DO MP BELO HORIZONTE - COMARCA; BH-02PJ FAMILIA-SECRETARIA 13.341,69 2.668,34 0,00 0,00 0,00 0,00 0,00 3.681,60 19.691,63 2.342,55 2.837,06 0,00 0,00 5.179,61 14.512,02 28/02/2023
539 641800 CLARISSE TAVARES GONCALVES OFICIAL DO MP BELO HORIZONTE - COMARCA; BH-07PJ 01 TRIBUNAL JURI-SECRETARIA 6.483,63 648,36 0,00 0,00 0,00 0,00 287,66 5.049,08 12.468,73 923,95 837,85 0,00 0,00 1.761,80 10.706,93 28/02/2023
540 463700 CLAUDIA ADRIANA FERRAO DIAS ANALISTA DO MP SETE LAGOAS - COMARCA; SETE LAGOAS-PJ-06PJ 11.008,33 2.201,67 0,00 0,00 0,00 0,00 0,00 1.911,00 15.121,00 1.894,55 2.242,39 0,00 0,00 4.136,94 10.984,06 28/02/2023
541 415400 CLAUDIA ALMEIDA DE VASCONCELLOS BARROS OFICIAL DO MP BELO HORIZONTE - COMARCA; DIVISAO DE SERVICOS 9.684,23 1.936,85 3.585,64 0,00 0,00 0,00 501,82 7.385,42 23.093,96 1.640,32 2.861,40 0,00 0,00 4.501,72 18.592,24 28/02/2023
542 207000 CLAUDIA APARECIDA VILELA MACHADO ANALISTA DO MP BELO HORIZONTE - COMARCA; CENTRAL DE APOIO TECNICO-SETOR CONTABIL 20.574,59 10.287,30 0,00 0,00 0,00 0,00 452,64 6.848,90 38.163,43 4.718,85 6.163,56 0,00 0,00 10.882,41 27.281,02 28/02/2023
543 365700 CLAUDIA BREGUEZ CUNHA ANALISTA DO MP VARGINHA - COMARCA; VARGINHA-PJ-07PJ 18.312,36 5.493,71 0,00 0,00 0,00 0,00 0,00 2.796,30 26.602,37 3.589,92 4.690,08 0,00 0,00 8.280,00 18.322,37 28/02/2023
544 430500 CLAUDIA CECILIA SANTANA VENCESLAU OFICIAL DO MP BELO HORIZONTE - COMARCA; LAB TECNOLOGIA CONTRA LAVAGEM DINHEIRO 9.999,62 1.999,92 0,00 0,00 0,00 0,00 527,98 7.670,78 20.198,30 1.700,87 1.910,64 0,00 0,00 3.611,51 16.586,79 28/02/2023
545 213601 CLAUDIA GONCALVES CALIXTO ASSESSOR PROCURADOR JUSTICA BELO HORIZONTE - COMARCA; PROC. JUSTICA DIR. DIFUSOS E COLETIVOS-SEC 0,00 0,00 7.857,77 0,00 2.619,26 0,00 0,00 1.911,00 12.388,03 877,22 2.137,16 0,00 0,00 3.014,38 9.373,65 28/02/2023
546 480400 CLAUDIA GOULART DE SOUZA OFICIAL DO MP PASSOS - COMARCA; PASSOS-PJ-06PJ 9.378,86 2.813,66 0,00 0,00 0,00 0,00 536,47 7.763,41 20.492,40 1.731,75 2.007,35 0,00 0,00 3.739,10 16.753,30 28/02/2023
547 519800 CLAUDIA HELENA CORREA DE ALMEIDA ANALISTA DO MP BELO HORIZONTE - COMARCA; BH-12PJ JUIZO CRIMINAL-GAB 096PJ 11.008,33 2.201,67 0,00 0,00 4.403,33 0,00 532,80 7.723,40 25.869,53 1.894,55 3.453,30 0,00 0,00 5.347,85 20.521,68 28/02/2023
548 422100 CLAUDIA IACOMINI CABRAL ANALISTA DO MP BELO HORIZONTE - COMARCA; CENT DE APOIO TEC-SETOR DEF,IDOSO E INFANC 16.169,47 11.318,64 0,00 0,00 0,00 0,00 503,95 7.408,62 35.400,68 4.179,05 5.540,63 0,00 0,00 9.719,68 25.681,00 28/02/2023
549 258200 CLAUDIA LAGE MICHALAROS ANALISTA DO MP BELO HORIZONTE - COMARCA; CENTRAL DE APOIO TECN-SETOR DE MEIO AMBIENTE 20.574,59 16.459,68 0,00 0,00 0,00 5.454,90 0,00 1.911,00 44.400,17 5.454,90 8.882,75 1.572,05 0,00 15.909,70 28.490,47 28/02/2023
550 284600 CLAUDIA LENI DE FREITAS OFICIAL DO MP CONTAGEM - COMARCA; CONTAGEM-PJ-SECRETARIA 6.694,66 3.347,33 0,00 0,00 0,00 1.387,67 0,00 1.911,00 13.340,66 1.387,67 1.892,19 0,00 0,00 3.279,86 10.060,80 28/02/2023
551 433600 CLAUDIA LUIZA SANTIAGO FELICIO ANALISTA DO MP BELO HORIZONTE - COMARCA; CENT DE APOIO TEC-SETOR DEF,IDOSO E INFANC 16.169,47 3.233,89 0,00 0,00 0,00 0,00 71,15 2.687,13 22.161,64 2.885,49 3.568,78 0,00 0,00 6.454,27 15.707,37 28/02/2023
552 317000 CLAUDIA MACHADO ALVES OFICIAL DO MP BELO HORIZONTE - COMARCA; DIR GOVERNANCA TECNOLOGIA INFORMACAO 11.008,33 3.302,50 3.585,64 0,00 0,00 0,00 524,96 7.637,87 26.059,30 2.070,68 3.482,73 0,00 0,00 5.553,41 20.505,89 28/02/2023
553 155300 CLAUDIA MACIEL MIRANDA OFICIAL DO MP CONGONHAS - COMARCA; CONGONHAS-PJ-02PJ 19.791,01 13.853,71 0,00 0,00 0,00 0,00 0,00 1.911,00 35.555,72 5.164,10 6.858,54 0,00 0,00 12.022,64 23.533,08 28/02/2023
554 242200 CLAUDIA MICHELLE DIAS MUNIZ BALEEIRO OFICIAL DO MP MONTE AZUL - COMARCA; MONTE AZUL-PJ-SECRETARIA 15.659,55 7.829,78 0,00 0,00 0,00 0,00 516,77 7.548,44 31.554,54 3.539,24 4.564,78 0,00 0,00 8.104,02 23.450,52 28/02/2023
555 623000 CLAUDIA PATRICIA SILVA RODRIGUES RAPOSEIRAS OFICIAL DO MP BELO HORIZONTE - COMARCA; DIVISÃO DE EDUCAÇÃO PARA O CONSUMO 6.694,66 669,47 0,00 0,00 0,00 0,00 0,00 2.796,30 10.160,43 959,93 839,66 0,00 0,00 1.799,59 8.360,84 28/02/2023
556 418400 CLAUDIA REGINA MARTINS BONIFACIO OFICIAL DO MP ITUIUTABA - COMARCA; ITUIUTABA-PJ-06PJ 9.999,62 1.999,92 0,00 0,00 3.999,85 0,00 527,98 7.670,78 24.198,15 1.700,87 2.958,46 0,00 0,00 4.659,33 19.538,82 28/02/2023
557 498300 CLAUDIA SOUTO FARIAS BRAUN OFICIAL DO MP TEÓFILO OTONI - COMARCA; TEOFILO OTONI-PJ-SECRETARIA 6.694,66 1.338,93 0,00 0,00 0,00 0,00 176,74 3.839,06 12.049,39 1.066,32 942,36 0,00 0,00 2.008,68 10.040,71 28/02/2023
558 206500 CLAUDIA VALERIA FONSECA ANDRADE ANALISTA DO MP BELO HORIZONTE - COMARCA; BH-23PJ INF-FISC MED SOC FEC 20.574,59 14.402,22 0,00 0,00 0,00 5.377,24 512,99 7.507,29 48.374,33 5.377,24 8.749,26 0,00 0,00 14.126,50 34.247,83 28/02/2023
559 277500 CLAUDIO ANTONIO BORGES BRUNSWICK ALVARES OFICIAL DO MP BELO HORIZONTE - COMARCA; BH-15PJ M AMB PAT HIST CULT-GAB 116PJ 11.008,33 3.302,50 0,00 0,00 0,00 0,00 0,00 1.911,00 16.221,83 2.070,68 2.496,68 0,00 0,00 4.567,36 11.654,47 28/02/2023
560 444800 CLAUDIO ARESIO DO CARMO ANALISTA DO MP SETE LAGOAS - COMARCA; SETE LAGOAS-PJ-01PJ 13.341,69 5.336,68 0,00 0,00 0,00 0,00 547,90 7.888,08 27.114,35 2.769,49 3.453,44 0,00 0,00 6.222,93 20.891,42 28/02/2023
561 545100 CLAUDIO HENRIQUE MACEDO DE SOUZA FRANSOZO ANALISTA DO MP OURO PRETO - COMARCA; OURO PRETO-PJ-03PJ 11.008,33 1.100,83 0,00 0,00 0,00 0,00 0,00 2.796,30 14.905,46 982,16 2.095,65 0,00 0,00 3.077,81 11.827,65 28/02/2023
562 353500 CLAUDIO HENRIQUE PEDRO DA ROCHA OFICIAL DO MP BELO HORIZONTE - COMARCA; DIVISAO TRANSPORTES 11.008,33 3.302,50 0,00 0,00 4.770,28 0,00 524,73 7.635,33 27.241,17 2.070,68 3.704,23 0,00 0,00 5.774,91 21.466,26 28/02/2023
563 265800 CLAUDIO KUPIDLOWSKY FERNANDES OFICIAL DO MP BELO HORIZONTE - COMARCA; SECRETARIA DO PROCON-MG 11.008,33 4.403,33 0,00 0,00 0,00 0,00 508,59 7.459,20 23.379,45 2.246,81 1.377,67 0,00 0,00 3.624,48 19.754,97 28/02/2023
564 193600 CLAUDIO LEITE FONTES OFICIAL DO MP ITUIUTABA - COMARCA; ITUIUTABA-PJ-02PJ 11.008,33 5.504,17 0,00 0,00 5.504,17 0,00 544,91 7.855,50 30.417,08 2.422,95 4.160,86 0,00 0,00 6.583,81 23.833,27 28/02/2023
565 329400 CLAUDIO MARCIO BERNARDES OFICIAL DO MP ITAÚNA - COMARCA; ITAUNA-PJ-03PJ 11.008,33 8.806,66 0,00 0,00 0,00 0,00 0,00 2.796,30 22.611,29 2.951,35 3.716,00 0,00 0,00 6.667,35 15.943,94 28/02/2023
566 270200 CLAUDIO RABELO ALVES OFICIAL DO MP FORMIGA - COMARCA; FORMIGA-PJ-03PJ 13.341,69 5.336,68 0,00 0,00 0,00 0,00 547,90 7.907,25 27.133,52 2.769,49 3.349,17 0,00 0,00 6.118,66 21.014,86 28/02/2023
567 264700 CLAUDIO ROBERTO KFURI DE ARAUJO ANALISTA DO MP BELO HORIZONTE - COMARCA; CENTRAL DE APOIO TECNICO-SETOR DE INFORMATICA 20.574,59 6.172,38 0,00 0,00 0,00 0,00 0,00 1.911,00 28.657,97 4.060,46 5.265,16 0,00 0,00 9.325,62 19.332,35 28/02/2023
568 188600 CLAUDIO SALES OFICIAL DO MP NEPOMUCENO - COMARCA; NEPOMUCENO-PJ-SECRETARIA 18.312,36 14.649,89 0,00 0,00 0,00 0,00 0,00 2.796,30 35.758,55 5.054,91 6.805,16 0,00 0,00 11.860,07 23.898,48 28/02/2023
569 543300 CLAUDIO SILVA DE CARVALHO ANALISTA DO MP CAMPO BELO - COMARCA; CAMPO BELO-PJ-03PJ 10.325,15 1.032,52 0,00 0,00 0,00 0,00 0,00 1.911,00 13.268,67 1.598,18 1.762,36 0,00 0,00 3.360,54 9.908,13 28/02/2023
570 160700 CLAUDIO VICENTE HESS ASSESSOR DE GABINETE I BELO HORIZONTE - COMARCA; CENTRAL DE APOIO TECNICO-SETOR DE INFORMATICA 0,00 8.084,74 16.169,47 0,00 0,00 0,00 0,00 1.911,00 26.165,21 877,22 5.821,61 0,00 0,00 6.698,83 19.466,38 28/02/2023
571 312900 CLAUDIO VIEIRA FIRPE OFICIAL DO MP BELO HORIZONTE - COMARCA; DIR RELACOES INSTITUCIONAIS 11.008,33 3.302,50 0,00 0,00 0,00 0,00 3.689,81 7.635,33 25.635,97 2.070,68 3.367,08 0,00 0,00 5.437,76 20.198,21 28/02/2023
572 634100 CLEA CRISTINA GUERRA DE FREITAS COSTA OFICIAL DO MP BELO HORIZONTE - COMARCA; BH-18PJ VIOLENCIA DOMESTICA-SECRETARIA 6.483,63 648,36 0,00 0,00 0,00 0,00 0,00 1.911,00 9.042,99 923,95 785,71 0,00 0,00 1.709,66 7.333,33 28/02/2023
573 459200 CLEIA ZILLE PEREIRA ANALISTA DO MP BELO HORIZONTE - COMARCA; BH-07PJ 01 TRIBUNAL DO JURI-GAB 059PJ 11.008,33 2.201,67 0,00 0,00 0,00 0,00 193,75 5.352,55 18.756,30 1.894,55 2.242,39 0,00 0,00 4.136,94 14.619,36 28/02/2023
574 481800 CLEIDE CARDOSO DA SILVA ANALISTA DO MP MANHUAÇU - COMARCA; MANHUACU-PJ-04PJ 11.008,33 2.201,67 0,00 0,00 0,00 0,00 0,00 1.911,00 15.121,00 1.894,55 2.138,11 0,00 0,00 4.032,66 11.088,34 28/02/2023
575 347600 CLEIDIMAR DE OLIVEIRA SILVA OFICIAL DO MP PATOS DE MINAS - COMARCA; PATOS DE MINAS-PJ-03PJ 11.008,33 4.403,33 0,00 0,00 0,00 0,00 508,59 7.459,20 23.379,45 2.246,81 2.542,42 0,00 0,00 4.789,23 18.590,22 28/02/2023
576 396500 CLEIDISON BATISTA DE ANDRADE OFICIAL DO MP RESPLENDOR - COMARCA; RESPLENDOR-PJ-UNPJ 9.999,62 1.999,92 0,00 0,00 0,00 0,00 527,98 7.670,78 20.198,30 1.700,87 1.858,50 0,00 0,00 3.559,37 16.638,93 28/02/2023
577 535100 CLEISON ALVES DA SILVA ANALISTA DO MP BOA ESPERANÇA - COMARCA; BOA ESPERANCA-PJ-01PJ 11.008,33 1.100,83 0,00 0,00 0,00 0,00 0,00 1.911,00 14.020,16 1.718,41 1.883,82 0,00 0,00 3.602,23 10.417,93 28/02/2023
578 298100 CLEONICE AUGUSTA BARROS DE OLIVEIRA ANALISTA DO MP JUIZ DE FORA - COMARCA; JUIZ DE FORA-PJ-08PJ 20.574,59 6.172,38 0,00 0,00 0,00 0,00 0,00 1.911,00 28.657,97 4.060,46 5.369,43 0,00 0,00 9.429,89 19.228,08 28/02/2023
579 264100 CLETO HENRIQUE ANDRADE SILVA ANALISTA DO MP BELO HORIZONTE - COMARCA; DIRETORIA DE SISTEMAS DE INFORMACAO 20.574,59 6.172,38 0,00 0,00 0,00 0,00 0,00 1.911,00 28.657,97 4.060,46 5.265,16 0,00 0,00 9.325,62 19.332,35 28/02/2023
580 334400 CLEUBA DE OLIVEIRA BARCELOS GONCALVES OFICIAL DO MP DIVINÓPOLIS - COMARCA; COORD REG SAUDE MACRORREGIAO SANITARIA OESTE 11.008,33 3.302,50 0,00 0,00 0,00 0,00 524,73 7.635,33 22.470,89 2.070,68 2.444,54 0,00 0,00 4.515,22 17.955,67 28/02/2023
581 347500 CLEUSA CORDEIRO DA MATA PIMENTA OFICIAL DO MP CAMPO BELO - COMARCA; CAMPO BELO-PJ-01PJ 11.008,33 8.806,67 0,00 0,00 0,00 2.951,35 508,59 7.459,20 30.734,14 2.951,35 4.527,63 0,00 0,00 7.478,98 23.255,16 28/02/2023
582 510200 CLEZIO SALES SILVA OFICIAL DO MP BRASÓPOLIS - COMARCA; BRASOPOLIS-PJ-UNPJ 6.694,66 1.338,93 0,00 0,00 0,00 0,00 176,74 5.320,76 13.531,09 1.066,32 1.046,64 0,00 0,00 2.112,96 11.418,13 28/02/2023
583 323000 CLOTILDE DE PADUA VIEIRA OFICIAL DO MP BELO HORIZONTE - COMARCA; BH-19PJ SAUDE-SECRETARIA 129PJ 11.008,33 3.302,50 0,00 0,00 0,00 0,00 0,00 1.911,00 16.221,83 2.070,68 2.496,68 0,00 0,00 4.567,36 11.654,47 28/02/2023
584 285200 CLOVIS ANDRE LUDTKE OFICIAL DO MP BELO HORIZONTE - COMARCA; DIVISAO DE MANUTENCAO PREDIAL 11.736,91 3.521,07 0,00 0,00 0,00 0,00 503,51 7.403,87 23.165,36 2.222,23 2.715,47 0,00 0,00 4.937,70 18.227,66 28/02/2023
585 381100 CONCEICAO APARECIDA TEIXEIRA ARANTES ANALISTA DO MP BELO HORIZONTE - COMARCA; BH-23PJ INFRACIONAL-ASS JURIDICA 16.944,07 3.388,81 0,00 0,00 0,00 0,00 3.137,07 2.796,30 26.266,25 3.536,14 4.560,30 0,00 0,00 8.096,44 18.169,81 28/02/2023
586 249900 CONSTANTINO CEZAR GOMES MOTA OFICIAL DO MP MONTES CLAROS - COMARCA; COORD REG BACIA RIOS VERDE GRANDE E PARDO 11.008,33 4.403,33 0,00 0,00 0,00 0,00 0,00 3.681,60 19.093,26 2.246,81 2.646,70 0,00 0,00 4.893,51 14.199,75 28/02/2023
587 481000 CRISHMA ANALIA LOMBELLO ANALISTA DO MP JUIZ DE FORA - COMARCA; JUIZ DE FORA-PJ-13PJ 11.008,33 2.201,67 0,00 0,00 0,00 0,00 0,00 1.911,00 15.121,00 1.894,55 2.190,25 0,00 0,00 4.084,80 11.036,20 28/02/2023
588 523900 CRISTHYANE BAZOLI COSTA GUEDES COUTO OFICIAL DO MP BELO HORIZONTE - COMARCA; BH-04PJ JUIZO REG PÚBLICOS-SECRETARIA 8.650,50 1.730,10 0,00 0,00 0,00 0,00 418,68 6.478,46 17.277,74 1.441,84 1.588,80 0,00 0,00 3.030,64 14.247,10 28/02/2023
589 187000 CRISTIAN DAYVSON EVANGELISTA OFICIAL DO MP JUIZ DE FORA - COMARCA; JUIZ DE FORA-PJ-13PJ 18.312,36 7.324,94 0,00 0,00 0,00 0,00 470,02 7.038,46 33.145,78 3.882,92 5.060,96 0,00 0,00 8.943,88 24.201,90 28/02/2023
590 682100 CRISTIAN TRISTAO DE ANDRADE ASSESSOR PROMOTOR JUSTICA TRÊS CORACOES - COMARCA; TRES CORACOES-PJ-04PJ 0,00 0,00 7.857,77 0,00 0,00 0,00 0,00 1.911,00 9.768,77 877,22 1.416,87 0,00 0,00 2.294,09 7.474,68 28/02/2023
591 319800 CRISTIANA GONCALVES DOS SANTOS GUSMAO OFICIAL DO MP PARAOPEBA - COMARCA; PARAOPEBA-PJ-UNPJ 11.008,33 3.302,50 0,00 0,00 0,00 0,00 0,00 1.911,00 16.221,83 2.070,68 2.496,68 0,00 0,00 4.567,36 11.654,47 28/02/2023
592 520600 CRISTIANA JANAINA BARBOZA JUVENCIO DOS SANTOS ANALISTA DO MP BELO HORIZONTE - COMARCA; BH-02PJ FAMILIA-SECRETARIA 11.008,33 2.201,67 0,00 0,00 0,00 0,00 532,80 7.723,40 21.466,20 1.894,55 2.242,39 0,00 0,00 4.136,94 17.329,26 28/02/2023
593 195600 CRISTIANA SOARES HALABI OFICIAL DO MP UBERABA - COMARCA; UBERABA-PJ-01PJ 18.312,36 7.324,94 0,00 0,00 0,00 0,00 470,02 7.038,46 33.145,78 3.882,92 5.113,09 0,00 0,00 8.996,01 24.149,77 28/02/2023
594 218900 CRISTIANE ALVES BELLES OFICIAL DO MP JUIZ DE FORA - COMARCA; JUIZ DE FORA-PJ-10PJ 6.694,66 2.677,86 0,00 0,00 0,00 0,00 309,29 6.613,06 16.294,87 1.280,55 1.251,66 0,00 0,00 2.532,21 13.762,66 28/02/2023
595 263600 CRISTIANE CARVALHO COUTINHO OFICIAL DO MP BELO HORIZONTE - COMARCA; BH-23PJ INFRACIONAL-SEC EXP 12.118,97 4.847,59 0,00 0,00 0,00 0,00 0,00 1.911,00 18.877,56 2.495,60 3.058,02 0,00 0,00 5.553,62 13.323,94 28/02/2023
596 541000 CRISTIANE COELHO ALVES OFICIAL DO MP ITABIRA - COMARCA; ITABIRA-PJ-03PJ 6.694,66 669,47 0,00 0,00 2.454,71 0,00 135,01 3.383,83 13.337,68 959,93 1.514,70 0,00 0,00 2.474,63 10.863,05 28/02/2023
597 441700 CRISTIANE CORRADO DE ANDRADE ANALISTA DO MP BELO HORIZONTE - COMARCA; DIRETORIA DE SISTEMAS DE INFORMACAO 16.169,47 3.233,89 3.585,64 0,00 0,00 0,00 505,76 7.428,36 30.923,12 2.885,49 4.659,11 0,00 0,00 7.544,60 23.378,52 28/02/2023
598 375100 CRISTIANE DAS DORES ERCIO DE LIMA OFICIAL DO MP GOVERNADOR VALADARES - COMARCA; GOVERNADOR VALADARES-PJ-12PJ 10.325,15 2.065,03 0,00 0,00 4.130,06 0,00 545,17 7.858,29 24.923,70 1.763,38 3.188,78 0,00 0,00 4.952,16 19.971,54 28/02/2023
599 178800 CRISTIANE DE LIMA HOSKEN OFICIAL DO MP BELO HORIZONTE - COMARCA; BH-14PJ DEFESA CONSUMIDOR-GAB 110PJ 19.037,29 7.614,92 0,00 0,00 0,00 0,00 488,62 7.241,44 34.382,27 4.045,30 5.295,40 0,00 0,00 9.340,70 25.041,57 28/02/2023
600 494000 CRISTIANE DE MELO MARQUEZ OLIVEIRA ANALISTA DO MP UBERLÂNDIA - COMARCA; UBERLANDIA-PJ-06PJ 13.776,02 2.755,20 0,00 0,00 0,00 0,00 363,69 6.763,79 23.658,70 2.425,94 3.009,59 0,00 0,00 5.435,53 18.223,17 28/02/2023
601 266100 CRISTIANE DE OLIVEIRA CASTRO OFICIAL DO MP BELO HORIZONTE - COMARCA; BH-14PJ DEFESA CONSUMIDOR-SECRETARIA 15.659,55 6.263,82 0,00 0,00 0,00 0,00 1.580,00 1.911,00 25.414,37 3.288,69 4.585,40 0,00 0,00 7.874,09 17.540,28 28/02/2023
602 329500 CRISTIANE DOS REIS SILVA OFICIAL DO MP ARAXÁ - COMARCA; ARAXA-PJ-04PJ 11.008,33 3.302,50 0,00 0,00 0,00 0,00 262,37 4.773,17 19.346,37 2.070,68 2.392,41 0,00 0,00 4.463,09 14.883,28 28/02/2023
603 301600 CRISTIANE GODINHO PIRES ANALISTA DO MP BETIM - COMARCA; BETIM-PJ-06PJ 20.574,59 6.172,38 0,00 0,00 0,00 0,00 490,36 7.260,39 34.497,72 4.060,46 5.369,43 0,00 0,00 9.429,89 25.067,83 28/02/2023
604 406100 CRISTIANE GONCALVES CHAVES ANALISTA DO MP BELO HORIZONTE - COMARCA; BH-14PJ DEFESA CONSUMIDOR-GAB 112PJ 16.695,70 6.678,28 0,00 0,00 0,00 0,00 0,00 1.911,00 25.284,98 3.520,79 4.590,27 0,00 0,00 8.111,06 17.173,92 28/02/2023
605 487600 CRISTIANE LOPES DE OLIVEIRA OFICIAL DO MP DIVINÓPOLIS - COMARCA; DIVINOPOLIS-PJ-03PJ 7.857,77 1.571,55 0,00 0,00 0,00 0,00 518,61 7.568,59 17.516,52 1.289,64 1.369,05 0,00 0,00 2.658,69 14.857,83 28/02/2023
606 502500 CRISTIANE MACIEL DE OLIVEIRA GOMES ANALISTA DO MP JUIZ DE FORA - COMARCA; JUIZ DE FORA-PJ-02PJ 11.008,33 2.201,67 0,00 0,00 0,00 0,00 532,80 8.608,70 22.351,50 1.894,55 2.242,39 0,00 0,00 4.136,94 18.214,56 28/02/2023
607 285500 CRISTIANE MAGALHAES LOURENCO ANALISTA DO MP BELO HORIZONTE - COMARCA; CENTRAL DE APOIO TECNICO-SETOR CONTABIL 20.574,59 6.172,38 0,00 0,00 0,00 0,00 490,36 7.260,39 34.497,72 4.060,46 5.317,29 0,00 0,00 9.377,75 25.119,97 28/02/2023
608 536500 CRISTIANE MICHELE DE SOUZA ANALISTA DO MP BARÃO DE COCAIS - COMARCA; BARAO DE COCAIS-PJ-UNPJ 11.008,33 1.100,83 0,00 0,00 0,00 0,00 0,00 1.911,00 14.020,16 1.718,41 1.883,82 0,00 0,00 3.602,23 10.417,93 28/02/2023
609 346600 CRISTIANE NOGUEIRA ANDRADE ANALISTA DO MP BELO HORIZONTE - COMARCA; CENTRAL DE APOIO TECNICO-SETOR CONTABIL 19.037,29 5.711,19 0,00 0,00 0,00 0,00 0,00 1.911,00 26.659,48 3.740,71 4.907,78 0,00 0,00 8.648,49 18.010,99 28/02/2023
610 234000 CRISTIANE OLIVEIRA TOSTES OFICIAL DO MP JUIZ DE FORA - COMARCA; JUIZ DE FORA-PJ-08PJ 16.695,70 6.678,28 0,00 0,00 0,00 0,00 0,00 2.796,30 26.170,28 3.520,79 4.590,27 0,00 0,00 8.111,06 18.059,22 28/02/2023
611 445800 CRISTIANE ORZIL COSTA OFICIAL DO MP SANTA LUZIA - COMARCA; SANTA LUZIA-PJ-05PJ 8.113,66 1.622,73 0,00 0,00 3.245,46 0,00 357,00 6.690,86 20.029,71 1.338,77 2.332,49 0,00 0,00 3.671,26 16.358,45 28/02/2023
612 616100 CRISTIANE PAES RODRIGUES MARCICANO ANALISTA DO MP CATAGUASES - COMARCA; CATAGUASES-PJ-05PJ 9.378,86 937,89 0,00 0,00 0,00 0,00 416,11 7.335,67 18.068,53 1.431,63 1.574,05 0,00 0,00 3.005,68 15.062,85 28/02/2023
613 612300 CRISTIANE RIBEIRO DOS REIS ARCANJO OFICIAL DO MP BELO HORIZONTE - COMARCA; DIRETORIA DE PAGAMENTO DE PESSOAL-DPAG 6.694,66 669,47 0,00 0,00 0,00 0,00 0,00 0,00 7.364,13 1.544,86 626,66 0,00 0,00 2.171,52 5.192,61 28/02/2023
614 257700 CRISTIANE RODRIGUES PAES NUNES ANALISTA DO MP BELO HORIZONTE - COMARCA; BH-22PJ PES COM DEF E IDOSOS-ORIENTACAO PSIC 20.574,59 8.229,84 0,00 0,00 0,00 0,00 528,08 8.557,19 37.889,70 4.389,66 5.792,56 0,00 0,00 10.182,22 27.707,48 28/02/2023
615 510800 CRISTIANE SANTOS FERNANDES ORNELES ANALISTA DO MP BELO HORIZONTE - COMARCA; BH-03PJ EMPRESARIAL-SECRETARIA 11.008,33 2.201,67 0,00 0,00 0,00 0,00 532,80 7.723,40 21.466,20 1.894,55 2.242,39 0,00 0,00 4.136,94 17.329,26 28/02/2023
616 535701 CRISTIANE SANTOS MIRANDA ANALISTA DO MP CONTAGEM - COMARCA; CONTAGEM-PJ-03PJ 9.223,00 922,30 0,00 0,00 0,00 0,00 0,00 1.911,00 12.056,30 1.404,20 1.534,44 0,00 0,00 2.938,64 9.117,66 28/02/2023
617 536200 CRISTIANO DE OLIVEIRA ANALISTA DO MP CONCEIÇÃO DO MATO DENTRO - COMARCA; CONCEICAO DO MATO DENTRO-PJ-UNPJ 11.008,33 1.100,83 0,00 0,00 0,00 0,00 133,20 5.134,70 17.377,06 1.718,41 1.935,96 0,00 0,00 3.654,37 13.722,69 28/02/2023
618 477400 CRISTIANO SOARES ELEUTERIO ANALISTA DO MP BELO HORIZONTE - COMARCA; GABINETE DE PROCURADOR DE JUSTIÇA - SALA 812 13.776,02 2.755,20 0,00 0,00 5.510,41 0,00 545,53 7.862,24 30.449,40 2.425,94 4.524,95 0,00 0,00 6.950,89 23.498,51 28/02/2023
619 449400 CRISTIANO TEIXEIRA RODRIGUES LANA ANALISTA DO MP BELO HORIZONTE - COMARCA; BH-18PJ VIOLENCIA DOMESTICA-SECRETARIA 12.118,97 2.423,79 0,00 0,00 0,00 0,00 533,23 7.728,10 22.804,09 2.107,79 2.550,26 0,00 0,00 4.658,05 18.146,04 28/02/2023
620 239400 CRISTINA DE FATIMA CRUZ E SILVA OFICIAL DO MP MONTE SANTO DE MINAS - COMARCA; MONTE SANTO DE MINAS-PJ-SECRETARIA 15.659,55 6.263,82 0,00 0,00 0,00 0,00 0,00 1.911,00 23.834,37 3.288,69 4.255,18 0,00 0,00 7.543,87 16.290,50 28/02/2023
621 544000 CRISTINA DE OLIVEIRA TERRA ANALISTA DO MP BELO HORIZONTE - COMARCA; BH-18PJ VIOLENCIA DOMESTICA-SECRETARIA 11.008,33 1.100,83 0,00 0,00 0,00 0,00 0,00 1.911,00 14.020,16 1.718,41 1.988,10 0,00 0,00 3.706,51 10.313,65 28/02/2023
622 356800 CRISTINA DE PINHO BARROSO OFICIAL DO MP SABINÓPOLIS - COMARCA; SABINOPOLIS-PJ-UNPJ 9.285,07 3.751,54 0,00 0,00 0,00 0,00 0,00 2.796,30 15.832,91 1.881,81 2.093,94 0,00 0,00 3.975,75 11.857,16 28/02/2023
623 649500 CRISTINA DO DIVINO ESPIRITO SANTOS OFICIAL DO MP DIVINÓPOLIS - COMARCA; DIVINOPOLIS-PJ-12PJ 5.889,39 588,94 0,00 0,00 0,00 0,00 47,51 2.429,27 8.955,11 824,08 685,56 0,00 0,00 1.509,64 7.445,47 28/02/2023
624 727100 CRISTINA DORNELLES CLARET ASSESSOR ADMINISTRATIVO III BELO HORIZONTE - COMARCA; CAO-MEIO AMBIENTE 0,00 0,00 9.684,23 0,00 0,00 0,00 0,00 1.911,00 11.595,23 877,22 1.919,14 0,00 0,00 2.796,36 8.798,87 28/02/2023
625 348201 CRISTINA MARIA DA SILVA ANALISTA DO MP ARAXÁ - COMARCA; ARAXA-PJ-06PJ 11.008,33 2.201,67 0,00 0,00 0,00 0,00 0,00 2.796,30 16.006,30 1.894,55 2.242,39 0,00 0,00 4.136,94 11.869,36 28/02/2023
626 434900 CRISTINA MELO DE MADUREIRA ANALISTA DO MP BELO HORIZONTE - COMARCA; BH-07PJ 01 TRIBUNAL JURI-SECRETARIA 16.169,47 3.233,89 0,00 0,00 0,00 0,00 0,00 1.911,00 21.314,36 2.885,49 3.673,05 0,00 0,00 6.558,54 14.755,82 28/02/2023
627 307700 CRISTINA TEIXEIRA MARQUES OFICIAL DO MP BELO HORIZONTE - COMARCA; CENTRAL DE APOIO TECNICO-SETOR CONTABIL 11.008,33 3.302,50 0,00 0,00 0,00 0,00 0,00 1.911,00 16.221,83 2.070,68 2.496,68 0,00 0,00 4.567,36 11.654,47 28/02/2023
628 265300 CRISTOVAO SANCHES DE MEDEIROS ANALISTA DO MP BELO HORIZONTE - COMARCA; DIRETORIA DE CONTABILIDADE 19.791,01 5.937,30 0,00 0,00 0,00 0,00 0,00 1.911,00 27.639,31 3.897,48 5.134,12 0,00 0,00 9.031,60 18.607,71 28/02/2023
629 349800 CROZEIR LUIZ DA SILVA OFICIAL DO MP UNAÍ - COMARCA; UNAI-PJ-SECRETARIA 11.008,33 3.302,50 0,00 0,00 0,00 0,00 524,73 8.421,30 23.256,86 2.070,68 2.444,54 0,00 0,00 4.515,22 18.741,64 28/02/2023
630 490500 CYNTHIA CRISTINA DE SOUZA OLIVEIRA VALENTE ANALISTA DO MP BELO HORIZONTE - COMARCA; BH-09PJ AUDITORIA MILITAR-SECRETARIA 11.008,33 2.201,67 0,00 0,00 0,00 0,00 532,80 7.723,40 21.466,20 1.894,55 2.242,39 0,00 0,00 4.136,94 17.329,26 28/02/2023
631 389800 CYNTHIA GARIGLIO DOS SANTOS OFICIAL DO MP PERDIZES - COMARCA; PERDIZES-PJ-SECRETARIA 9.684,23 1.936,85 0,00 0,00 0,00 0,00 0,00 1.911,00 13.532,08 1.640,32 1.718,94 0,00 0,00 3.359,26 10.172,82 28/02/2023
632 335101 CYNTHIA GONTIJO D ASSUNCAO ANALISTA DO MP BELO HORIZONTE - COMARCA; FEPDC-SECRETARIA EXECUTIVA 11.008,33 2.201,67 3.585,64 0,00 0,00 0,00 0,00 2.796,30 19.591,94 1.894,55 3.228,44 0,00 0,00 5.122,99 14.468,95 28/02/2023
633 269700 CYNTIA ROCHA CAVALCANTI OFICIAL DO MP UBERLÂNDIA - COMARCA; UBERLANDIA-PJ-06PJ 15.659,55 4.697,87 0,00 0,00 0,00 0,00 522,51 8.496,38 29.376,31 3.038,14 3.893,44 0,00 0,00 6.931,58 22.444,73 28/02/2023
634 278000 DAIRTON LOPES MARTINS FILHO COORDENADOR II BELO HORIZONTE - COMARCA; DIRETORIA DE SISTEMAS DE INFORMACAO 18.312,36 5.493,71 0,00 0,00 0,00 0,00 523,73 7.624,46 31.954,26 2.070,68 5.107,87 0,00 0,00 7.178,55 24.775,71 28/02/2023
635 392700 DALIANA CHAVES IBRAIM MARINHO OFICIAL DO MP ITAÚNA - COMARCA; ITAUNA-PJ-04PJ 8.377,76 1.675,55 0,00 0,00 0,00 0,00 516,07 7.540,85 18.110,23 1.389,48 1.513,19 0,00 0,00 2.902,67 15.207,56 28/02/2023
636 558101 DALLEY TASSIA SILVA ANALISTA DO MP MORADA NOVA DE MINAS - COMARCA; MORADA NOVA DE MINAS-PJ-UNPJ 10.325,15 1.032,52 0,00 0,00 0,00 0,00 0,00 2.796,30 14.153,97 1.598,18 1.710,23 0,00 0,00 3.308,41 10.845,56 28/02/2023
637 476700 DALTON DAUD ANALISTA DO MP ARAGUARI - COMARCA; ARAGUARI-PJ-05PJ 11.008,33 2.201,67 0,00 0,00 0,00 0,00 532,80 7.723,40 21.466,20 1.894,55 2.138,11 0,00 0,00 4.032,66 17.433,54 28/02/2023
638 426900 DANIEL ALVES DA SILVA OFICIAL DO MP BELO HORIZONTE - COMARCA; DIVISAO TRANSPORTES 6.694,66 1.338,93 0,00 0,00 0,00 0,00 530,22 7.695,18 16.258,99 1.066,32 942,36 0,00 0,00 2.008,68 14.250,31 28/02/2023
639 122000 DANIEL ANTONIO VIEIRA OFICIAL DO MP ENTRE-RIOS DE MINAS - COMARCA; ENTRE RIOS DE MINAS-PJ-SECRETARIA 11.008,33 8.806,67 0,00 0,00 0,00 0,00 0,00 1.911,00 21.726,00 2.951,35 3.559,59 0,00 0,00 6.510,94 15.215,06 28/02/2023
640 714000 DANIEL FERREIRA CAMARA ASSESSOR PROMOTOR JUSTICA RIBEIRÃO DAS NEVES - COMARCA; RIBEIRAO DAS NEVES-PJ-12PJ 0,00 0,00 7.857,77 0,00 0,00 0,00 0,00 1.911,00 9.768,77 877,22 1.416,87 0,00 0,00 2.294,09 7.474,68 28/02/2023
641 411000 DANIEL FERREIRA DA SILVA ANALISTA DO MP GOVERNADOR VALADARES - COMARCA; GOVERNADOR VALADARES-PJ-15PJ 15.659,55 6.263,82 0,00 0,00 0,00 0,00 0,00 4.124,25 26.047,62 3.288,69 4.046,63 0,00 0,00 7.335,32 18.712,30 28/02/2023
642 703500 DANIEL FILIPE DE DEUS SOARES ASSESSOR PROMOTOR JUSTICA ITABIRITO - COMARCA; ITABIRITO-PJ-02PJ 0,00 0,00 7.857,77 0,00 2.619,26 0,00 547,43 7.882,91 18.907,37 834,19 2.148,99 0,00 0,00 2.983,18 15.924,19 28/02/2023
643 309000 DANIEL GOMES DOS SANTOS ANALISTA DO MP POÇOS DE CALDAS - COMARCA; POCOS DE CALDAS-PJ-05PJ 20.574,59 6.172,38 0,00 0,00 0,00 0,00 490,36 7.260,39 34.497,72 4.060,46 5.369,43 0,00 0,00 9.429,89 25.067,83 28/02/2023
644 554500 DANIEL GOMES PEREIRA OFICIAL DO MP NANUQUE - COMARCA; NANUQUE-PJ-02PJ 6.694,66 669,47 0,00 0,00 0,00 0,00 540,04 7.802,30 15.706,47 959,93 891,80 0,00 0,00 1.851,73 13.854,74 28/02/2023
645 453000 DANIEL GONCALVES PEREIRA ANALISTA DO MP UNAÍ - COMARCA; UNAI-PJ-02PJ 11.008,33 2.201,67 0,00 0,00 0,00 0,00 532,80 9.936,65 23.679,45 1.894,55 2.242,39 0,00 0,00 4.136,94 19.542,51 28/02/2023
646 495500 DANIEL GUIMARAES CABRAL OFICIAL DO MP BELO HORIZONTE - COMARCA; BH-17PJ PATRIMONIO PUBLICO-SECRETARIA 8.932,15 1.786,43 0,00 0,00 0,00 0,00 78,60 3.653,79 14.450,97 1.495,92 1.666,87 0,00 0,00 3.162,79 11.288,18 28/02/2023
647 442900 DANIEL GUIMARAES GONCALVES ANALISTA DO MP UBERLÂNDIA - COMARCA; UBERLANDIA-PJ-03PJ 15.659,55 3.131,91 0,00 0,00 0,00 0,00 482,31 7.172,61 26.446,38 982,16 3.795,47 0,00 0,00 4.777,63 21.668,75 28/02/2023
648 655900 DANIEL LUIZ DA SILVA ASSESSOR ADMINISTRATIVO II BELO HORIZONTE - COMARCA; DIV FISCAL ADM CONT TERCEIRIZACAO 0,00 0,00 6.694,66 0,00 2.231,55 0,00 73,64 2.714,36 11.714,21 877,22 1.710,69 0,00 0,00 2.587,91 9.126,30 28/02/2023
649 464600 DANIEL PIACENTINI STIVANIN ANALISTA DO MP ANDRADAS - COMARCA; ANDRADAS-PJ-02PJ 11.008,33 2.201,67 0,00 0,00 0,00 0,00 145,31 3.496,20 16.851,51 1.894,55 2.242,39 0,00 0,00 4.136,94 12.714,57 28/02/2023
650 417000 DANIEL QUEIROZ FERREIRA ANALISTA DO MP PASSOS - COMARCA; PASSOS-PJ-06PJ 15.659,55 3.131,91 0,00 0,00 6.263,82 0,00 482,31 8.057,91 33.595,50 982,16 5.518,02 0,00 0,00 6.500,18 27.095,32 28/02/2023
651 396700 DANIEL SILVA CARNEVALLI SUPERINTENDENTE BELO HORIZONTE - COMARCA; SUPERINTENDENCIA DE TECNOLOGIA DA INFORMACAO 24.982,93 4.996,59 0,00 0,00 9.993,17 0,00 549,62 8.792,20 49.314,51 2.986,52 9.301,84 0,00 0,00 12.288,36 37.026,15 28/02/2023
652 489300 DANIEL TABOZA ROCHA ANALISTA DO MP IPATINGA - COMARCA; IPATINGA-PJ-08PJ 11.008,33 2.201,67 0,00 0,00 0,00 0,00 0,00 2.796,30 16.006,30 982,16 2.375,68 0,00 0,00 3.357,84 12.648,46 28/02/2023
653 414100 DANIEL TARDELI VALADAO ANALISTA DO MP TRÊS CORACOES - COMARCA; TRES CORACOES-PJ-02PJ 15.659,55 3.131,91 0,00 0,00 0,00 0,00 0,00 3.681,60 22.473,06 982,16 3.586,92 0,00 0,00 4.569,08 17.903,98 28/02/2023
654 731800 DANIEL VASCONCELOS ARAUJO SILVA ASSESSOR ADMINISTRATIVO IV BELO HORIZONTE - COMARCA; DIRETORIA DE REDES E BANCOS DE DADOS 0,00 0,00 12.920,95 0,00 0,00 0,00 0,00 1.911,00 14.831,95 877,22 2.809,24 0,00 0,00 3.686,46 11.145,49 28/02/2023
655 446601 DANIEL VIEIRA BUENO ANALISTA DO MP SÃO DOMINGOS DO PRATA - COMARCA; SAO DOMINGOS DO PRATA-PJ-UNPJ 11.008,33 1.100,83 0,00 0,00 0,00 0,00 0,00 2.796,30 14.905,46 1.718,41 1.935,96 0,00 0,00 3.654,37 11.251,09 28/02/2023
656 253200 DANIELA BATISTA LIMA BARBOSA ASSESSOR ADMINISTRATIVO II BELO HORIZONTE - COMARCA; CENTRAL DE APOIO TECN-SETOR DE MEIO AMBIENTE 0,00 2.677,86 6.694,66 0,00 0,00 0,00 0,00 1.911,00 11.283,52 877,22 1.833,42 0,00 0,00 2.710,64 8.572,88 28/02/2023
657 505800 DANIELA BORGES DE MATTOS RESENDE ANALISTA DO MP JUIZ DE FORA - COMARCA; JUIZ DE FORA-PJ-20PJ 11.008,33 2.201,67 0,00 0,00 0,00 0,00 532,80 7.723,40 21.466,20 1.894,55 2.242,39 0,00 0,00 4.136,94 17.329,26 28/02/2023
658 478000 DANIELA CARVALHO SOARES ANALISTA DO MP SÃO JOÃO DEL REI - COMARCA; SAO JOAO DEL REI-PJ-01PJ 11.008,33 2.201,67 0,00 0,00 0,00 0,00 0,00 1.911,00 15.121,00 1.894,55 2.242,39 0,00 0,00 4.136,94 10.984,06 28/02/2023
659 275900 DANIELA CHAGAS SODRE ANALISTA DO MP BELO HORIZONTE - COMARCA; CENTRAL DE APOIO TECNICO-SETOR CONTABIL 20.574,59 6.172,38 0,00 0,00 0,00 0,00 0,00 1.911,00 28.657,97 4.060,46 5.317,29 0,00 0,00 9.377,75 19.280,22 28/02/2023
660 234301 DANIELA CRUZ SOARES ANALISTA DO MP BELO HORIZONTE - COMARCA; LABORATORIO TECNOLOGIA INTELIGENCIA 20.574,59 8.229,84 0,00 0,00 0,00 0,00 528,08 7.671,89 37.004,40 4.389,66 5.844,70 0,00 0,00 10.234,36 26.770,04 28/02/2023
661 638000 DANIELA DE ALMEIDA BATISTA ANALISTA DO MP ANDRELÂNDIA - COMARCA; ANDRELANDIA-PJ-UNPJ 9.999,62 999,96 0,00 0,00 0,00 0,00 80,66 3.676,27 14.756,51 982,16 1.885,43 0,00 0,00 2.867,59 11.888,92 28/02/2023
662 301000 DANIELA DE ALMEIDA E OLIVEIRA ANALISTA DO MP BELO HORIZONTE - COMARCA; DIRETORIA DE SISTEMAS DE INFORMACAO 20.574,59 6.172,38 0,00 0,00 0,00 0,00 0,00 1.911,00 28.657,97 4.060,46 5.369,43 0,00 0,00 9.429,89 19.228,08 28/02/2023
663 296000 DANIELA DE AZEVEDO SILVA ANALISTA DO MP BRASÓPOLIS - COMARCA; BRASOPOLIS-PJ-UNPJ 20.574,59 8.229,84 0,00 0,00 0,00 0,00 0,00 1.911,00 30.715,43 4.389,66 5.844,70 0,00 0,00 10.234,36 20.481,07 28/02/2023
664 453500 DANIELA DE CASTRO SOUSA BARBOSA ANALISTA DO MP BELO HORIZONTE - COMARCA; BH-08PJ JUIZADO ESPECIAL-SECRETARIA 12.118,97 2.423,79 0,00 0,00 0,00 0,00 533,23 7.728,10 22.804,09 2.107,79 2.550,26 0,00 0,00 4.658,05 18.146,04 28/02/2023
665 506000 DANIELA DE OLIVEIRA CAVALIERI ANALISTA DO MP BELO HORIZONTE - COMARCA; BH-14PJ DEFESA CONSUMIDOR-GAB 005PJ 11.008,33 2.201,67 0,00 0,00 0,00 0,00 0,00 1.911,00 15.121,00 1.894,55 2.242,39 0,00 0,00 4.136,94 10.984,06 28/02/2023
666 546200 DANIELA DE VILHENA LEMES GONCALVES OFICIAL DO MP TRÊS CORACOES - COMARCA; TRES CORACOES-PJ-05PJ 6.694,66 669,47 0,00 0,00 2.454,71 0,00 540,04 7.802,30 18.161,18 959,93 1.462,57 0,00 0,00 2.422,50 15.738,68 28/02/2023
667 356400 DANIELA LEAL FERRAZ ANALISTA DO MP MONTES CLAROS - COMARCA; COORD REG PJ DEF EDUC DIR CRIANCA ADOL NORTE 18.312,36 5.493,71 0,00 0,00 0,00 0,00 523,73 7.624,46 31.954,26 3.589,92 4.690,08 0,00 0,00 8.280,00 23.674,26 28/02/2023
668 501000 DANIELA LOURENCO SANTOS DA SILVA GUIMARAES ANALISTA DO MP BELO HORIZONTE - COMARCA; BH-12PJ JUIZO CRIMINAL-GAB 095PJ 11.008,33 2.201,67 0,00 0,00 0,00 0,00 532,80 7.723,40 21.466,20 1.894,55 2.190,25 0,00 0,00 4.084,80 17.381,40 28/02/2023
669 195801 DANIELA MARIA DE OLIVEIRA QUEIROZ ANALISTA DO MP ARAGUARI - COMARCA; ARAGUARI-PJ-06PJ 16.169,47 6.467,79 0,00 0,00 0,00 0,00 0,00 1.911,00 24.548,26 3.402,91 4.420,09 0,00 0,00 7.823,00 16.725,26 28/02/2023
670 511400 DANIELA MARIA LARA DE OLIVEIRA ANALISTA DO MP BOA ESPERANÇA - COMARCA; BOA ESPERANCA-PJ-02PJ 11.008,33 2.201,67 0,00 0,00 0,00 0,00 532,80 8.608,70 22.351,50 1.894,55 2.190,25 0,00 0,00 4.084,80 18.266,70 28/02/2023
671 252101 DANIELA PAULA ALVES PENA ANALISTA DO MP CONTAGEM - COMARCA; CONTAGEM-PJ-APO TECNICO 16.695,70 6.678,28 0,00 0,00 0,00 0,00 514,23 7.520,76 31.408,97 3.520,79 4.590,27 0,00 0,00 8.111,06 23.297,91 28/02/2023
672 604700 DANIELA PEIXOTO NOGUEIRA COORDENADOR II BELO HORIZONTE - COMARCA; DIRET DE FORMACAO, APERFEIC. E POS-GRADUACAO 18.312,36 1.831,24 0,00 0,00 0,00 0,00 0,00 2.796,30 22.939,90 959,93 4.406,15 0,00 0,00 5.366,08 17.573,82 28/02/2023
673 662000 DANIELA RIBAS DE AVILA ASSESSOR ADMINISTRATIVO III BELO HORIZONTE - COMARCA; CENTRO AUTOCOMPOSICAO DE CONFLITOS 0,00 0,00 9.684,23 0,00 0,00 0,00 461,62 6.946,80 17.092,65 877,22 1.919,14 0,00 0,00 2.796,36 14.296,29 28/02/2023
674 462000 DANIELA SOUSA GOMES DO AMARAL ANALISTA DO MP BETIM - COMARCA; BETIM-PJ-04PJ 13.341,69 2.668,34 0,00 0,00 0,00 0,00 528,33 7.674,61 24.212,97 2.342,55 2.889,20 0,00 0,00 5.231,75 18.981,22 28/02/2023
675 427000 DANIELA TEIXEIRA DINIZ ANDRADE ANALISTA DO MP BELO HORIZONTE - COMARCA; DIRETORIA DE PROJETOS DE EDIFICACOES 11.736,91 2.347,38 3.585,64 0,00 0,00 0,00 0,00 1.911,00 19.580,93 2.034,43 3.378,27 0,00 0,00 5.412,70 14.168,23 28/02/2023
676 337200 DANIELA TOLEDO SENIUK ANALISTA DO MP BELO HORIZONTE - COMARCA; GABINETE DE PROCURADOR DE JUSTIÇA - SALA 412 20.574,59 6.172,38 0,00 0,00 8.915,66 0,00 490,36 7.260,39 43.413,38 4.060,46 7.821,24 0,00 0,00 11.881,70 31.531,68 28/02/2023
677 605600 DANIELE ALZIRA SILVA CABRAL MOREIRA OFICIAL DO MP BELO HORIZONTE - COMARCA; BH-10PJ EXECUÇÃO PENAL-SECRETARIA 6.694,66 669,47 0,00 0,00 0,00 0,00 0,00 1.911,00 9.275,13 959,93 891,80 0,00 0,00 1.851,73 7.423,40 28/02/2023
678 195500 DANIELE CHAVES FONSECA OFICIAL DO MP BELO HORIZONTE - COMARCA; EXTINTA-CGMP-DIV APOIO FISC ORIENT FUNCIONAL 18.312,36 7.324,94 0,00 0,00 0,00 0,00 470,02 7.038,46 33.145,78 3.882,92 5.113,09 0,00 0,00 8.996,01 24.149,77 28/02/2023
679 323400 DANIELE MEGALE SANTINI OFICIAL DO MP BELO HORIZONTE - COMARCA; EXTINTA-CGMP-DIV APOIO FISC ORIENT FUNCIONAL 12.118,97 3.635,69 0,00 0,00 0,00 0,00 519,90 7.582,68 23.857,24 2.301,69 2.778,07 0,00 0,00 5.079,76 18.777,48 28/02/2023
680 357900 DANIELE REJANE PINTO VERSIEUX OFICIAL DO MP PEDRO LEOPOLDO - COMARCA; PEDRO LEOPOLDO-PJ-03PJ 11.008,33 3.302,50 0,00 0,00 4.770,28 0,00 524,73 7.635,33 27.241,17 2.070,68 3.808,51 0,00 0,00 5.879,19 21.361,98 28/02/2023
681 389500 DANIELE VASCONCELOS AMORIM OFICIAL DO MP SÃO SEBASTIÃO DO PARAÍSO - COMARCA; SAO SEBASTIAO DO PARAISO-PJ-04PJ 11.008,33 2.201,67 0,00 0,00 0,00 0,00 0,00 1.911,00 15.121,00 1.894,55 2.242,39 0,00 0,00 4.136,94 10.984,06 28/02/2023
682 629700 DANIELLA BASTOS MARTINS BICALHO OFICIAL DO MP GOVERNADOR VALADARES - COMARCA; GOVERNADOR VALADARES-PJ-16PJ 6.694,66 669,47 0,00 0,00 0,00 0,00 135,01 3.383,83 10.882,97 959,93 891,80 0,00 0,00 1.851,73 9.031,24 28/02/2023
683 725500 DANIELLE CAMILE OLIVEIRA FONSECA ASSESSOR PROCURADOR JUSTICA BELO HORIZONTE - COMARCA; GABINETE DE PROCURADOR DE JUSTIÇA - SALA 501 0,00 0,00 7.857,77 0,00 0,00 0,00 0,00 1.911,00 9.768,77 877,22 1.416,87 0,00 0,00 2.294,09 7.474,68 28/02/2023
684 265000 DANIELLE CASTANHEIRA SCALABRINI OFICIAL DO MP BELO HORIZONTE - COMARCA; JUNTA RECURSAL DO PROCON ESTADUAL 11.008,33 3.302,50 0,00 0,00 0,00 0,00 0,00 1.911,00 16.221,83 2.070,68 2.444,54 0,00 0,00 4.515,22 11.706,61 28/02/2023
685 490100 DANIELLE DE AVILA SILVA LOPES ANALISTA DO MP BELO HORIZONTE - COMARCA; PROC. JUSTICA DIR. DIFUSOS E COLETIVOS-SEC 11.008,33 3.302,50 0,00 0,00 0,00 0,00 0,00 2.796,30 17.107,13 2.070,68 2.496,68 0,00 0,00 4.567,36 12.539,77 28/02/2023
686 711100 DANIELLE DOMINGOS LOPES DE MELO ASSESSOR PROCURADOR JUSTICA BELO HORIZONTE - COMARCA; GABINETE DE PROCURADOR DE JUSTIÇA - SALA 703 0,00 0,00 7.857,77 0,00 2.619,26 0,00 547,43 7.882,91 18.907,37 834,19 2.148,99 0,00 0,00 2.983,18 15.924,19 28/02/2023
687 549600 DANIELLE GOMES LOPES RODRIGUES OFICIAL DO MP VESPASIANO - COMARCA; VESPASIANO-PJ-02PJ 6.694,66 669,47 0,00 0,00 0,00 0,00 0,00 1.911,00 9.275,13 959,93 891,80 0,00 0,00 1.851,73 7.423,40 28/02/2023
688 613000 DANIELLE SILVA OLIVEIRA FRANKLIN ASSESSOR ADMINISTRATIVO IV BELO HORIZONTE - COMARCA; DIRETORIA DE ORCAMENTO-DIOR/SPC 12.920,95 1.292,10 0,00 0,00 0,00 0,00 364,80 6.775,95 21.353,80 1.037,19 2.754,00 0,00 0,00 3.791,19 17.562,61 28/02/2023
689 722800 DANIELLE VALENTIM SOUZA ASSESSOR PROCURADOR JUSTICA BELO HORIZONTE - COMARCA; GABINETE DE PROCURADOR DE JUSTIÇA - SALA 606 0,00 0,00 7.857,77 0,00 2.619,26 0,00 0,00 1.911,00 12.388,03 877,22 2.137,16 0,00 0,00 3.014,38 9.373,65 28/02/2023
690 380800 DANILLO RIBEIRO ANTUNES ANALISTA DO MP MONTES CLAROS - COMARCA; MONTES CLAROS-PJ-SECRETARIA 16.695,70 3.339,14 0,00 0,00 0,00 0,00 1.580,00 1.911,00 23.525,84 2.986,52 4.201,29 0,00 0,00 7.187,81 16.338,03 28/02/2023
691 453700 DANILO BOTELHO DE CARVALHO SUPERINTENDENTE BELO HORIZONTE - COMARCA; SUPERINTENDENCIA DE FINANCAS 24.982,93 4.996,59 0,00 0,00 0,00 0,00 549,62 7.906,90 38.436,04 2.787,58 6.608,42 0,00 0,00 9.396,00 29.040,04 28/02/2023
692 391200 DANILO D'AVILA MENDES ANALISTA DO MP MONTES CLAROS - COMARCA; GAECO REGIONAL DE MONTES CLAROS 16.695,70 3.339,14 0,00 0,00 0,00 0,00 514,23 8.406,06 28.955,13 2.986,52 3.818,93 0,00 0,00 6.805,45 22.149,68 28/02/2023
693 710900 DANILO DE SOUZA RODRIGUES ASSESSOR PROMOTOR JUSTICA IPANEMA - COMARCA; IPANEMA-PJ-01PJ 0,00 0,00 7.857,77 0,00 2.619,26 0,00 172,87 3.796,86 14.446,76 877,22 2.137,16 0,00 0,00 3.014,38 11.432,38 28/02/2023
694 494900 DANILO GAVIAO AVELINO DE MELLO ANALISTA DO MP POUSO ALEGRE - COMARCA; GAECO REGIONAL DE POUSO ALEGRE 11.008,33 2.201,67 0,00 0,00 0,00 0,00 532,80 7.723,40 21.466,20 1.894,55 2.242,39 0,00 0,00 4.136,94 17.329,26 28/02/2023
695 604300 DANILO NASCIMENTO SALGADO ANALISTA DO MP JANAÚBA - COMARCA; JANAUBA-PJ-01PJ 11.008,33 1.100,83 0,00 0,00 0,00 0,00 222,00 4.332,83 16.663,99 1.718,41 1.988,10 0,00 0,00 3.706,51 12.957,48 28/02/2023
696 298300 DANUZA MONICA DE SOUZA DINIZ ANALISTA DO MP BELO HORIZONTE - COMARCA; CAO-FUNDACOES-ASSESSORIA JURIDICA 19.791,01 5.937,30 0,00 0,00 0,00 0,00 471,69 7.056,66 33.256,66 3.897,48 5.081,98 0,00 0,00 8.979,46 24.277,20 28/02/2023
697 398700 DARCY LUIZ MILEO GREGATTI OFICIAL DO MP LAMBARI - COMARCA; LAMBARI-PJ-SECRETARIA 10.661,25 2.132,25 0,00 0,00 0,00 0,00 0,00 1.911,00 14.704,50 1.827,91 2.146,18 0,00 0,00 3.974,09 10.730,41 28/02/2023
698 406200 DARIANA AUGUSTA DE TOLEDO PATROCINIO RUIZ COORDENADOR II BELO HORIZONTE - COMARCA; DIRETORIA GESTAO COMPRAS LICITACOES 18.312,36 3.662,47 0,00 0,00 0,00 0,00 483,45 8.070,26 30.528,54 1.894,55 4.652,72 0,00 0,00 6.547,27 23.981,27 28/02/2023
699 586901 DARIO VITORINO DE CARVALHO SILVA ASSESSOR ADM. ESPECIAL BELO HORIZONTE - COMARCA; DIRETORIA DE SEGURANCA 0,00 0,00 24.982,93 0,00 0,00 0,00 549,62 7.906,90 33.439,45 877,22 6.074,15 0,00 0,00 6.951,37 26.488,08 28/02/2023
700 305000 DARLI LEITE DE OLIVEIRA OFICIAL DO MP ARAÇUAÍ - COMARCA; ARACUAI-PJ-01PJ 6.694,66 2.008,40 0,00 0,00 2.901,02 0,00 542,49 7.829,08 19.975,65 1.173,44 1.842,65 0,00 0,00 3.016,09 16.959,56 28/02/2023
701 729400 DAVI PIMENTA ASSESSOR PROMOTOR JUSTICA CANDEIAS - COMARCA; CANDEIAS-PJ-UNPJ 0,00 0,00 7.857,77 0,00 0,00 0,00 0,00 1.911,00 9.768,77 877,22 1.416,87 0,00 0,00 2.294,09 7.474,68 28/02/2023
702 122200 DAVID RIBEIRO DOS SANTOS ANALISTA DO MP BORDA DA MATA - COMARCA; BORDA DA MATA-PJ-UNPJ 20.574,59 20.574,59 0,00 0,00 0,00 5.454,90 520,11 7.584,96 54.709,15 5.454,90 8.882,75 5.686,96 0,00 20.024,61 34.684,54 28/02/2023
703 389400 DAWSON CANEDO MARQUES OFICIAL DO MP POUSO ALEGRE - COMARCA; POUSO ALEGRE-PJ-SECRETARIA 11.008,33 2.201,67 0,00 0,00 0,00 0,00 532,80 8.608,70 22.351,50 1.894,55 1.383,07 0,00 0,00 3.277,62 19.073,88 28/02/2023
704 537200 DAYANE TEIXEIRA DE OLIVEIRA CASELLI ANALISTA DO MP BELO HORIZONTE - COMARCA; ASSESS TECNICO-JUR JUNTO AS PROC. DE JUST 9.223,00 922,30 0,00 0,00 0,00 0,00 0,00 1.911,00 12.056,30 1.404,20 1.534,44 0,00 0,00 2.938,64 9.117,66 28/02/2023
705 256100 DAYSE ROSALY PEREIRA BATISTA OFICIAL DO MP BELO HORIZONTE - COMARCA; BH-08PJ JUIZADO ESPECIAL-SECRETARIA 11.008,33 4.403,33 0,00 0,00 0,00 0,00 282,55 4.993,33 20.687,54 2.246,81 2.750,97 0,00 0,00 4.997,78 15.689,76 28/02/2023
706 311901 DEBORA APARECIDA DA SILVA ASSESSOR ADMINISTRATIVO I BELO HORIZONTE - COMARCA; BH-23PJ CIVEL-SETOR ATEND PUB 0,00 0,00 4.345,58 0,00 0,00 0,00 0,00 1.911,00 6.256,58 621,17 521,42 0,00 0,00 1.142,59 5.113,99 28/02/2023
707 194301 DEBORA APARECIDA DOS SANTOS ANALISTA DO MP UBERLÂNDIA - COMARCA; UBERLANDIA-PJ-SEC FAMILIA 20.574,59 8.229,84 0,00 0,00 0,00 0,00 528,08 7.671,89 37.004,40 4.389,66 5.844,70 0,00 0,00 10.234,36 26.770,04 28/02/2023
708 518800 DEBORA CARVALHO FIORATTO COORDENADOR II BELO HORIZONTE - COMARCA; DIRETORIA MATERIAIS E SERVICOS 18.312,36 3.662,47 0,00 0,00 7.324,94 0,00 483,45 7.184,96 36.968,18 1.441,84 6.791,57 0,00 0,00 8.233,41 28.734,77 28/02/2023
709 444900 DEBORA CLAUDIA PEREIRA ALVES ANALISTA DO MP BELO HORIZONTE - COMARCA; BH-08PJ JUIZADO ESPECIAL-SECRETARIA 12.118,97 2.423,79 0,00 0,00 0,00 0,00 533,23 7.728,10 22.804,09 2.107,79 2.550,26 0,00 0,00 4.658,05 18.146,04 28/02/2023
710 617700 DEBORA COMANDUCI SCHREIDER ANALISTA DO MP BICAS - COMARCA; BICAS-PJ-UNPJ 10.325,15 1.032,52 0,00 0,00 0,00 0,00 0,00 1.911,00 13.268,67 1.598,18 1.762,36 0,00 0,00 3.360,54 9.908,13 28/02/2023
711 555700 DEBORA CRISTINA BUITRAGO PEREIRA ANALISTA DO MP BELO HORIZONTE - COMARCA; DIRETORIA GESTAO CONTRATOS CONVENIOS 11.008,33 1.100,83 3.585,64 0,00 0,00 0,00 0,00 2.796,30 18.491,10 1.718,41 2.974,15 0,00 0,00 4.692,56 13.798,54 28/02/2023
712 513100 DEBORA CRISTINA PEREIRA DE OLIVEIRA ANALISTA DO MP BELO HORIZONTE - COMARCA; BH-23PJ CIVEL-SETOR JURIDICO 12.118,97 2.423,79 0,00 0,00 0,00 0,00 266,62 6.147,50 20.956,88 2.107,79 2.550,26 0,00 0,00 4.658,05 16.298,83 28/02/2023
713 612100 DEBORA DUARTE SILVA DE SOUZA OFICIAL DO MP RIBEIRÃO DAS NEVES - COMARCA; RIBEIRAO DAS NEVES-PJ-06PJ 6.694,66 2.677,86 0,00 0,00 0,00 0,00 0,00 1.911,00 11.283,52 1.280,55 1.251,66 0,00 0,00 2.532,21 8.751,31 28/02/2023
714 717500 DEBORA ENDREFFY ORSI PARENZI ASSESSOR PROMOTOR JUSTICA MATEUS LEME - COMARCA; MATEUS LEME-PJ-01PJ 0,00 0,00 7.857,77 0,00 0,00 0,00 0,00 1.911,00 9.768,77 877,22 1.416,87 0,00 0,00 2.294,09 7.474,68 28/02/2023
715 539700 DEBORA SALES CARVALHO ANALISTA DO MP PATOS DE MINAS - COMARCA; COORD REG PJ DEF EDU DIR CRI ADO AL PAR NOROE 11.008,33 1.100,83 0,00 0,00 0,00 0,00 0,00 1.911,00 14.020,16 982,16 2.095,65 0,00 0,00 3.077,81 10.942,35 28/02/2023
716 424100 DEBORA SANTOS E ALVES ANALISTA DO MP JANUÁRIA - COMARCA; JANUARIA-PJ-01PJ 16.169,47 3.233,89 0,00 0,00 0,00 0,00 498,02 8.229,24 28.130,62 2.885,49 3.673,05 0,00 0,00 6.558,54 21.572,08 28/02/2023
717 426301 DEBORA SCUCATO MACHADO SOARES OFICIAL DO MP ITABIRA - COMARCA; ITABIRA-PJ-SECRETARIA 6.694,66 1.338,93 0,00 0,00 2.677,86 0,00 176,74 4.724,36 15.612,55 1.066,32 1.783,05 0,00 0,00 2.849,37 12.763,18 28/02/2023
718 678100 DEBORA SOUZA COSTA ASSESSOR PROMOTOR JUSTICA BOTELHOS - COMARCA; BOTELHOS-PJ-UNPJ 0,00 0,00 7.857,77 0,00 0,00 0,00 0,00 1.911,00 9.768,77 877,22 1.364,73 0,00 0,00 2.241,95 7.526,82 28/02/2023
719 550200 DEBORA TRINDADE LEITE ANALISTA DO MP MANHUAÇU - COMARCA; MANHUACU-PJ-05PJ 11.008,33 1.100,83 0,00 0,00 0,00 0,00 0,00 1.911,00 14.020,16 1.718,41 1.883,82 0,00 0,00 3.602,23 10.417,93 28/02/2023
720 438000 DEBORAH COSTA LAGE ANALISTA DO MP BELO HORIZONTE - COMARCA; PROC JUST ATUACAO TRIBUNAIS SUPERIORES-GAB006 16.169,47 3.233,89 0,00 0,00 0,00 0,00 0,00 1.911,00 21.314,36 2.885,49 3.673,05 0,00 0,00 6.558,54 14.755,82 28/02/2023
721 613700 DEISER MARIA FERREIRA ROSCOE OFICIAL DO MP BELO HORIZONTE - COMARCA; DIVISÃO DE EDUCAÇÃO PARA O CONSUMO 6.694,66 669,47 0,00 0,00 0,00 0,00 135,01 3.383,83 10.882,97 959,93 891,80 0,00 0,00 1.851,73 9.031,24 28/02/2023
722 551900 DEISY ROCHA DA SILVA ANALISTA DO MP CARMO DO PARANAÍBA - COMARCA; CARMO DO PARANAIBA-PJ-01PJ 11.008,33 1.100,83 0,00 0,00 0,00 0,00 0,00 1.911,00 14.020,16 1.718,41 1.935,96 0,00 0,00 3.654,37 10.365,79 28/02/2023
723 501900 DELI RAQUEL RODRIGUES ANALISTA DO MP ITUIUTABA - COMARCA; ITUIUTABA-PJ-04PJ 11.008,33 2.201,67 0,00 0,00 0,00 0,00 0,00 1.911,00 15.121,00 1.894,55 2.242,39 0,00 0,00 4.136,94 10.984,06 28/02/2023
724 378600 DELIANE LOPES VIEIRA BREIJAO ANALISTA DO MP JUIZ DE FORA - COMARCA; JUIZ DE FORA-PJ-14PJ 16.695,70 3.339,14 0,00 0,00 0,00 0,00 514,23 7.520,76 28.069,83 2.986,52 3.766,79 0,00 0,00 6.753,31 21.316,52 28/02/2023
725 730100 DELIENE FRACETE GUTIERREZ ASSESSOR ADMINISTRATIVO I TEÓFILO OTONI - COMARCA; COORD REG APOIO COM INC MOB SOC VALE MUCURI 0,00 0,00 4.345,58 0,00 0,00 0,00 0,00 1.911,00 6.256,58 621,17 521,42 0,00 0,00 1.142,59 5.113,99 28/02/2023
726 487700 DENIA FERREIRA MAIA SILVA OFICIAL DO MP TRÊS CORACOES - COMARCA; TRES CORACOES-PJ-04PJ 7.137,75 1.427,55 0,00 0,00 0,00 0,00 471,09 7.050,18 16.086,57 1.151,40 1.065,19 0,00 0,00 2.216,59 13.869,98 28/02/2023
727 726300 DENILZA RODRIGUES MORAES ASSESSOR ADMINISTRATIVO I BELO HORIZONTE - COMARCA; CENT DE ATENDIMENTO AS PROMOTORIAS DE JUSTICA 0,00 0,00 4.345,58 0,00 0,00 0,00 0,00 1.911,00 6.256,58 621,17 521,42 0,00 0,00 1.142,59 5.113,99 28/02/2023
728 424800 DENIS APARECIDO CAMPOS DELFINO ANALISTA DO MP LUZ - COMARCA; LUZ-PJ-UNPJ 15.659,55 3.131,91 0,00 0,00 0,00 0,00 482,31 7.172,61 26.446,38 2.787,58 3.323,16 0,00 0,00 6.110,74 20.335,64 28/02/2023
729 381400 DENISE ANGELICA MELLO DE PAULA OFICIAL DO MP BELO HORIZONTE - COMARCA; BH-18PJ DIREITOS HUMANOS-SECRETARIA 11.008,33 2.201,67 3.876,29 0,00 0,00 0,00 0,00 2.796,30 19.882,59 1.894,55 3.308,37 0,00 0,00 5.202,92 14.679,67 28/02/2023
730 702100 DENISE CANDIDO LIMA MACEDO KATOPODIS ASSESSOR PROCURADOR JUSTICA BELO HORIZONTE - COMARCA; GABINETE DE PROCURADOR DE JUSTIÇA - SALA 305 0,00 0,00 7.857,77 0,00 0,00 0,00 0,00 1.911,00 9.768,77 877,22 1.416,87 0,00 0,00 2.294,09 7.474,68 28/02/2023
731 196300 DENISE DE ALMEIDA VILELA FURTADO OFICIAL DO MP BELO HORIZONTE - COMARCA; CENTRAL DE APOIO TECNICO-SECRETARIA 18.312,36 7.324,94 0,00 0,00 0,00 0,00 0,00 3.238,95 28.876,25 3.882,92 5.113,09 0,00 0,00 8.996,01 19.880,24 28/02/2023
732 271100 DENISE ELOY PEIXOTO OFICIAL DO MP BELO HORIZONTE - COMARCA; DIRETORIA DE INTELIGENCIA 15.659,55 4.697,87 0,00 0,00 0,00 0,00 522,51 7.611,08 28.491,01 3.038,14 3.893,44 0,00 0,00 6.931,58 21.559,43 28/02/2023
733 385400 DENISE FREITAS DE ASSIS OFICIAL DO MP CARATINGA - COMARCA; CARATINGA-PJ-SECRETARIA 9.999,62 1.999,92 2.679,65 0,00 0,00 0,00 538,24 7.782,68 23.000,11 1.700,87 2.699,68 0,00 0,00 4.400,55 18.599,56 28/02/2023
734 437100 DENISE NOGUEIRA MAGRI MENDES ANALISTA DO MP BELO HORIZONTE - COMARCA; LAB TECNOLOGIA CONTRA LAVAGEM DINHEIRO 16.169,47 6.467,79 0,00 0,00 0,00 0,00 0,00 1.911,00 24.548,26 3.402,91 4.315,81 0,00 0,00 7.718,72 16.829,54 28/02/2023
735 524700 DENISE RAMOS GUIMARAES OFICIAL DO MP BELO HORIZONTE - COMARCA; BH-07PJ 01 TRIBUNAL JURI-SECRETARIA 6.694,66 1.338,93 0,00 0,00 0,00 0,00 0,00 1.911,00 9.944,59 1.066,32 1.046,64 0,00 0,00 2.112,96 7.831,63 28/02/2023
736 239100 DENISE RIBEIRO DOS SANTOS CAETANO OFICIAL DO MP ITANHANDU - COMARCA; ITANHANDU-PJ-SECRETARIA 15.659,55 6.263,82 0,00 0,00 0,00 0,00 482,31 7.172,61 29.578,29 3.288,69 4.203,04 0,00 0,00 7.491,73 22.086,56 28/02/2023
737 325500 DENISE ROSA TORRES OFICIAL DO MP BELO HORIZONTE - COMARCA; DIRETORIA DE PESSOAL ADMINISTRATIVO - DPAD 12.118,97 3.635,69 0,00 0,00 0,00 0,00 519,90 7.582,68 23.857,24 2.301,69 2.830,21 0,00 0,00 5.131,90 18.725,34 28/02/2023
738 437200 DENISE VIVIANE DOS SANTOS ANALISTA DO MP BELO HORIZONTE - COMARCA; CGMP-ASSESSORIA JURIDICA 13.776,02 2.755,20 0,00 0,00 0,00 0,00 545,53 9.190,19 26.266,94 2.425,94 2.957,45 0,00 0,00 5.383,39 20.883,55 28/02/2023
739 267900 DENISIA ALMEIDA SALES OFICIAL DO MP BELO HORIZONTE - COMARCA; BH-18PJ DIREITOS HUMANOS-SECRETARIA 11.008,33 3.302,50 0,00 0,00 0,00 0,00 524,73 7.635,33 22.470,89 2.070,68 2.444,54 0,00 0,00 4.515,22 17.955,67 28/02/2023
740 480300 DESIREE ARANTES FERREIRA GOUVEA OFICIAL DO MP PRATÁPOLIS - COMARCA; PRATAPOLIS-PJ-UNPJ 6.694,66 1.338,93 0,00 0,00 0,00 1.066,32 0,00 1.911,00 11.010,91 1.066,32 1.339,88 0,00 0,00 2.406,20 8.604,71 28/02/2023
741 355300 DEYSE CRISTINA MORAIS OFICIAL DO MP PASSOS - COMARCA; PASSOS-PJ-02PJ 11.008,33 3.302,50 0,00 0,00 0,00 0,00 524,73 7.635,33 22.470,89 2.070,68 2.496,68 0,00 0,00 4.567,36 17.903,53 28/02/2023
742 523700 DIANA CAMPOS RESENDE OFICIAL DO MP SÃO JOÃO DEL REI - COMARCA; SAO JOAO DEL REI-PJ-04PJ 8.650,50 6.055,35 0,00 0,00 0,00 0,00 539,21 7.793,34 23.038,40 2.133,88 2.535,79 0,00 0,00 4.669,67 18.368,73 28/02/2023
743 241900 DIANA CARDOSO MARTINS OFICIAL DO MP BELO HORIZONTE - COMARCA; CAO-CRIMINAL 11.008,33 4.403,33 0,00 0,00 0,00 0,00 0,00 1.911,00 17.322,66 2.246,81 2.750,97 0,00 0,00 4.997,78 12.324,88 28/02/2023
744 410100 DIANA GORDILHO SILVEIRA SENA ANALISTA DO MP BELO HORIZONTE - COMARCA; BH-06PJ JUIZO CIVEL-SECRETARIA 16.169,47 3.233,89 0,00 0,00 0,00 0,00 498,02 7.343,94 27.245,32 2.885,49 3.673,05 0,00 0,00 6.558,54 20.686,78 28/02/2023
745 553000 DIANA MARIA MARQUES ANALISTA DO MP BETIM - COMARCA; BETIM-PJ-07PJ 11.008,33 1.100,83 0,00 0,00 0,00 0,00 0,00 1.911,00 14.020,16 1.718,41 1.935,96 0,00 0,00 3.654,37 10.365,79 28/02/2023
746 520000 DIARLE TOSTE DOS SANTOS ANALISTA DO MP RIO POMBA - COMARCA; RIO POMBA-PJ-UNPJ 11.008,33 2.201,67 0,00 0,00 0,00 0,00 532,80 7.723,40 21.466,20 1.894,55 1.526,29 0,00 0,00 3.420,84 18.045,36 28/02/2023
747 539800 DIEGO CAMARGOS RODRIGUES OFICIAL DO MP CONTAGEM - COMARCA; CONTAGEM-PJ-05PJ 6.694,66 669,47 0,00 0,00 0,00 0,00 0,00 1.911,00 9.275,13 959,93 891,80 0,00 0,00 1.851,73 7.423,40 28/02/2023
748 607300 DIEGO CERVEIRA DE SOUZA ANALISTA DO MP PATOS DE MINAS - COMARCA; COORD REG BACIAS PARACATU,URUCUIA E ABAETE 11.008,33 1.100,83 0,00 0,00 4.036,39 0,00 532,80 7.723,40 24.401,75 982,16 3.205,66 0,00 0,00 4.187,82 20.213,93 28/02/2023
749 446900 DIEGO DE FREITAS OFICIAL DO MP UBERABA - COMARCA; UBERABA-PJ-06PJ 9.378,86 1.875,77 0,00 0,00 0,00 0,00 495,20 7.313,22 19.063,05 1.581,69 1.790,70 0,00 0,00 3.372,39 15.690,66 28/02/2023
750 288800 DILENE NEPOMUCENO ALVES OFICIAL DO MP BELO HORIZONTE - COMARCA; DIRETORIA DE PESSOAL ADMINISTRATIVO - DPAD 11.008,33 3.302,50 0,00 0,00 0,00 0,00 0,00 1.911,00 16.221,83 2.070,68 2.496,68 0,00 0,00 4.567,36 11.654,47 28/02/2023
751 681200 DILLIANY PAULA LOPES SERRANO ASSESSOR PROMOTOR JUSTICA RESPLENDOR - COMARCA; RESPLENDOR-PJ-UNPJ 0,00 0,00 7.857,77 0,00 0,00 0,00 172,87 4.682,16 12.712,80 877,22 1.416,87 0,00 0,00 2.294,09 10.418,71 28/02/2023
752 270101 DILSON DO AMARAL ANALISTA DO MP RIO CASCA - COMARCA; RIO CASCA-PJ-UNPJ 11.008,33 1.100,83 0,00 0,00 0,00 0,00 0,00 1.911,00 14.020,16 1.718,41 1.988,10 0,00 0,00 3.706,51 10.313,65 28/02/2023
753 466000 DIMITRI GUDE MARCIAL ANALISTA DO MP NANUQUE - COMARCA; NANUQUE-PJ-02PJ 11.008,33 2.201,67 0,00 0,00 0,00 0,00 532,80 9.494,00 23.236,80 1.894,55 2.085,98 0,00 0,00 3.980,53 19.256,27 28/02/2023
754 516300 DINORA APARECIDA MACEDO BRANDAO ANALISTA DO MP BELO HORIZONTE - COMARCA; BH-19PJ SAUDE-SECRETARIA 150PJ 11.008,33 2.201,67 0,00 0,00 0,00 0,00 193,75 4.024,60 17.428,35 1.894,55 2.242,39 0,00 0,00 4.136,94 13.291,41 28/02/2023
755 511700 DIOGENES HENRIQUES PEREIRA LOURENCO ANALISTA DO MP BELO HORIZONTE - COMARCA; BH-03PJ EMPRESARIAL-SECRETARIA 11.008,33 2.201,67 0,00 0,00 0,00 0,00 532,80 8.608,70 22.351,50 982,16 2.375,68 0,00 0,00 3.357,84 18.993,66 28/02/2023
756 604100 DIOGO CESAR DE OLIVEIRA HONORIO ASSESSOR ADMINISTRATIVO III PIUMHI - COMARCA; PIUMHI-PJ-02PJ 0,00 0,00 9.684,23 0,00 0,00 0,00 0,00 7.721,54 17.405,77 877,22 1.919,14 0,00 0,00 2.796,36 14.609,41 28/02/2023
757 259600 DIOGO MESQUITA MAIA ANALISTA DO MP BELO HORIZONTE - COMARCA; DIRET DE APOIO AS PROCURADORIAS DE JUSTICA 19.791,01 17.811,91 0,00 0,00 0,00 5.454,90 520,11 7.584,96 51.162,89 5.454,90 8.830,61 2.140,70 0,00 16.426,21 34.736,68 28/02/2023
758 386700 DIRCIMAR FERNANDES CARNEIRO OFICIAL DO MP VISCONDE DO RIO BRANCO - COMARCA; VISCONDE DO RIO BRANCO-PJ-03PJ 11.008,33 7.705,83 0,00 0,00 0,00 0,00 548,95 7.899,53 27.162,64 2.775,21 3.513,85 0,00 0,00 6.289,06 20.873,58 28/02/2023
759 113800 DIRSON APARECIDO GUIMARAES ASSESSOR ADMINISTRATIVO II BELO HORIZONTE - COMARCA; DIVISAO DE MANUTENCAO PREDIAL 0,00 6.694,66 6.694,66 0,00 0,00 0,00 0,00 1.911,00 15.300,32 877,22 2.938,04 0,00 0,00 3.815,26 11.485,06 28/02/2023
760 216700 DOMICIO VALDETE PEREIRA OFICIAL DO MP TEÓFILO OTONI - COMARCA; COORD REG PJ DEF EDU DIR CRIAN ADOL JEQUI MUC 18.312,36 7.324,94 0,00 0,00 0,00 0,00 470,02 7.038,46 33.145,78 3.882,92 5.008,82 0,00 0,00 8.891,74 24.254,04 28/02/2023
761 192701 DONIZETTI APARECIDO AMORIM ANALISTA DO MP PRATÁPOLIS - COMARCA; PRATAPOLIS-PJ-UNPJ 11.008,33 4.403,33 0,00 0,00 0,00 0,00 0,00 1.911,00 17.322,66 2.246,81 2.698,84 0,00 0,00 4.945,65 12.377,01 28/02/2023
762 558700 DORCILIA FATIMA DE OLIVEIRA OFICIAL DO MP DIVINÓPOLIS - COMARCA; DIVINOPOLIS-PJ-02PJ 6.694,66 669,47 0,00 0,00 0,00 959,93 0,00 1.911,00 10.235,06 959,93 1.103,64 0,00 0,00 2.063,57 8.171,49 28/02/2023
763 555300 DOUGLAS CUNHA DE SOUZA ANALISTA DO MP VARZEA DA PALMA - COMARCA; VARZEA DA PALMA-PJ-01PJ 11.008,33 1.100,83 0,00 0,00 0,00 0,00 532,80 8.608,70 21.250,66 982,16 2.095,65 0,00 0,00 3.077,81 18.172,85 28/02/2023
764 265900 DOUGLAS GOMES MOREIRA ANALISTA DO MP BELO HORIZONTE - COMARCA; CENTRAL DE APOIO TECNICO-SETOR DE ENGENHARIA 20.574,59 6.172,38 0,00 0,00 0,00 0,00 0,00 1.911,00 28.657,97 4.060,46 5.369,43 0,00 0,00 9.429,89 19.228,08 28/02/2023
765 241000 DOUGLAS MEIRELLES DE CASTRO OFICIAL DO MP CONCEIÇÃO DO RIO VERDE - COMARCA; CONCEICAO DO RIO VERDE-PJ-UNPJ 15.659,55 6.263,82 0,00 0,00 0,00 0,00 0,00 1.911,00 23.834,37 3.288,69 4.203,04 0,00 0,00 7.491,73 16.342,64 28/02/2023
766 534900 DOUGLAS SILVA E SOUZA ANALISTA DO MP CAMPOS GERAIS - COMARCA; CAMPOS GERAIS-PJ-01PJ 11.008,33 1.100,83 0,00 0,00 4.036,39 0,00 532,80 7.723,40 24.401,75 982,16 3.153,52 0,00 0,00 4.135,68 20.266,07 28/02/2023
767 638900 DOUGLAS WALLAS CONCEICAO NEVES OFICIAL DO MP RIBEIRÃO DAS NEVES - COMARCA; RIBEIRAO DAS NEVES-PJ-SEC CIVEL 5.889,39 588,94 0,00 0,00 0,00 0,00 356,31 5.798,00 12.632,64 822,63 685,96 0,00 0,00 1.508,59 11.124,05 28/02/2023
768 146800 DUCINALVA AMARAL LOPES REIS OFICIAL DO MP PARAISÓPOLIS - COMARCA; PARAISOPOLIS-PJ-UNPJ 20.574,59 16.459,68 0,00 0,00 0,00 5.454,90 520,11 7.584,95 50.594,23 5.454,90 8.778,48 1.572,05 0,00 15.805,43 34.788,80 28/02/2023
769 122500 DUILIO CARLOS FERREIRA UTSCH OFICIAL DO MP CONCEIÇÃO DO MATO DENTRO - COMARCA; CONCEICAO DO MATO DENTRO-PJ-UNPJ 18.312,36 16.481,13 0,00 0,00 0,00 5.347,91 0,00 1.911,00 42.052,40 5.347,91 8.698,85 0,00 0,00 14.046,76 28.005,64 28/02/2023
770 201800 DULCINEIA ANDRE DE SOUZA OFICIAL DO MP JEQUITINHONHA - COMARCA; JEQUITINHONHA-PJ-SECRETARIA 18.312,36 7.324,94 0,00 0,00 0,00 0,00 470,02 7.038,46 33.145,78 3.882,92 4.956,68 0,00 0,00 8.839,60 24.306,18 28/02/2023
771 395800 DUVIDIER MEDIRCIO JUNIOR ANALISTA DO MP BELO HORIZONTE - COMARCA; CENTRAL DE APOIO TECNICO-SETOR DE ENGENHARIA 17.614,89 3.522,98 0,00 0,00 0,00 0,00 0,00 1.911,00 23.048,87 3.163,01 4.073,73 0,00 0,00 7.236,74 15.812,13 28/02/2023
772 604800 ECIA RAMILIS ISSA DE ABREU ANALISTA DO MP BRASÍLIA DE MINAS - COMARCA; BRASILIA DE MINAS-PJ-01PJ 11.008,33 1.100,83 0,00 0,00 0,00 0,00 532,80 8.608,70 21.250,66 1.718,41 1.988,10 0,00 0,00 3.706,51 17.544,15 28/02/2023
773 273000 EDELFINA APARECIDA GUIMARAES OFICIAL DO MP CACHOEIRA DE MINAS - COMARCA; CACHOEIRA DE MINAS-PJ-UNPJ 12.118,97 9.695,18 0,00 0,00 0,00 0,00 0,00 1.911,00 23.725,15 3.271,21 4.177,81 0,00 0,00 7.449,02 16.276,13 28/02/2023
774 523300 EDER DOS SANTOS PATRICIO ANALISTA DO MP NOVA SERRANA - COMARCA; NOVA SERRANA-PJ-03PJ 11.008,33 2.201,67 0,00 0,00 4.403,33 0,00 532,80 8.608,70 26.754,83 982,16 3.534,46 0,00 0,00 4.516,62 22.238,21 28/02/2023
775 356700 EDER JOSE PACHECO OFICIAL DO MP CAMPO BELO - COMARCA; CAMPO BELO-PJ-04PJ 11.008,33 3.302,50 0,00 0,00 0,00 0,00 524,73 7.635,33 22.470,89 2.070,68 2.444,54 0,00 0,00 4.515,22 17.955,67 28/02/2023
776 507900 EDERSON SILVA LOPES OFICIAL DO MP BELO HORIZONTE - COMARCA; LABORATORIO TECNOLOGIA INTELIGENCIA 8.113,66 1.622,73 0,00 0,00 0,00 0,00 357,00 5.805,56 15.898,95 1.338,77 1.335,71 0,00 0,00 2.674,48 13.224,47 28/02/2023
777 296200 EDGARD GOULART MATOSINHO DE LAET JR ANALISTA DO MP GOVERNADOR VALADARES - COMARCA; GOVERNADOR VALADARES-PJ-12PJ 19.791,01 5.937,30 0,00 0,00 8.576,10 0,00 471,69 7.056,66 41.832,76 3.897,48 7.388,27 0,00 0,00 11.285,75 30.547,01 28/02/2023
778 295000 EDILA MARIA DA SILVEIRA OFICIAL DO MP FORMIGA - COMARCA; FORMIGA-PJ-01PJ 11.008,33 3.302,50 0,00 0,00 0,00 0,00 0,00 1.911,00 16.221,83 2.070,68 2.496,68 0,00 0,00 4.567,36 11.654,47 28/02/2023
779 332300 EDILA MARILAC MIRANDA PRADO OFICIAL DO MP DIAMANTINA - COMARCA; DIAMANTINA-PJ-01PJ 11.008,33 5.504,17 0,00 0,00 0,00 0,00 0,00 1.911,00 18.423,50 2.422,95 2.900,99 0,00 0,00 5.323,94 13.099,56 28/02/2023
780 376600 EDILANE CONSOLACAO ROSA NAZARETH ANALISTA DO MP BETIM - COMARCA; BETIM-PJ-10PJ 16.695,70 3.339,14 0,00 0,00 0,00 0,00 0,00 1.911,00 21.945,84 982,16 4.111,75 0,00 0,00 5.093,91 16.851,93 28/02/2023
781 309800 EDILZA DOS REIS OFICIAL DO MP UBERLÂNDIA - COMARCA; UBERLANDIA-PJ-03PJ 11.008,33 3.302,50 0,00 0,00 0,00 0,00 524,73 7.635,33 22.470,89 2.070,68 2.444,54 0,00 0,00 4.515,22 17.955,67 28/02/2023
782 200500 EDINEIA MARIA DE OLIVEIRA ANTUNES OFICIAL DO MP MONTES CLAROS - COMARCA; MONTES CLAROS-PJ-10PJ 18.312,36 9.156,18 0,00 0,00 0,00 0,00 503,59 7.404,71 35.376,84 4.175,91 5.536,11 0,00 0,00 9.712,02 25.664,82 28/02/2023
783 427700 EDISANGELA SOARES LOPES OFICIAL DO MP PIRAPORA - COMARCA; PIRAPORA-PJ-02PJ 6.694,66 1.338,93 0,00 0,00 0,00 0,00 0,00 1.911,00 9.944,59 1.066,32 1.046,64 0,00 0,00 2.112,96 7.831,63 28/02/2023
784 555400 EDISON MONTEIRO SAMPAIO NETO ANALISTA DO MP BELO HORIZONTE - COMARCA; BH-12PJ JUIZO CRIMINAL-GAB 094PJ 11.008,33 1.100,83 0,00 0,00 0,00 0,00 532,80 7.723,40 20.365,36 1.718,41 1.988,10 0,00 0,00 3.706,51 16.658,85 28/02/2023
785 517700 EDMILSON TADEU FERNANDES OFICIAL DO MP POUSO ALEGRE - COMARCA; GAECO REGIONAL DE POUSO ALEGRE 8.377,76 1.675,55 0,00 0,00 0,00 0,00 368,62 5.932,32 16.354,25 1.389,48 1.513,19 0,00 0,00 2.902,67 13.451,58 28/02/2023
786 358400 EDNA APARECIDA SILVA FERREIRA OFICIAL DO MP CORONEL FABRICIANO - COMARCA; CORONEL FABRICIANO-PJ-02PJ 12.118,97 3.635,69 0,00 0,00 0,00 0,00 519,90 7.582,68 23.857,24 2.301,69 2.725,93 0,00 0,00 5.027,62 18.829,62 28/02/2023
787 331800 EDNA MARCIA CAMILO DA SILVA OFICIAL DO MP SETE LAGOAS - COMARCA; SETE LAGOAS-PJ-SEC CRIMINAIS 11.008,33 3.302,50 0,00 0,00 0,00 0,00 0,00 1.911,00 16.221,83 2.070,68 2.444,54 0,00 0,00 4.515,22 11.706,61 28/02/2023
788 327900 EDRIEL SANTANA PEREIRA OFICIAL DO MP TUPACIGUARA - COMARCA; TUPACIGUARA-PJ-01PJ 11.008,33 3.302,50 0,00 0,00 0,00 0,00 524,73 8.520,63 23.356,19 2.070,68 2.496,68 0,00 0,00 4.567,36 18.788,83 28/02/2023
789 482400 EDSON GARCIA OFICIAL DO MP MACHADO - COMARCA; MACHADO-PJ-02PJ 6.694,66 1.338,93 0,00 0,00 0,00 0,00 0,00 1.911,00 9.944,59 1.066,32 942,36 0,00 0,00 2.008,68 7.935,91 28/02/2023
790 225601 EDSON LABRE FILHO ANALISTA DO MP VARGINHA - COMARCA; VARGINHA-PJ-01PJ 19.791,01 7.916,40 0,00 0,00 0,00 0,00 507,97 7.452,48 35.667,86 4.214,13 5.539,15 0,00 0,00 9.753,28 25.914,58 28/02/2023
791 602700 EDSON NOGUEIRA BUENO OFICIAL DO MP PITANGUI - COMARCA; PITANGUI-PJ-02PJ 6.694,66 669,47 0,00 0,00 0,00 0,00 0,00 1.911,00 9.275,13 959,93 891,80 0,00 0,00 1.851,73 7.423,40 28/02/2023
792 716500 EDUARDA CORREA MOREIRA ASSESSOR ADMINISTRATIVO I BELO HORIZONTE - COMARCA; DIRET DE FORMACAO, APERFEIC. E POS-GRADUACAO 0,00 0,00 5.133,26 0,00 0,00 0,00 0,00 2.008,62 7.141,88 621,17 521,42 0,00 0,00 1.142,59 5.999,29 28/02/2023
793 414400 EDUARDO ABRANTES CAMPOS ANALISTA DO MP SÃO JOÃO DEL REI - COMARCA; SAO JOAO DEL REI-PJ-02PJ 16.169,47 3.233,89 0,00 0,00 0,00 0,00 498,02 7.343,94 27.245,32 2.885,49 3.673,05 0,00 0,00 6.558,54 20.686,78 28/02/2023
794 476800 EDUARDO ALVES DE MOURA ANALISTA DO MP UBERLÂNDIA - COMARCA; UBERLANDIA-PJ-02PJ 11.008,33 2.201,67 0,00 0,00 0,00 0,00 532,80 8.608,70 22.351,50 982,16 2.219,27 0,00 0,00 3.201,43 19.150,07 28/02/2023
795 390800 EDUARDO AMORIM PETTERSEN OFICIAL DO MP CARANGOLA - COMARCA; CARANGOLA-PJ-SECRETARIA 9.999,62 1.999,92 0,00 0,00 0,00 0,00 527,98 7.670,78 20.198,30 1.700,87 1.962,77 0,00 0,00 3.663,64 16.534,66 28/02/2023
796 461600 EDUARDO ANTONIO DE ASSIS FARIA ASSESSOR ADMINISTRATIVO III BELO HORIZONTE - COMARCA; ASSESS EXECUTIVA DO CONSELHO SUPERIOR DO MP 0,00 0,00 9.684,23 0,00 0,00 0,00 355,09 5.784,69 15.824,01 877,22 1.867,01 0,00 0,00 2.744,23 13.079,78 28/02/2023
797 248800 EDUARDO DE CASTRO AMORIM ANALISTA DO MP BELO HORIZONTE - COMARCA; SUPER DE GESTAO DE PESSOAS-LOTACAO TEMPORARIA 20.574,59 8.229,84 0,00 0,00 0,00 0,00 528,08 7.671,89 37.004,40 4.389,66 5.844,70 0,00 0,00 10.234,36 26.770,04 28/02/2023
798 209100 EDUARDO DE SOUZA MAIA ANALISTA DO MP BELO HORIZONTE - COMARCA; SUPER DE GESTAO DE PESSOAS-LOTACAO TEMPORARIA 20.574,59 8.229,84 0,00 0,00 0,00 0,00 0,00 1.911,00 30.715,43 4.389,66 5.740,43 0,00 0,00 10.130,09 20.585,34 28/02/2023
799 633900 EDUARDO GONCALVES PIRES OFICIAL DO MP BELO HORIZONTE - COMARCA; DIRETORIA DE PAGAMENTO DE PESSOAL-DPAG 7.370,10 2.948,04 0,00 0,00 170,02 0,00 0,00 1.911,00 12.399,16 1.431,85 1.574,37 0,00 0,00 3.006,22 9.392,94 28/02/2023
800 350500 EDUARDO GONCALVES RIBEIRO OFICIAL DO MP VESPASIANO - COMARCA; VESPASIANO-PJ-04PJ 10.325,15 3.097,55 0,00 0,00 0,00 0,00 0,00 1.911,00 15.333,70 1.928,58 2.291,52 0,00 0,00 4.220,10 11.113,60 28/02/2023
801 115800 EDUARDO HENRIQUE DE CAMPOS MAIA OFICIAL DO MP BELO HORIZONTE - COMARCA; DIV FISCAL ADM CONT TERCEIRIZACAO 19.791,01 13.853,71 0,00 0,00 11.214,91 0,00 493,46 7.294,16 52.647,25 5.164,10 9.890,50 0,00 0,00 15.054,60 37.592,65 28/02/2023
802 392600 EDUARDO HENRIQUE DOS SANTOS COSTA ELIAZAR OFICIAL DO MP MATOZINHOS - COMARCA; MATOZINHOS-PJ-01PJ 9.684,23 1.936,85 0,00 0,00 0,00 0,00 511,33 7.489,12 19.621,53 1.640,32 1.771,07 0,00 0,00 3.411,39 16.210,14 28/02/2023
803 99101 EDUARDO JOSE DE FREITAS NUNES ASSESSOR ADMINISTRATIVO II BELO HORIZONTE - COMARCA; PROC JUST ATUACAO TRIBUNAIS SUPERIORES-GAB007 0,00 3.347,33 6.694,66 0,00 0,00 0,00 0,00 1.911,00 11.952,99 877,22 2.017,53 0,00 0,00 2.894,75 9.058,24 28/02/2023
804 407500 EDUARDO MASCARENHAS CURI AZEVEDO COORDENADOR II BELO HORIZONTE - COMARCA; DIR CONTEUDO JORNALISTICO 18.312,36 3.662,47 0,00 0,00 0,00 0,00 0,00 2.796,30 24.771,13 1.894,55 4.652,72 0,00 0,00 6.547,27 18.223,86 28/02/2023
805 601300 EDUARDO TRAD VIEIRA OFICIAL DO MP IGARAPÉ - COMARCA; IGARAPE-PJ-SECRETARIA 6.694,66 669,47 0,00 0,00 0,00 0,00 0,00 1.911,00 9.275,13 959,93 891,80 0,00 0,00 1.851,73 7.423,40 28/02/2023
806 257600 EDUARDO VALADARES CABRAL ANALISTA DO MP BELO HORIZONTE - COMARCA; COORD DE INCLUSAO E MOBILIZACAO SOCIAIS 20.574,59 8.229,84 0,00 0,00 0,00 0,00 0,00 1.911,00 30.715,43 4.389,66 5.844,70 0,00 0,00 10.234,36 20.481,07 28/02/2023
807 545700 EDVAIR FERREIRA DE CARVALHO OFICIAL DO MP ARAGUARI - COMARCA; ARAGUARI-PJ-06PJ 6.694,66 669,47 0,00 0,00 0,00 0,00 0,00 1.911,00 9.275,13 959,93 839,66 0,00 0,00 1.799,59 7.475,54 28/02/2023
808 401700 EDWANIA AMORIM DO CARMO OFICIAL DO MP RIBEIRÃO DAS NEVES - COMARCA; RIBEIRAO DAS NEVES-PJ-03PJ 11.008,33 2.201,67 0,00 0,00 0,00 0,00 532,80 7.723,40 21.466,20 1.894,55 2.242,39 0,00 0,00 4.136,94 17.329,26 28/02/2023
809 303600 EFIGENIO SARAIVA LOPES ANALISTA DO MP BELO HORIZONTE - COMARCA; DIRETORIA DE PAGAMENTO DE PESSOAL-DPAG 20.574,59 6.172,38 4.939,72 0,00 10.562,23 0,00 464,74 6.980,87 49.694,53 4.060,46 9.580,33 0,00 0,00 13.640,79 36.053,74 28/02/2023
810 286000 ELAINE APARECIDA SILVA BERZOINI OFICIAL DO MP JUIZ DE FORA - COMARCA; JUIZ DE FORA-PJ-07PJ 11.008,33 3.302,50 0,00 0,00 0,00 0,00 0,00 1.911,00 16.221,83 2.070,68 2.496,68 0,00 0,00 4.567,36 11.654,47 28/02/2023
811 509000 ELAINE CANDIDA PONTES OFICIAL DO MP BELO HORIZONTE - COMARCA; BH-02PJ FAMILIA-SECRETARIA 9.223,00 1.844,60 0,00 0,00 0,00 0,00 0,00 1.911,00 12.978,60 1.551,76 1.747,50 0,00 0,00 3.299,26 9.679,34 28/02/2023
812 283601 ELAINE CRISTINA MEQUELINO DUARTE ANALISTA DO MP ALFENAS - COMARCA; ALFENAS-PJ-02PJ 16.695,70 3.339,14 0,00 0,00 0,00 0,00 514,23 7.520,76 28.069,83 2.986,52 3.714,65 0,00 0,00 6.701,17 21.368,66 28/02/2023
813 535500 ELAINE DE OLIVEIRA CAMPOS REIS OFICIAL DO MP RIBEIRÃO DAS NEVES - COMARCA; RIBEIRAO NEVES-SEC PJ EXECUCAO PENAL 6.694,66 669,47 0,00 0,00 0,00 0,00 0,00 1.911,00 9.275,13 959,93 891,80 0,00 0,00 1.851,73 7.423,40 28/02/2023
814 455700 ELAINE DE OLIVEIRA CASTRO ANALISTA DO MP POMPÉU - COMARCA; POMPEU-PJ-UNPJ 11.008,33 2.201,67 0,00 0,00 0,00 0,00 0,00 1.911,00 15.121,00 1.894,55 2.138,11 0,00 0,00 4.032,66 11.088,34 28/02/2023
815 367200 ELAINE MUNIZ BARBOSA ANALISTA DO MP BELO HORIZONTE - COMARCA; DIRETORIA DE SISTEMAS DE INFORMACAO 18.312,36 5.493,71 0,00 0,00 0,00 0,00 0,00 2.796,30 26.602,37 3.589,92 4.637,94 0,00 0,00 8.227,86 18.374,51 28/02/2023
816 679200 ELAINE RIBEIRO CHAVES ASSESSOR PROCURADOR JUSTICA BELO HORIZONTE - COMARCA; GABINETE DE PROCURADOR DE JUSTIÇA - SALA 614 0,00 0,00 7.857,77 0,00 0,00 0,00 288,12 5.054,11 13.200,00 877,22 1.364,73 0,00 0,00 2.241,95 10.958,05 28/02/2023
817 176900 ELAINE RIBEIRO TAVEIRA OFICIAL DO MP BELO HORIZONTE - COMARCA; DIVISAO FROTA 15.165,83 6.066,33 0,00 0,00 0,00 0,00 544,96 7.856,00 29.633,12 3.178,09 4.095,51 0,00 0,00 7.273,60 22.359,52 28/02/2023
818 496200 ELAINE SABRINA MOREIRA SCHUWARTEN ANALISTA DO MP IPATINGA - COMARCA; GAECO REGIONAL DE IPATINGA 12.118,97 2.423,79 0,00 0,00 0,00 0,00 0,00 1.911,00 16.453,76 2.107,79 2.550,26 0,00 0,00 4.658,05 11.795,71 28/02/2023
819 489200 ELAINE VICENTINO GARCIA ANALISTA DO MP BELO HORIZONTE - COMARCA; CENTRAL DE APOIO TECNICO-SETOR CONTABIL 11.008,33 4.403,33 0,00 0,00 0,00 0,00 0,00 1.911,00 17.322,66 2.246,81 2.646,70 0,00 0,00 4.893,51 12.429,15 28/02/2023
820 731400 ELBERT MENDES PINHEIRO ASSESSOR PROMOTOR JUSTICA BELO HORIZONTE - COMARCA; COORD ESTADUAL DAS PJS DE HAB. E URBANISMO 0,00 0,00 7.857,77 0,00 0,00 0,00 0,00 1.911,00 9.768,77 877,22 1.416,87 0,00 0,00 2.294,09 7.474,68 28/02/2023
821 244500 ELCI ALVES DE SOUZA ASSESSOR ADMINISTRATIVO II BELO HORIZONTE - COMARCA; CAO-CONFLITOS AGRARIOS-SECRETARIA 0,00 2.677,86 6.694,66 0,00 0,00 0,00 274,93 4.910,21 14.557,66 877,22 1.781,29 0,00 0,00 2.658,51 11.899,15 28/02/2023
822 472500 ELCI VAZ DE OLIVEIRA FILHO ANALISTA DO MP PIUMHI - COMARCA; PIUMHI-PJ-02PJ 11.008,33 5.504,17 0,00 0,00 0,00 0,00 0,00 1.911,00 18.423,50 2.422,95 3.005,27 0,00 0,00 5.428,22 12.995,28 28/02/2023
823 385200 ELCI VIANA REIS OFICIAL DO MP RIO PARDO DE MINAS - COMARCA; RIO PARDO DE MINAS-PJ-SECRETARIA 11.008,33 5.504,17 0,00 0,00 0,00 0,00 544,91 7.855,50 24.912,91 2.422,95 3.005,27 0,00 0,00 5.428,22 19.484,69 28/02/2023
824 289801 ELCIO JOSE DOS SANTOS ANALISTA DO MP BELO HORIZONTE - COMARCA; DIVISAO DE SERVICOS 11.008,33 2.201,67 4.939,72 0,00 0,00 0,00 532,39 7.718,91 26.401,02 1.894,55 3.600,81 0,00 0,00 5.495,36 20.905,66 28/02/2023
825 319600 ELEN TULER DE ALBERGARIA ANALISTA DO MP BELO HORIZONTE - COMARCA; BH-19PJ SAUDE-SECRETARIA 130PJ 20.574,59 8.229,84 0,00 0,00 0,00 0,00 0,00 1.911,00 30.715,43 4.389,66 5.844,70 0,00 0,00 10.234,36 20.481,07 28/02/2023
826 205500 ELIANA ALVES DE SOUSA OFICIAL DO MP GOVERNADOR VALADARES - COMARCA; GOVERNADOR VALADARES-PJ-07PJ 11.008,33 4.403,33 0,00 0,00 0,00 0,00 0,00 1.911,00 17.322,66 2.246,81 2.750,97 0,00 0,00 4.997,78 12.324,88 28/02/2023
827 628800 ELIANA APARECIDA PEREIRA ANALISTA DO MP CAMBUÍ - COMARCA; CAMBUI-PJ-02PJ 9.378,86 937,89 0,00 0,00 0,00 0,00 0,00 1.911,00 12.227,75 1.431,63 1.521,91 0,00 0,00 2.953,54 9.274,21 28/02/2023
828 301700 ELIANA DA SILVEIRA ANALISTA DO MP BELO HORIZONTE - COMARCA; BH-11PJ COMB CRIME ORGANIZ-GAB 081PJ 19.037,29 5.711,19 0,00 0,00 0,00 0,00 544,47 7.850,64 33.143,59 3.740,71 4.907,78 0,00 0,00 8.648,49 24.495,10 28/02/2023
829 251500 ELIANA DE LIMA MILAGRES FONSECA ANALISTA DO MP CONTAGEM - COMARCA; CONTAGEM-PJ-16PJ 20.574,59 8.229,84 0,00 0,00 0,00 0,00 528,08 7.671,89 37.004,40 4.389,66 5.792,56 0,00 0,00 10.182,22 26.822,18 28/02/2023
830 503900 ELIANA DIAS DUTRA FERREIRA OFICIAL DO MP BELO HORIZONTE - COMARCA; DIRETORIA GESTAO COMPRAS LICITACOES 9.378,86 1.875,77 0,00 0,00 0,00 0,00 0,00 1.911,00 13.165,63 1.581,69 1.738,56 0,00 0,00 3.320,25 9.845,38 28/02/2023
831 413900 ELIANA PINTO DE OLIVEIRA NEVES ANALISTA DO MP CAMPO BELO - COMARCA; CAMPO BELO-PJ-04PJ 15.659,55 3.131,91 0,00 0,00 0,00 0,00 482,31 7.172,61 26.446,38 2.787,58 3.531,71 0,00 0,00 6.319,29 20.127,09 28/02/2023
832 228200 ELIANA RODRIGUES DA CUNHA PINHEIRO OFICIAL DO MP BELO HORIZONTE - COMARCA; DIRETORIA DE PROJETOS DE EDIFICACOES 15.659,55 6.263,82 0,00 0,00 0,00 3.288,69 482,31 7.172,61 32.866,98 3.288,69 5.159,57 0,00 0,00 8.448,26 24.418,72 28/02/2023
833 386600 ELIANA SABINO CHAVES PESSOA ANALISTA DO MP CARATINGA - COMARCA; CARATINGA-PJ-06PJ 16.169,47 11.318,64 0,00 0,00 0,00 4.179,05 503,95 7.408,62 39.579,73 4.179,05 6.637,73 0,00 0,00 10.816,78 28.762,95 28/02/2023
834 677500 ELIANA SILVA ANDRADE ASSESSOR PROMOTOR JUSTICA TRÊS CORACOES - COMARCA; TRES CORACOES-PJ-06PJ 0,00 0,00 7.857,77 0,00 0,00 0,00 0,00 1.911,00 9.768,77 877,22 1.416,87 0,00 0,00 2.294,09 7.474,68 28/02/2023
835 297400 ELIANE AUGUSTA RIBEIRO COSTA ANALISTA DO MP CONSELHEIRO LAFAIETE - COMARCA; CONSELHEIRO LAFAIETE-PJ-05PJ 20.574,59 6.172,38 0,00 0,00 0,00 0,00 0,00 1.911,00 28.657,97 4.060,46 5.265,16 0,00 0,00 9.325,62 19.332,35 28/02/2023
836 510600 ELIANE CAROLINA MAIA ANALISTA DO MP IGARAPÉ - COMARCA; IGARAPE-PJ-03PJ 11.008,33 2.201,67 0,00 0,00 0,00 0,00 532,80 7.723,40 21.466,20 1.894,55 2.085,98 0,00 0,00 3.980,53 17.485,67 28/02/2023
837 262600 ELIANE FERREIRA SOARES ASSESSOR ADMINISTRATIVO II BELO HORIZONTE - COMARCA; BH-18PJ DIREITOS HUMANOS-SECRETARIA 0,00 2.677,86 6.694,66 0,00 0,00 0,00 0,00 1.911,00 11.283,52 877,22 1.833,42 0,00 0,00 2.710,64 8.572,88 28/02/2023
838 204400 ELIANE GLAUCE DE QUEIROS MAIA OFICIAL DO MP GUANHÃES - COMARCA; GUANHAES-PJ-02PJ 18.312,36 7.324,94 0,00 0,00 0,00 0,00 470,02 7.038,46 33.145,78 3.882,92 5.113,09 0,00 0,00 8.996,01 24.149,77 28/02/2023
839 91800 ELIANE KAPLER ALVES OFICIAL DO MP BELO HORIZONTE - COMARCA; DIVISAO DE CONTROLE IMOBILIARIO 20.574,59 14.402,22 0,00 0,00 0,00 0,00 512,99 7.507,29 42.997,09 5.377,24 7.166,25 0,00 0,00 12.543,49 30.453,60 28/02/2023
840 334200 ELIANE MARCIA DE OLIVEIRA BRITO OFICIAL DO MP BELO HORIZONTE - COMARCA; BH-08PJ JUIZADO ESPECIAL-SECRETARIA 6.694,66 2.008,40 0,00 0,00 0,00 0,00 0,00 1.911,00 10.614,06 1.173,44 1.201,29 0,00 0,00 2.374,73 8.239,33 28/02/2023
841 365900 ELIANE MARIA DE OLIVEIRA FERREIRA OFICIAL DO MP SETE LAGOAS - COMARCA; SETE LAGOAS-PJ-SEC CRIMINAIS 11.008,33 5.504,17 0,00 0,00 0,00 0,00 0,00 1.911,00 18.423,50 2.422,95 3.005,27 0,00 0,00 5.428,22 12.995,28 28/02/2023
842 320600 ELIANE STADLER DE SOUZA OFICIAL DO MP FRANCISCO SÁ - COMARCA; FRANCISCO SA-PJ-SECRETARIA 10.325,15 3.097,55 0,00 0,00 0,00 0,00 0,00 1.911,00 15.333,70 1.928,58 2.239,39 0,00 0,00 4.167,97 11.165,73 28/02/2023
843 448900 ELIAS PEREIRA OTONI ASSESSOR ADMINISTRATIVO II BELO HORIZONTE - COMARCA; BH-18PJ DIREITOS HUMANOS-SECRETARIA 0,00 0,00 6.694,66 0,00 0,00 0,00 0,00 1.911,00 8.605,66 877,22 992,74 0,00 0,00 1.869,96 6.735,70 28/02/2023
844 495400 ELICA SOUZA GASPARONI MATTOS OFICIAL DO MP UBÁ - COMARCA; UBA-PJ-06PJ 9.378,86 1.875,77 0,00 0,00 0,00 0,00 495,20 7.313,22 19.063,05 1.581,69 1.790,70 0,00 0,00 3.372,39 15.690,66 28/02/2023
845 86600 ELIENE FERREIRA DA SILVA OFICIAL DO MP BELO HORIZONTE - COMARCA; BH-22PJ PES COM DEF E IDOSOS-SECRETARIA 23.116,32 18.493,05 0,00 0,00 0,00 5.454,90 520,11 7.584,96 55.169,34 5.454,90 8.726,34 6.147,15 0,00 20.328,39 34.840,95 28/02/2023
846 183800 ELIENE MARIA CUNHA OFICIAL DO MP BELO HORIZONTE - COMARCA; DIRETORIA DE PESSOAL ADMINISTRATIVO - DPAD 19.037,29 7.614,92 0,00 0,00 0,00 0,00 488,62 7.241,44 34.382,27 4.045,30 5.295,40 0,00 0,00 9.340,70 25.041,57 28/02/2023
847 172300 ELINA APARECIDA SILVA ASSESSOR ADMINISTRATIVO I BELO HORIZONTE - COMARCA; BH-19PJ SAUDE-SECRETARIA 130PJ 0,00 1.738,23 4.345,58 0,00 0,00 0,00 0,00 1.911,00 7.994,81 877,22 876,89 0,00 0,00 1.754,11 6.240,70 28/02/2023
848 492501 ELINE CAMPOS DA FONSECA CUNHA ANALISTA DO MP PONTE NOVA - COMARCA; PONTE NOVA-PJ-05PJ 11.008,33 2.201,67 0,00 0,00 0,00 0,00 532,80 7.723,40 21.466,20 1.894,55 2.242,39 0,00 0,00 4.136,94 17.329,26 28/02/2023
849 618900 ELISA MOURA VIEIRA MARCATTI OFICIAL DO MP BELO HORIZONTE - COMARCA; GRUPO ESP PROM JUST DEF PROB ADM PAT PUB 6.694,66 669,47 0,00 0,00 0,00 0,00 0,00 2.796,30 10.160,43 959,93 891,80 0,00 0,00 1.851,73 8.308,70 28/02/2023
850 256500 ELISABETE NOGUEIRA ANALISTA DO MP RIBEIRÃO DAS NEVES - COMARCA; RIBEIRAO NEVES-SEC PJ EXECUCAO PENAL 16.695,70 8.347,85 0,00 0,00 0,00 0,00 0,00 1.911,00 26.954,55 3.787,92 4.767,39 0,00 0,00 8.555,31 18.399,24 28/02/2023
851 355000 ELISANGELA DARLANTONI RIBEIRO OFICIAL DO MP ARAXÁ - COMARCA; ARAXA-PJ-05PJ 10.661,25 3.198,38 0,00 0,00 0,00 0,00 0,00 1.911,00 15.770,63 1.998,49 2.340,32 0,00 0,00 4.338,81 11.431,82 28/02/2023
852 604400 ELISANGELA DEMASI FERREIRA MOREIRA ANALISTA DO MP CABO VERDE - COMARCA; CABO VERDE-PJ-UNPJ 11.008,33 1.100,83 0,00 0,00 4.036,39 0,00 532,80 7.723,40 24.401,75 982,16 3.205,66 0,00 0,00 4.187,82 20.213,93 28/02/2023
853 323800 ELISANGELA GONCALVES DE JESUS OFICIAL DO MP BELO HORIZONTE - COMARCA; DIRETORIA DE PESSOAL ADMINISTRATIVO - DPAD 11.008,33 3.302,50 0,00 0,00 0,00 0,00 524,73 7.635,33 22.470,89 2.070,68 2.444,54 0,00 0,00 4.515,22 17.955,67 28/02/2023
854 507400 ELISANGELA MIGUEL DA ROCHA SILVA ASSESSOR ADMINISTRATIVO II BELO HORIZONTE - COMARCA; EXTINTA-CGMP-DIV APOIO FISC ORIENT FUNCIONAL 0,00 0,00 6.694,66 0,00 0,00 0,00 73,64 2.714,36 9.482,66 877,22 1.044,87 0,00 0,00 1.922,09 7.560,57 28/02/2023
855 261400 ELISANGELA REZENDE MENDES OFICIAL DO MP POUSO ALEGRE - COMARCA; POUSO ALEGRE-PJ-05PJ 11.008,33 3.302,50 0,00 0,00 0,00 0,00 0,00 1.911,00 16.221,83 2.070,68 2.496,68 0,00 0,00 4.567,36 11.654,47 28/02/2023
856 534100 ELISANGELA ROSINE SILVA OFICIAL DO MP UBERABA - COMARCA; UBERABA-PJ-06PJ 6.694,66 669,47 0,00 0,00 0,00 0,00 135,01 3.383,83 10.882,97 959,93 891,80 0,00 0,00 1.851,73 9.031,24 28/02/2023
857 634300 ELIUDE GRACA DAMASIO ROSARIO FRANCELINO OFICIAL DO MP BELO HORIZONTE - COMARCA; BH-18PJ VIOLENCIA DOMESTICA-SECRETARIA 5.889,39 588,94 0,00 0,00 0,00 0,00 0,00 3.681,60 10.159,93 824,08 685,56 0,00 0,00 1.509,64 8.650,29 28/02/2023
858 461700 ELIZABETH ALEIXO DA PAZ ANALISTA DO MP JUIZ DE FORA - COMARCA; JUIZ DE FORA-PJ-18PJ 11.008,33 2.201,67 0,00 0,00 0,00 0,00 532,80 7.723,40 21.466,20 1.894,55 2.242,39 0,00 0,00 4.136,94 17.329,26 28/02/2023
859 227300 ELIZABETH COIMBRA FELIX OFICIAL DO MP JABOTICATUBAS - COMARCA; JABOTICATUBAS-PJ-UNPJ 16.169,47 8.084,74 0,00 0,00 0,00 0,00 533,59 7.732,01 32.519,81 3.661,62 4.689,33 0,00 0,00 8.350,95 24.168,86 28/02/2023
860 354800 ELIZABETH DOS REIS OFICIAL DO MP BELO HORIZONTE - COMARCA; DIVISAO DE MATERIAIS 11.008,33 3.302,50 0,00 0,00 0,00 0,00 0,00 1.911,00 16.221,83 2.070,68 2.444,54 0,00 0,00 4.515,22 11.706,61 28/02/2023
861 612000 ELIZABETH MARIA DE QUEIROZ TANIGUCHI OFICIAL DO MP BELO HORIZONTE - COMARCA; SUPERINTENDENCIA GESTÃO DE PESSOAS 6.081,20 608,12 0,00 0,00 0,00 0,00 0,00 1.911,00 8.600,32 855,73 734,88 0,00 0,00 1.590,61 7.009,71 28/02/2023
862 452800 ELIZANGELA MARIA DAVI OFICIAL DO MP ARCOS - COMARCA; ARCOS-PJ-01PJ 6.694,66 1.338,93 0,00 0,00 0,00 0,00 0,00 1.911,00 9.944,59 1.066,32 994,50 0,00 0,00 2.060,82 7.883,77 28/02/2023
863 496300 ELIZANGELA MARQUES PINTO COELHO OFICIAL DO MP BELO HORIZONTE - COMARCA; DIRETORIA DE PESSOAL ADMINISTRATIVO - DPAD 9.378,86 1.875,77 0,00 0,00 0,00 0,00 495,20 7.313,22 19.063,05 1.581,69 1.790,70 0,00 0,00 3.372,39 15.690,66 28/02/2023
864 422500 ELIZETE FORTES DA CUNHA ANALISTA DO MP RIBEIRÃO DAS NEVES - COMARCA; RIBEIRAO DAS NEVES-PJ-07PJ 16.169,47 3.233,89 0,00 0,00 0,00 0,00 498,02 7.343,94 27.245,32 2.885,49 3.620,92 0,00 0,00 6.506,41 20.738,91 28/02/2023
865 506100 ELLEM CRISTINA ROCHA FONSECA BOWEN ANALISTA DO MP GOVERNADOR VALADARES - COMARCA; COORD REG PJ DEF EDU DIR CRIANCA ADOL RIODOCE 11.008,33 2.201,67 0,00 0,00 0,00 0,00 0,00 1.911,00 15.121,00 1.894,55 2.242,39 0,00 0,00 4.136,94 10.984,06 28/02/2023
866 468200 ELLEN CRISTINA BERNARDES DARE ANALISTA DO MP TRÊS PONTAS - COMARCA; TRES PONTAS-PJ-02PJ 11.008,33 2.201,67 0,00 0,00 0,00 0,00 532,80 8.608,70 22.351,50 1.894,55 2.190,25 0,00 0,00 4.084,80 18.266,70 28/02/2023
867 418800 ELLEN CRISTINA DE QUEIROZ FERREIRA ANALISTA DO MP BELO HORIZONTE - COMARCA; CENTRAL DE APOIO TECNICO-SETOR CONTABIL 15.659,55 3.131,91 0,00 0,00 0,00 0,00 482,31 8.500,56 27.774,33 982,16 3.795,47 0,00 0,00 4.777,63 22.996,70 28/02/2023
868 328401 ELLEN CRISTINA FERREIRA MORAIS MONTEIRO ANALISTA DO MP CAMANDUCAIA - COMARCA; CAMANDUCAIA-PJ-UNPJ 15.659,55 3.131,91 0,00 0,00 0,00 0,00 0,00 1.911,00 20.702,46 2.787,58 3.427,43 0,00 0,00 6.215,01 14.487,45 28/02/2023
869 556100 ELLEN CRISTINE BIANCHIN DA SILVA OFICIAL DO MP SÃO GONÇALO DO SAPUCAÍ - COMARCA; SAO GONCALO DO SAPUCAI-PJ-02PJ 6.694,66 669,47 0,00 0,00 0,00 0,00 405,03 6.329,48 14.098,64 959,93 839,66 0,00 0,00 1.799,59 12.299,05 28/02/2023
870 714500 ELLEN PROENCA CARVALHO DE ARAUJO ASSESSOR PROMOTOR JUSTICA MARIANA - COMARCA; MARIANA-PJ-02PJ 0,00 0,00 7.857,77 0,00 0,00 0,00 0,00 1.911,00 9.768,77 877,22 1.416,87 0,00 0,00 2.294,09 7.474,68 28/02/2023
871 447100 ELLEN ROSANA DE MACEDO BORGES OFICIAL DO MP UBERLÂNDIA - COMARCA; UBERLANDIA-PJ-17PJ 9.684,23 1.936,85 0,00 0,00 0,00 0,00 511,33 7.489,12 19.621,53 1.640,32 1.875,35 0,00 0,00 3.515,67 16.105,86 28/02/2023
872 477700 ELMA JACOB OFICIAL DO MP BELO HORIZONTE - COMARCA; COORD DE GABINETE DO PGJ 9.378,86 7.503,09 0,00 0,00 6.454,67 2.482,06 495,20 7.313,22 33.627,10 2.482,06 5.548,21 0,00 0,00 8.030,27 25.596,83 28/02/2023
873 123300 ELMA PAULA DOS SANTOS COELHO OFICIAL DO MP BELO HORIZONTE - COMARCA; BH-19PJ SAUDE-SECRETARIA 130PJ 20.574,59 20.574,60 0,00 0,00 0,00 5.454,90 0,00 1.911,00 48.515,09 5.454,90 8.882,75 5.686,97 0,00 20.024,62 28.490,47 28/02/2023
874 728200 ELMITA XISTO DO VALLE ASSESSOR ADMINISTRATIVO I BELO HORIZONTE - COMARCA; DIRET DE FORMACAO, APERFEIC. E POS-GRADUACAO 0,00 0,00 4.345,58 0,00 0,00 0,00 0,00 1.911,00 6.256,58 621,17 521,42 0,00 0,00 1.142,59 5.113,99 28/02/2023
875 356500 ELOISA CARDOSO SILVA FRANCA OFICIAL DO MP PEÇANHA - COMARCA; PECANHA-PJ-SECRETARIA 6.694,66 2.008,40 0,00 0,00 0,00 0,00 0,00 1.911,00 10.614,06 1.173,44 1.149,15 0,00 0,00 2.322,59 8.291,47 28/02/2023
876 251901 ELOISA COSTA E SILVA ANALISTA DO MP BELO HORIZONTE - COMARCA; SUPERINTENDENCIA GESTÃO DE PESSOAS 11.008,33 4.403,33 0,00 0,00 0,00 0,00 0,00 1.911,00 17.322,66 2.246,81 2.698,84 0,00 0,00 4.945,65 12.377,01 28/02/2023
877 400400 ELOIZA MARIA FERRI PIRES DA SILVA OFICIAL DO MP BELO HORIZONTE - COMARCA; ASSESSORIA DE COMUNICACAO INTEGRADA 9.684,23 1.936,85 0,00 0,00 0,00 0,00 511,33 7.489,12 19.621,53 1.640,32 1.875,35 0,00 0,00 3.515,67 16.105,86 28/02/2023
878 258000 ELSO CECIANO PALMEIRA OFICIAL DO MP BELO HORIZONTE - COMARCA; DIRET DE PESSOAL DO MINISTERIO PUBLICO - DPMP 14.224,47 9.957,13 5.287,54 0,00 0,00 0,00 540,27 7.804,83 37.814,24 3.650,00 6.230,90 0,00 0,00 9.880,90 27.933,34 28/02/2023
879 206900 ELVIRA RITA DOS SANTOS ANALISTA DO MP BELO HORIZONTE - COMARCA; CENTRAL DE APOIO TECNICO-SETOR CONTABIL 20.574,59 8.229,84 0,00 0,00 0,00 4.389,66 0,00 1.911,00 35.105,09 4.389,66 7.051,86 0,00 0,00 11.441,52 23.663,57 28/02/2023
880 506800 ELVIS FERREIRA DA SILVA ANALISTA DO MP BELO HORIZONTE - COMARCA; DIRETORIA DE SISTEMAS DE INFORMACAO 11.008,33 2.201,67 0,00 0,00 0,00 0,00 532,80 8.608,70 22.351,50 1.894,55 2.085,98 0,00 0,00 3.980,53 18.370,97 28/02/2023
881 602400 ELZA MARIA MOREIRA MUNIZ ANALISTA DO MP RIO PARANAÍBA - COMARCA; RIO PARANAIBA-PJ-UNPJ 11.008,33 1.100,83 0,00 0,00 4.036,39 0,00 532,80 7.723,40 24.401,75 1.718,41 2.993,83 0,00 0,00 4.712,24 19.689,51 28/02/2023
882 368401 ELZIRA SIMOES DOS SANTOS ASSESSOR DE GABINETE I BELO HORIZONTE - COMARCA; ASSESSORIA DE COMUNICACAO INTEGRADA 0,00 6.467,79 16.169,47 0,00 0,00 0,00 0,00 1.911,00 24.548,26 877,22 5.481,23 0,00 0,00 6.358,45 18.189,81 28/02/2023
883 437400 EMANOELLE DA SILVA RODRIGUES OFICIAL DO MP UNAÍ - COMARCA; UNAI-PJ-03PJ 8.932,15 1.786,43 0,00 0,00 0,00 0,00 471,62 7.941,22 19.131,42 1.495,92 1.614,73 0,00 0,00 3.110,65 16.020,77 28/02/2023
884 458900 EMANUELLE CONRAD SILVA FREDERICO NAVES ANALISTA DO MP ALFENAS - COMARCA; ALFENAS-PJ-05PJ 15.659,55 3.131,91 0,00 0,00 0,00 0,00 275,61 5.802,93 24.870,00 2.787,58 3.479,57 0,00 0,00 6.267,15 18.602,85 28/02/2023
885 284100 EMERSON MAGNO ALMEIDA PEDROSA DA FONSECA ANALISTA DO MP BELO HORIZONTE - COMARCA; CENTRAL DE APOIO TECNICO-SETOR CONTABIL 20.574,59 6.172,38 0,00 0,00 0,00 0,00 490,36 7.998,14 35.235,47 4.060,46 3.884,33 0,00 0,00 7.944,79 27.290,68 28/02/2023
886 179900 EMERSON MORAIS DIAS OFICIAL DO MP BELO HORIZONTE - COMARCA; SUPERINTENDÊNCIA DE ENGENHARIA E ARQUITETURA 19.037,29 7.614,92 0,00 0,00 8.884,07 0,00 488,62 7.241,44 43.266,34 4.045,30 7.790,66 0,00 0,00 11.835,96 31.430,38 28/02/2023
887 488700 EMERSON SIQUEIRA DE SOUSA TEIXEIRA ANALISTA DO MP ITANHOMI - COMARCA; ITANHOMI-PJ-UNPJ 11.008,33 2.201,67 0,00 0,00 0,00 0,00 532,80 7.723,40 21.466,20 1.894,55 2.085,98 0,00 0,00 3.980,53 17.485,67 28/02/2023
888 194200 EMILIA ALVES FERREIRA RAMOS OFICIAL DO MP UBERLÂNDIA - COMARCA; UBERLANDIA-PJ-SEC CIVEIS CRIMINAIS 13.341,69 5.336,68 0,00 0,00 0,00 0,00 547,90 7.888,08 27.114,35 2.769,49 3.505,58 0,00 0,00 6.275,07 20.839,28 28/02/2023
889 679500 EMILY DIAS LEMOS E SILVA ASSESSOR PROCURADOR JUSTICA BELO HORIZONTE - COMARCA; GABINETE DE PROCURADOR DE JUSTIÇA - SALA 307 0,00 0,00 7.857,77 0,00 0,00 0,00 172,87 4.682,16 12.712,80 877,22 1.312,59 0,00 0,00 2.189,81 10.522,99 28/02/2023
890 620700 EMILY FONTANA DE SIQUEIRA ANALISTA DO MP BELO HORIZONTE - COMARCA; BH-18PJ VIOLENCIA DOMESTICA-SECRETARIA 10.325,15 1.032,52 0,00 0,00 0,00 0,00 0,00 2.796,30 14.153,97 1.598,18 1.762,36 0,00 0,00 3.360,54 10.793,43 28/02/2023
891 297000 ENEIDA SOARES COSTA MELO ANALISTA DO MP PIUMHI - COMARCA; PIUMHI-PJ-01PJ 20.574,59 6.172,38 0,00 0,00 0,00 0,00 490,36 7.260,39 34.497,72 4.060,46 5.369,43 0,00 0,00 9.429,89 25.067,83 28/02/2023
892 276000 ENEZIO RODRIGUES DE SOUZA FILHO OFICIAL DO MP UBERLÂNDIA - COMARCA; UBERLANDIA-PJ-10PJ 11.008,33 3.302,50 0,00 0,00 0,00 0,00 0,00 1.911,00 16.221,83 2.070,68 2.496,68 0,00 0,00 4.567,36 11.654,47 28/02/2023
893 387700 ENI MARIA DOS REIS OFICIAL DO MP POUSO ALEGRE - COMARCA; POUSO ALEGRE-PJ-07PJ 11.008,33 2.201,67 0,00 0,00 0,00 0,00 0,00 1.911,00 15.121,00 1.894,55 2.242,39 0,00 0,00 4.136,94 10.984,06 28/02/2023
894 605100 ENIA MAIA ASSESSOR ADMINISTRATIVO IV BELO HORIZONTE - COMARCA; DIRETORIA DE ORCAMENTO-DIOR/SPC 12.920,95 1.292,10 0,00 0,00 0,00 0,00 521,15 7.596,22 22.330,42 959,93 2.775,25 0,00 0,00 3.735,18 18.595,24 28/02/2023
895 612200 ENILDO GOMES MEIRA FILHO ANALISTA DO MP BELO HORIZONTE - COMARCA; BH-23PJ INFRACIONAL-ASS JURIDICA 10.325,15 1.032,52 0,00 0,00 0,00 0,00 2.252,07 8.247,98 21.857,72 1.878,55 2.062,88 0,00 0,00 3.941,43 17.916,29 28/02/2023
896 553700 ENIVALDO NOVATO PUBLIO ANALISTA DO MP DIVINÓPOLIS - COMARCA; DIVINOPOLIS-PJ-09PJ 11.008,33 1.100,83 0,00 0,00 0,00 0,00 0,00 1.911,00 14.020,16 1.718,41 1.935,96 0,00 0,00 3.654,37 10.365,79 28/02/2023
897 680600 ENZO JOSE FERES SOUZA JABER ASSESSOR PROMOTOR JUSTICA NOVO CRUZEIRO - COMARCA; NOVO CRUZEIRO-PJ-SECRETARIA 0,00 0,00 7.857,77 0,00 2.619,26 0,00 0,00 1.911,00 12.388,03 877,22 2.137,16 0,00 0,00 3.014,38 9.373,65 28/02/2023
898 417300 ERIC BARATTI DA SILVA ANALISTA DO MP FRUTAL - COMARCA; FRUTAL-PJ-05PJ 12.118,97 2.423,79 0,00 0,00 0,00 0,00 0,00 1.911,00 16.453,76 2.107,79 2.550,26 0,00 0,00 4.658,05 11.795,71 28/02/2023
899 637600 ERIC DA ROCHA CHEHUEN ANALISTA DO MP LIMA DUARTE - COMARCA; LIMA DUARTE-PJ-UNPJ 9.999,62 999,96 0,00 0,00 0,00 0,00 0,00 1.911,00 12.910,58 982,16 1.885,43 0,00 0,00 2.867,59 10.042,99 28/02/2023
900 398900 ERIC TEIXEIRA SILVA OFICIAL DO MP UBERLÂNDIA - COMARCA; UBERLANDIA-PJ-SEC CIVEIS CRIMINAIS 10.661,25 2.132,25 0,00 0,00 0,00 0,00 0,00 1.911,00 14.704,50 1.827,91 2.146,18 0,00 0,00 3.974,09 10.730,41 28/02/2023
901 703600 ERICA CORDEIRO SANTOS ASSESSOR PROMOTOR JUSTICA MINAS NOVAS - COMARCA; MINAS NOVAS-PJ-UNPJ 0,00 0,00 7.857,77 0,00 0,00 0,00 0,00 1.911,00 9.768,77 877,22 1.416,87 0,00 0,00 2.294,09 7.474,68 28/02/2023
902 274200 ERICA DE SOUZA ANDRADE OFICIAL DO MP CURVELO - COMARCA; CURVELO-PJ-03PJ 13.341,69 4.002,51 0,00 0,00 0,00 0,00 508,76 7.461,14 25.314,10 2.556,02 3.145,25 0,00 0,00 5.701,27 19.612,83 28/02/2023
903 225700 ERICA GOMES DO COUTO OFICIAL DO MP BELO HORIZONTE - COMARCA; BH-21PJ TUTELA FUNDACOES-SECRETARIA 16.695,70 6.678,28 0,00 0,00 0,00 0,00 0,00 2.796,30 26.170,28 3.520,79 4.590,27 0,00 0,00 8.111,06 18.059,22 28/02/2023
904 632600 ERICA LEONOR MARTINS OFICIAL DO MP RESENDE COSTA - COMARCA; RESENDE COSTA-PJ-UNPJ 6.483,63 648,36 0,00 0,00 0,00 0,00 0,00 1.911,00 9.042,99 923,95 837,85 0,00 0,00 1.761,80 7.281,19 28/02/2023
905 524800 ERICA MACHADO DA COSTA E SOUZA ANALISTA DO MP BELO HORIZONTE - COMARCA; ASSESS TECNICO-JUR JUNTO AS PROC. DE JUST 12.118,97 2.423,79 0,00 0,00 0,00 0,00 1.033,68 1.911,00 17.487,44 2.107,79 2.834,52 0,00 0,00 4.942,31 12.545,13 28/02/2023
906 249500 ERICA RODRIGUES ANDRADE OFICIAL DO MP SÃO FRANCISCO - COMARCA; SAO FRANCISCO-PJ-02PJ 11.008,33 4.403,33 0,00 0,00 0,00 0,00 508,59 7.459,20 23.379,45 2.246,81 2.698,84 0,00 0,00 4.945,65 18.433,80 28/02/2023
907 260800 ERICA VIANA GIARDINI DE OLIVEIRA OFICIAL DO MP BELO HORIZONTE - COMARCA; DIRETORIA GESTAO COMPRAS LICITACOES 11.736,91 3.521,07 0,00 0,00 0,00 0,00 0,00 1.911,00 17.168,98 2.222,23 2.715,47 0,00 0,00 4.937,70 12.231,28 28/02/2023
908 299800 ERICH DOUGLAS RIBEIRO GARCIA ANALISTA DO MP BELO HORIZONTE - COMARCA; CENTRAL DE APOIO TECNICO-SETOR CONTABIL 19.791,01 5.937,30 0,00 0,00 0,00 0,00 471,69 7.056,66 33.256,66 3.897,48 5.134,12 0,00 0,00 9.031,60 24.225,06 28/02/2023
909 365000 ERICK EDUARDO JOSE DA SILVA OFICIAL DO MP JUIZ DE FORA - COMARCA; JUIZ DE FORA-PJ-12PJ 6.694,66 2.008,40 0,00 0,00 0,00 0,00 0,00 1.911,00 10.614,06 1.173,44 1.201,29 0,00 0,00 2.374,73 8.239,33 28/02/2023
910 227400 ERIKA DE LAET GOULART BOECHAT OFICIAL DO MP BELO HORIZONTE - COMARCA; BH-17PJ PATRIMONIO PUBLICO-SECRETARIA 16.695,70 6.678,28 0,00 0,00 0,00 0,00 514,23 7.520,76 31.408,97 3.520,79 4.538,13 0,00 0,00 8.058,92 23.350,05 28/02/2023
911 681301 ERIKA FERNANDA ELISEU FERREIRA ASSESSOR PROCURADOR JUSTICA BELO HORIZONTE - COMARCA; GABINETE DE PROCURADOR DE JUSTIÇA - SALA 411 0,00 0,00 7.857,77 0,00 0,00 0,00 0,00 1.911,00 9.768,77 877,22 1.416,87 0,00 0,00 2.294,09 7.474,68 28/02/2023
912 285100 ERIKA FERREIRA DA SILVA OFICIAL DO MP JUIZ DE FORA - COMARCA; JUIZ DE FORA-PJ-11PJ 11.008,33 3.302,50 0,00 0,00 0,00 0,00 524,73 7.635,33 22.470,89 2.070,68 2.496,68 0,00 0,00 4.567,36 17.903,53 28/02/2023
913 420100 ERIKA JEANINE VERSIANI DE CASTRO ANALISTA DO MP BELO HORIZONTE - COMARCA; CAO-EDUCACAO 16.169,47 3.233,89 0,00 0,00 0,00 0,00 498,02 7.343,94 27.245,32 2.885,49 3.673,05 0,00 0,00 6.558,54 20.686,78 28/02/2023
914 677100 ERIKA LAYS CARDOSO FERNANDES ASSESSOR PROMOTOR JUSTICA GRAO MOGOL - COMARCA; GRAO MOGOL-PJ-UNPJ 0,00 0,00 7.857,77 0,00 0,00 0,00 0,00 1.911,00 9.768,77 877,22 1.416,87 0,00 0,00 2.294,09 7.474,68 28/02/2023
915 606900 ERIKA MARIA BARBOSA ANALISTA DO MP BELO HORIZONTE - COMARCA; CAO-SAUDE 10.325,15 1.032,52 0,00 0,00 0,00 0,00 0,00 1.911,00 13.268,67 1.598,18 1.762,36 0,00 0,00 3.360,54 9.908,13 28/02/2023
916 491000 ERIKA ROCHA PEREIRA E SILVA COORDENADOR II BELO HORIZONTE - COMARCA; DIR GOVERNANCA TECNOLOGIA INFORMACAO 18.312,36 3.662,47 0,00 0,00 0,00 0,00 483,45 7.184,96 29.643,24 2.034,43 4.614,25 0,00 0,00 6.648,68 22.994,56 28/02/2023
917 283201 ERIKA STEHLING COORDENADOR I BELO HORIZONTE - COMARCA; CENTRAL DE APOIO TECNICO-SETOR DE ENGENHARIA 14.687,60 2.937,52 0,00 0,00 0,00 0,00 517,00 7.551,04 25.693,16 1.894,55 3.456,55 0,00 0,00 5.351,10 20.342,06 28/02/2023
918 254000 ERLANDIA DA SILVA MENDES OFICIAL DO MP IPATINGA - COMARCA; IPATINGA-PJ-03PJ 15.659,55 7.829,78 0,00 0,00 0,00 0,00 516,77 7.548,44 31.554,54 3.539,24 4.460,50 0,00 0,00 7.999,74 23.554,80 28/02/2023
919 348500 ERNILANDIA DE OLIVEIRA DIAS OFICIAL DO MP MONTES CLAROS - COMARCA; MONTES CLAROS-PJ-16PJ 11.008,33 3.302,50 0,00 0,00 0,00 0,00 524,73 7.635,33 22.470,89 2.070,68 2.496,68 0,00 0,00 4.567,36 17.903,53 28/02/2023
920 199300 ERTON PORTINARI DE ANDRADE OFICIAL DO MP SETE LAGOAS - COMARCA; SETE LAGOAS-PJ-05PJ 18.312,36 9.156,18 0,00 0,00 0,00 0,00 503,59 7.404,71 35.376,84 4.175,91 5.431,84 0,00 0,00 9.607,75 25.769,09 28/02/2023
921 618800 ESLY DE CARLA AYALLA BARBOSA MENDES OFICIAL DO MP NOVA LIMA - COMARCA; NOVA LIMA-PJ-SECRETARIA 6.081,20 608,12 0,00 0,00 0,00 0,00 0,00 1.911,00 8.600,32 855,73 734,88 0,00 0,00 1.590,61 7.009,71 28/02/2023
922 537000 ESTANISLAU CORREIA ALMEIDA JUNIOR OFICIAL DO MP UBERLÂNDIA - COMARCA; UBERLANDIA-PJ-25PJ 6.694,66 669,47 0,00 0,00 0,00 0,00 540,04 7.802,30 15.706,47 959,93 891,80 0,00 0,00 1.851,73 13.854,74 28/02/2023
923 692100 ESTEFANIA FARIA FERREIRA ASSESSOR PROCURADOR JUSTICA BELO HORIZONTE - COMARCA; GABINETE DE PROCURADOR DE JUSTIÇA - SALA 814 0,00 0,00 7.857,77 0,00 2.619,26 0,00 172,87 3.796,86 14.446,76 877,22 2.137,16 0,00 0,00 3.014,38 11.432,38 28/02/2023
924 326900 ESTER ALICE PIMENTA OFICIAL DO MP BELO HORIZONTE - COMARCA; COORD DE INCLUSAO E MOBILIZACAO SOCIAIS 11.008,33 3.302,50 0,00 0,00 0,00 0,00 524,73 7.635,33 22.470,89 2.070,68 2.496,68 0,00 0,00 4.567,36 17.903,53 28/02/2023
925 503700 ESTHER GONCALVES FONSECA ANALISTA DO MP BELO HORIZONTE - COMARCA; DIR CRIACAO E MIDIAS 11.008,33 2.201,67 0,00 0,00 0,00 0,00 0,00 1.911,00 15.121,00 1.894,55 2.242,39 0,00 0,00 4.136,94 10.984,06 28/02/2023
926 475600 ETIENE DE FATIMA OLIVEIRA PEREIRA ANALISTA DO MP PATROCÍNIO - COMARCA; PATROCINIO-PJ-04PJ 11.008,33 2.201,67 0,00 0,00 0,00 0,00 0,00 1.911,00 15.121,00 982,16 2.302,77 0,00 0,00 3.284,93 11.836,07 28/02/2023
927 428800 EUGENIA RODRIGUES TRAJANO BORGES ANALISTA DO MP UBERABA - COMARCA; UBERABA-PJ-10PJ 15.659,55 3.131,91 0,00 0,00 0,00 0,00 0,00 2.796,30 21.587,76 2.787,58 3.531,71 0,00 0,00 6.319,29 15.268,47 28/02/2023
928 272700 EUGENIO DE BARCELOS FILHO OFICIAL DO MP FRUTAL - COMARCA; FRUTAL-PJ-03PJ 11.008,33 3.302,50 0,00 0,00 0,00 0,00 524,73 7.635,33 22.470,89 2.070,68 2.496,68 0,00 0,00 4.567,36 17.903,53 28/02/2023
929 254100 EULALIA ALVES MIRANDA LUCAS OFICIAL DO MP ALMENARA - COMARCA; ALMENARA-PJ-02PJ 14.224,47 7.112,24 0,00 0,00 0,00 0,00 547,64 7.885,28 29.769,63 3.194,82 4.015,39 0,00 0,00 7.210,21 22.559,42 28/02/2023
930 641200 EUNICE ELVIRA DA SILVA MATOS OFICIAL DO MP BELO HORIZONTE - COMARCA; BH-14PJ DEFESA CONSUMIDOR-SECRETARIA 5.889,39 588,94 0,00 0,00 0,00 0,00 0,00 1.911,00 8.389,33 824,08 685,56 0,00 0,00 1.509,64 6.879,69 28/02/2023
931 557900 EURIPEDES JOSUE PERES OFICIAL DO MP IBIÁ - COMARCA; IBIA-PJ-UNPJ 6.694,66 669,47 0,00 0,00 0,00 0,00 0,00 1.911,00 9.275,13 959,93 891,80 0,00 0,00 1.851,73 7.423,40 28/02/2023
932 225800 EURO CESAR VIEIRA BARBOSA ANALISTA DO MP BELO HORIZONTE - COMARCA; BH-17PJ PATRIMONIO PUBLICO-SECRETARIA 20.574,59 8.229,84 0,00 0,00 0,00 0,00 528,08 7.671,89 37.004,40 4.389,66 5.740,43 0,00 0,00 10.130,09 26.874,31 28/02/2023
933 199400 EUSTAQUIO ADAILTON LIMA E SILVA OFICIAL DO MP MANGA - COMARCA; MANGA-PJ-01PJ 18.312,36 12.818,66 0,00 0,00 0,00 0,00 456,59 6.891,96 38.479,57 4.761,91 6.225,73 0,00 0,00 10.987,64 27.491,93 28/02/2023
934 548000 EVA VILMA LEAO REIS JULIO OFICIAL DO MP BELO HORIZONTE - COMARCA; BH-07PJ 01 TRIBUNAL JURI-SECRETARIA 6.694,66 2.677,86 0,00 0,00 0,00 0,00 0,00 1.911,00 11.283,52 1.280,55 1.355,93 0,00 0,00 2.636,48 8.647,04 28/02/2023
935 517000 EVALDO SENA COSTA FILHO ANALISTA DO MP CONTAGEM - COMARCA; CONTAGEM-PJ-20PJ 11.008,33 4.403,33 0,00 0,00 0,00 0,00 0,00 1.911,00 17.322,66 2.246,81 2.646,70 0,00 0,00 4.893,51 12.429,15 28/02/2023
936 217500 EVELANGE LEAO RABELO ASSESSOR ADMINISTRATIVO II BELO HORIZONTE - COMARCA; CAO-PESSOAS IDOSAS E PESSOAS COM DEFICIENCIA 0,00 2.677,86 6.694,66 0,00 0,00 0,00 0,00 1.911,00 11.283,52 877,22 1.833,42 0,00 0,00 2.710,64 8.572,88 28/02/2023
937 679600 EVERTON BARBOSA DA SILVA ASSESSOR PROCURADOR JUSTICA BELO HORIZONTE - COMARCA; GABINETE DE PROCURADOR DE JUSTIÇA - SALA 510 0,00 0,00 7.857,77 0,00 0,00 0,00 0,00 1.911,00 9.768,77 877,22 1.416,87 0,00 0,00 2.294,09 7.474,68 28/02/2023
938 540400 EVIE SARAMELLA DE RESENDE OFICIAL DO MP BARBACENA - COMARCA; BARBACENA-PJ-05PJ 6.694,66 669,47 0,00 0,00 0,00 0,00 0,00 1.911,00 9.275,13 959,93 891,80 0,00 0,00 1.851,73 7.423,40 28/02/2023
939 469000 EWERTON CARDOSO DE SA RODRIGUES ANALISTA DO MP CAMPO BELO - COMARCA; CAMPO BELO-PJ-02PJ 11.008,33 2.201,67 0,00 0,00 0,00 0,00 532,80 7.723,40 21.466,20 1.894,55 2.138,11 0,00 0,00 4.032,66 17.433,54 28/02/2023
940 368900 FABIANA BARBOSA SIQUEIRA OFICIAL DO MP BELO HORIZONTE - COMARCA; CAO-ORDEM ECONOMICA E TRIBUTARIA-SECRETARIA 12.118,97 3.635,69 0,00 0,00 0,00 0,00 519,90 7.582,68 23.857,24 2.301,69 2.778,07 0,00 0,00 5.079,76 18.777,48 28/02/2023
941 273800 FABIANA CARNEIRO AMORIM OFICIAL DO MP BELO HORIZONTE - COMARCA; BH-23PJ CIVEL-COORD ADM CIVEL 13.776,02 4.132,81 3.876,29 0,00 0,00 0,00 479,27 7.139,43 29.403,82 2.646,36 4.341,66 0,00 0,00 6.988,02 22.415,80 28/02/2023
942 519300 FABIANA DE OLIVEIRA LOUREIRO ANALISTA DO MP BELO HORIZONTE - COMARCA; BH-09PJ AUDITORIA MILITAR-SECRETARIA 11.008,33 2.201,67 0,00 0,00 0,00 0,00 0,00 1.911,00 15.121,00 1.894,55 2.242,39 0,00 0,00 4.136,94 10.984,06 28/02/2023
943 363400 FABIANA DOURADO DUPIN VIEGAS ANALISTA DO MP BELO HORIZONTE - COMARCA; GABINETE DE PROCURADOR DE JUSTIÇA - SALA 705 19.037,29 5.711,19 0,00 0,00 0,00 0,00 0,00 1.911,00 26.659,48 3.740,71 4.855,64 0,00 0,00 8.596,35 18.063,13 28/02/2023
944 410800 FABIANA DUARTE QUITITE ANALISTA DO MP BELO HORIZONTE - COMARCA; BH-15PJ M AMB PAT HIST CULT-GAB 116PJ 16.169,47 3.233,89 0,00 0,00 0,00 0,00 498,02 7.343,94 27.245,32 2.885,49 3.673,05 0,00 0,00 6.558,54 20.686,78 28/02/2023
945 419500 FABIANA EULALIA DOS SANTOS ANALISTA DO MP SÃO JOÃO DEL REI - COMARCA; SAO JOAO DEL REI-PJ-01PJ 16.169,47 3.233,89 0,00 0,00 0,00 0,00 498,02 7.343,94 27.245,32 2.885,49 3.673,05 0,00 0,00 6.558,54 20.686,78 28/02/2023
946 725200 FABIANA LOPES DE JESUS ASSESSOR PROMOTOR JUSTICA CONTAGEM - COMARCA; CONTAGEM-PJ-01PJ 0,00 0,00 7.857,77 0,00 0,00 0,00 0,00 1.911,00 9.768,77 877,22 1.416,87 0,00 0,00 2.294,09 7.474,68 28/02/2023
947 700300 FABIANA MARCIA DE SOUZA ASSESSOR ADMINISTRATIVO II BELO HORIZONTE - COMARCA; DIRET DE CONTROLE E DE MANUTENCAO DE IMOVEIS 0,00 0,00 6.694,66 0,00 0,00 0,00 0,00 1.911,00 8.605,66 877,22 1.097,01 0,00 0,00 1.974,23 6.631,43 28/02/2023
948 331500 FABIANA PACHECO OFICIAL DO MP GUAXUPÉ - COMARCA; GUAXUPE-PJ-01PJ 11.008,33 3.302,50 0,00 0,00 0,00 0,00 0,00 2.176,59 16.487,42 2.070,68 2.392,41 0,00 0,00 4.463,09 12.024,33 28/02/2023
949 510700 FABIANA PEREIRA SANTOS BORGES ANALISTA DO MP BELO HORIZONTE - COMARCA; DIRETORIA DE SISTEMAS DE INFORMACAO 11.008,33 2.201,67 4.939,72 0,00 0,00 0,00 0,00 1.911,00 20.060,72 1.894,55 3.548,67 0,00 0,00 5.443,22 14.617,50 28/02/2023
950 181700 FABIANA SOUZA FERREIRA OFICIAL DO MP BELO HORIZONTE - COMARCA; BH-19PJ SAUDE-SECRETARIA 150PJ 6.694,66 2.677,86 0,00 0,00 0,00 0,00 0,00 1.911,00 11.283,52 1.280,55 1.251,66 0,00 0,00 2.532,21 8.751,31 28/02/2023
951 272900 FABIANA STOCKLER LEITE OFICIAL DO MP LAJINHA - COMARCA; LAJINHA-PJ-SECRETARIA 11.008,33 5.504,17 0,00 0,00 0,00 0,00 544,91 7.855,50 24.912,91 2.422,95 2.953,13 0,00 0,00 5.376,08 19.536,83 28/02/2023
952 225500 FABIANE DE FATIMA PORTELLA ANALISTA DO MP BELO HORIZONTE - COMARCA; BH-18PJ DIREITOS HUMANOS-SECRETARIA 20.574,59 8.229,84 0,00 0,00 0,00 0,00 0,00 1.911,00 30.715,43 4.389,66 5.844,70 0,00 0,00 10.234,36 20.481,07 28/02/2023
953 433800 FABIANE DINIZ MATTOS ANALISTA DO MP BELO HORIZONTE - COMARCA; BH-23PJ INFRACIONAL-ASS JURIDICA 16.169,47 3.233,89 0,00 0,00 0,00 0,00 3.991,55 3.681,60 27.076,51 3.524,13 4.595,10 0,00 0,00 8.119,23 18.957,28 28/02/2023
954 455000 FABIANO CARVALHO DA SILVA ANALISTA DO MP LAVRAS - COMARCA; LAVRAS-PJ-05PJ 11.008,33 2.201,67 0,00 0,00 4.403,33 0,00 532,80 7.723,40 25.869,53 1.894,55 3.453,30 0,00 0,00 5.347,85 20.521,68 28/02/2023
955 498800 FABIANO FURTADO PESSOA COELHO ANALISTA DO MP BELO HORIZONTE - COMARCA; DIRETORIA DE REDES E BANCOS DE DADOS 11.008,33 2.201,67 3.585,64 0,00 0,00 0,00 0,00 1.911,00 18.706,64 1.894,55 3.124,17 0,00 0,00 5.018,72 13.687,92 28/02/2023
956 663000 FABIANO MARQUES CORREA ASSESSOR ADMINISTRATIVO II BELO HORIZONTE - COMARCA; DIRETORIA DE SUPORTE E MANUTENCAO 0,00 0,00 6.694,66 0,00 0,00 0,00 0,00 1.911,00 8.605,66 877,22 1.097,01 0,00 0,00 1.974,23 6.631,43 28/02/2023
957 394600 FABIANO PALHARES SILVA ANALISTA DO MP BELO HORIZONTE - COMARCA; CENTRAL DE APOIO TECN-SETOR DE MEIO AMBIENTE 16.695,70 3.339,14 0,00 0,00 0,00 0,00 0,00 1.911,00 21.945,84 2.986,52 3.766,79 0,00 0,00 6.753,31 15.192,53 28/02/2023
958 676600 FABIANO RESENDE VELOSO ASSESSOR PROCURADOR JUSTICA BELO HORIZONTE - COMARCA; GABINETE DE PROCURADOR DE JUSTIÇA - SALA 1002 0,00 0,00 7.857,77 0,00 0,00 0,00 0,00 1.911,00 9.768,77 877,22 1.416,87 0,00 0,00 2.294,09 7.474,68 28/02/2023
959 444400 FABIANO SARAIVA MEDEIROS ANALISTA DO MP BETIM - COMARCA; BETIM-PJ-11PJ 15.659,55 3.131,91 0,00 0,00 0,00 0,00 137,80 3.414,32 22.343,58 2.787,58 3.427,43 0,00 0,00 6.215,01 16.128,57 28/02/2023
960 408700 FABIANO SOARES PORTILHO ANALISTA DO MP JUIZ DE FORA - COMARCA; GAECO REGIONAL DA ZONA DA MATA-JUIZ DE FORA 16.169,47 3.233,89 0,00 0,00 0,00 0,00 498,02 7.343,94 27.245,32 2.885,49 3.673,05 0,00 0,00 6.558,54 20.686,78 28/02/2023
961 442600 FABIO CARVALHO VIEIRA ANALISTA DO MP MONTES CLAROS - COMARCA; MONTES CLAROS-PJ-06PJ 11.008,33 2.201,67 0,00 0,00 0,00 0,00 0,00 1.911,00 15.121,00 1.894,55 2.242,39 0,00 0,00 4.136,94 10.984,06 28/02/2023
962 716600 FABIO DAMASCENA MONTEIRO DE CARVALHO ASSESSOR PROMOTOR JUSTICA JACINTO - COMARCA; JACINTO-PJ-UNPJ 0,00 0,00 7.857,77 0,00 0,00 0,00 0,00 1.911,00 9.768,77 877,22 1.416,87 0,00 0,00 2.294,09 7.474,68 28/02/2023
963 702700 FABIO JUNIOR COSTA BARREIROS ASSESSOR ADMINISTRATIVO I BELO HORIZONTE - COMARCA; DIVISAO DE MANUTENCAO PREDIAL 0,00 0,00 4.345,58 0,00 0,00 0,00 0,00 1.911,00 6.256,58 621,17 250,57 0,00 0,00 871,74 5.384,84 28/02/2023
964 240101 FABIO JUNQUEIRA DE ASSIS FONSECA OFICIAL DO MP BELO HORIZONTE - COMARCA; BH-17PJ PATRIMONIO PUBLICO-SECRETARIA 9.223,00 2.766,90 0,00 0,00 0,00 0,00 43,96 2.390,60 14.424,46 1.699,33 1.960,55 0,00 0,00 3.659,88 10.764,58 28/02/2023
965 271500 FABIO LUIZ VIEIRA OFICIAL DO MP SANTA VITÓRIA - COMARCA; SANTA VITORIA-PJ-UNPJ 11.008,33 3.302,50 0,00 0,00 0,00 0,00 524,73 7.713,45 22.549,01 2.070,68 2.444,54 0,00 0,00 4.515,22 18.033,79 28/02/2023
966 213100 FABIO PRATES GONCALVES ASSESSOR ADMINISTRATIVO IV BELO HORIZONTE - COMARCA; DIR RELACOES INSTITUCIONAIS 0,00 5.168,38 12.920,95 0,00 0,00 0,00 0,00 1.911,00 20.000,33 877,22 4.074,13 0,00 0,00 4.951,35 15.048,98 28/02/2023
967 436700 FABIO SANTIAGO DE CARVALHO OFICIAL DO MP POÇO FUNDO - COMARCA; POCO FUNDO-PJ-UNPJ 9.999,62 1.999,92 0,00 0,00 0,00 0,00 527,98 7.670,78 20.198,30 1.700,87 1.962,77 0,00 0,00 3.663,64 16.534,66 28/02/2023
968 208400 FABIOLA DE SOUSA CARDOSO ANALISTA DO MP BELO HORIZONTE - COMARCA; CGMP-ASSESSORIA JURIDICA 20.574,59 8.229,84 5.493,71 0,00 0,00 0,00 503,04 7.398,70 42.199,88 4.389,66 7.355,47 0,00 0,00 11.745,13 30.454,75 28/02/2023
969 392200 FABIOLA LEROY COSTA ANALISTA DO MP ESMERALDAS - COMARCA; ESMERALDAS-PJ-01PJ 11.008,33 2.201,67 0,00 0,00 0,00 0,00 0,00 3.681,60 16.891,60 1.894,55 2.242,39 0,00 0,00 4.136,94 12.754,66 28/02/2023
970 409000 FABIOLA MONTEIRO DE CARVALHO CASTRO ANALISTA DO MP BOM SUCESSO - COMARCA; BOM SUCESSO-PJ-UNPJ 13.776,02 2.755,20 0,00 0,00 0,00 0,00 60,61 2.572,25 19.164,08 2.425,94 3.009,59 0,00 0,00 5.435,53 13.728,55 28/02/2023
971 525800 FABRICIA ALVES DANTAS OFICIAL DO MP MONTES CLAROS - COMARCA; MONTES CLAROS-PJ-01PJ 8.650,50 1.730,10 0,00 0,00 0,00 0,00 418,68 6.478,46 17.277,74 1.441,84 1.536,66 0,00 0,00 2.978,50 14.299,24 28/02/2023
972 263400 FABRICIA PINTO TEIXEIRA SANTIAGO OFICIAL DO MP BELO HORIZONTE - COMARCA; CAO-FUNDACOES-SECRETARIA 15.659,55 4.697,87 0,00 0,00 0,00 0,00 522,51 7.611,08 28.491,01 3.038,14 3.789,17 0,00 0,00 6.827,31 21.663,70 28/02/2023
973 420800 FABRICIO BERNARDES DE OLIVEIRA OFICIAL DO MP ITURAMA - COMARCA; ITURAMA-PJ-02PJ 9.999,62 1.999,92 0,00 0,00 0,00 0,00 527,98 8.608,28 21.135,80 1.700,87 1.910,64 0,00 0,00 3.611,51 17.524,29 28/02/2023
974 474000 FABRICIO DE FREITAS SALES ANALISTA DO MP MONTES CLAROS - COMARCA; COORD REG PP NORTE MINAS GERAIS MONTES CLAROS 11.008,33 2.201,67 0,00 0,00 0,00 0,00 532,80 7.723,40 21.466,20 1.894,55 2.242,39 0,00 0,00 4.136,94 17.329,26 28/02/2023
975 510100 FABRICIO FURTADO ASSIS DO CARMO ANALISTA DO MP BELO HORIZONTE - COMARCA; SERVICO MEDICO-DEPTO PERIC MEDICA SAUDE OCUP 11.008,33 2.201,67 0,00 0,00 0,00 0,00 1.053,33 3.681,60 17.944,93 1.894,55 2.532,05 0,00 0,00 4.426,60 13.518,33 28/02/2023
976 519600 FABRICIO GONTIJO SALVATI ANALISTA DO MP JUIZ DE FORA - COMARCA; JUIZ DE FORA-CAO ESPECIALIZADO-SECRETARIA 11.008,33 2.201,67 0,00 0,00 0,00 0,00 532,80 7.723,40 21.466,20 1.894,55 2.242,39 0,00 0,00 4.136,94 17.329,26 28/02/2023
977 637400 FABRICIO HENRIQUE DA SILVA PASSOS ANALISTA DO MP BELO HORIZONTE - COMARCA; DIR CRIACAO E MIDIAS 11.008,33 1.100,83 3.585,64 0,00 0,00 0,00 3.114,16 1.911,00 20.719,96 1.718,41 3.830,54 0,00 0,00 5.548,95 15.171,01 28/02/2023
978 428200 FABRICIO ORZIL VIANA ANALISTA DO MP SANTA LUZIA - COMARCA; SANTA LUZIA-PJ-04PJ 11.008,33 2.201,67 0,00 0,00 0,00 0,00 532,80 7.723,40 21.466,20 1.894,55 2.242,39 0,00 0,00 4.136,94 17.329,26 28/02/2023
979 455600 FABRICIO PAIVA DA ROCHA ANALISTA DO MP SÃO JOÃO DEL REI - COMARCA; SAO JOAO DEL REI-PJ-06PJ 11.008,33 2.201,67 0,00 0,00 0,00 0,00 532,80 8.608,70 22.351,50 1.894,55 2.190,25 0,00 0,00 4.084,80 18.266,70 28/02/2023
980 511500 FABRICIO RENE CARDOSO DE PADUA ANALISTA DO MP SÃO SEBASTIÃO DO PARAÍSO - COMARCA; SAO SEBASTIAO DO PARAISO-PJ-03PJ 11.008,33 2.201,67 0,00 0,00 0,00 0,00 532,80 7.723,40 21.466,20 1.894,55 2.242,39 0,00 0,00 4.136,94 17.329,26 28/02/2023
981 496100 FABRICIO RESENDE GONCALVES OFICIAL DO MP ENTRE-RIOS DE MINAS - COMARCA; ENTRE RIOS DE MINAS-PJ-UNPJ 8.650,50 1.730,10 0,00 0,00 0,00 0,00 0,00 1.911,00 12.291,60 1.441,84 1.588,80 0,00 0,00 3.030,64 9.260,96 28/02/2023
982 650300 FABRICIO ROBERTO AZEVEDO OFICIAL DO MP NOVA SERRANA - COMARCA; NOVA SERRANA-PJ-04PJ 5.438,14 543,81 0,00 0,00 0,00 0,00 0,00 1.911,00 7.892,95 749,62 569,53 0,00 0,00 1.319,15 6.573,80 28/02/2023
983 514900 FADUA MARIA DRUMOND CHEQUER ANALISTA DO MP BETIM - COMARCA; BETIM-PJ-12PJ 11.008,33 2.201,67 0,00 0,00 0,00 0,00 532,80 7.723,40 21.466,20 1.894,55 2.138,11 0,00 0,00 4.032,66 17.433,54 28/02/2023
984 282500 FANNY FERREIRA MELO OFICIAL DO MP ARAXÁ - COMARCA; ARAXA-PJ-03PJ 11.736,91 3.521,07 0,00 0,00 0,00 0,00 0,00 1.911,00 17.168,98 2.222,23 2.715,47 0,00 0,00 4.937,70 12.231,28 28/02/2023
985 692500 FARID JUNIOR NUNES DA SILVA ASSESSOR PROCURADOR JUSTICA BELO HORIZONTE - COMARCA; GABINETE DE PROCURADOR DE JUSTIÇA - SALA 912 0,00 0,00 7.857,77 0,00 0,00 0,00 172,87 3.796,86 11.827,50 877,22 1.312,59 0,00 0,00 2.189,81 9.637,69 28/02/2023
986 382800 FATIMA DE OLIVEIRA COELHO E SILVA OFICIAL DO MP BELO HORIZONTE - COMARCA; DIRETORIA DE ADMINISTRACAO FINANCEIRA 9.999,62 3.999,85 3.585,64 0,00 0,00 0,00 0,00 1.911,00 19.496,11 2.020,86 3.358,67 0,00 185,69 5.565,22 13.930,89 28/02/2023
987 398601 FELIPE ANTONIO HORTA DE PAULA ANALISTA DO MP BELO HORIZONTE - COMARCA; PROC. JUSTICA DIR. DIFUSOS E COLETIVOS-SEC 11.008,33 1.100,83 0,00 0,00 4.036,39 0,00 532,80 7.723,40 24.401,75 1.718,41 3.098,10 0,00 0,00 4.816,51 19.585,24 28/02/2023
988 430900 FELIPE BOY VIEIRA ANALISTA DO MP BELO HORIZONTE - COMARCA; DIRETORIA DE SEGURANCA 14.224,47 2.844,89 0,00 0,00 0,00 0,00 0,00 1.911,00 18.980,36 982,16 3.357,41 0,00 0,00 4.339,57 14.640,79 28/02/2023
989 631700 FELIPE DE MORAIS SIMOES COELHO ANALISTA DO MP BELO HORIZONTE - COMARCA; BH-18PJ VIOLENCIA DOMESTICA-SECRETARIA 9.378,86 937,89 0,00 0,00 0,00 0,00 0,00 1.911,00 12.227,75 1.431,63 1.574,05 0,00 0,00 3.005,68 9.222,07 28/02/2023
990 549100 FELIPE FERNANDES ALVIM ANALISTA DO MP LAJINHA - COMARCA; LAJINHA-PJ-UNPJ 11.008,33 1.100,83 0,00 0,00 0,00 0,00 532,80 8.608,70 21.250,66 1.718,41 1.988,10 0,00 0,00 3.706,51 17.544,15 28/02/2023
991 693100 FELIPE FROIS DO AMARAL ASSESSOR PROMOTOR JUSTICA RIBEIRÃO DAS NEVES - COMARCA; RIBEIRAO NEVES-SEC PJ EXECUCAO PENAL 0,00 0,00 7.857,77 0,00 2.619,26 0,00 172,87 3.796,86 14.446,76 877,22 2.032,89 0,00 0,00 2.910,11 11.536,65 28/02/2023
992 620100 FELIPE GOMES DE AZEVEDO OFICIAL DO MP BELO HORIZONTE - COMARCA; DIVISAO DE SERVICOS 6.081,20 608,12 3.585,64 0,00 0,00 0,00 0,00 1.911,00 12.185,96 855,73 1.720,93 0,00 0,00 2.576,66 9.609,30 28/02/2023
993 601600 FELIPE RODRIGUES DE SIQUEIRA ANALISTA DO MP BELO HORIZONTE - COMARCA; BH-02PJ FAMILIA-SECRETARIA 11.008,33 1.100,83 0,00 0,00 0,00 0,00 133,20 3.364,10 15.606,46 982,16 1.665,99 0,00 0,00 2.648,15 12.958,31 28/02/2023
994 628900 FELIX FERNANDO JUNIO VIEIRA ANALISTA DO MP BELO HORIZONTE - COMARCA; BH-21PJ TUTELA DAS FUNDACOES-ASS CURADORES 10.325,15 1.032,52 0,00 0,00 0,00 0,00 499,74 8.247,98 20.105,39 1.598,18 1.710,23 0,00 0,00 3.308,41 16.796,98 28/02/2023
995 544500 FELLIPE LEMOS MARCONDES BUENO ANALISTA DO MP SÃO SEBASTIÃO DO PARAÍSO - COMARCA; SAO SEBASTIAO DO PARAISO-PJ-04PJ 11.008,33 1.100,83 0,00 0,00 0,00 0,00 532,80 7.723,40 20.365,36 1.718,41 1.988,10 0,00 0,00 3.706,51 16.658,85 28/02/2023
996 688500 FELLIPE TADEU DE ANDRADE RAMOS ASSESSOR PROCURADOR JUSTICA BELO HORIZONTE - COMARCA; GABINETE DE PROCURADOR DE JUSTIÇA - SALA 907 0,00 0,00 7.857,77 0,00 2.619,26 0,00 172,87 3.796,86 14.446,76 877,22 2.137,16 0,00 0,00 3.014,38 11.432,38 28/02/2023
997 612600 FERNANDA ADRIANA DE PAULA GUIDO ANALISTA DO MP BELO HORIZONTE - COMARCA; SUPERINTENDENCIA GESTÃO DE PESSOAS 10.325,15 1.032,52 0,00 0,00 0,00 0,00 499,74 8.247,98 20.105,39 1.598,18 1.814,50 0,00 0,00 3.412,68 16.692,71 28/02/2023
998 508400 FERNANDA AGANETTI MATTOS DE OLIVEIRA ANALISTA DO MP BELO HORIZONTE - COMARCA; SUPER DE RECURSOS HUMANOS-COOP REMOTA 11.008,33 2.201,67 0,00 0,00 0,00 0,00 0,00 3.681,60 16.891,60 982,16 2.493,30 0,00 0,00 3.475,46 13.416,14 28/02/2023
999 453600 FERNANDA ALBERNAZ RABELO ANALISTA DO MP BELO HORIZONTE - COMARCA; GABINETE DE PROCURADOR DE JUSTIÇA - SALA 616 11.008,33 2.201,67 0,00 0,00 0,00 0,00 0,00 2.796,30 16.006,30 1.894,55 2.242,39 0,00 0,00 4.136,94 11.869,36 28/02/2023
1000 255600 FERNANDA ALINA DE ALMEIDA ANDRADE OFICIAL DO MP BELO HORIZONTE - COMARCA; DIRETORIA DE INTELIGENCIA 11.008,33 4.403,33 0,00 0,00 0,00 0,00 0,00 1.911,00 17.322,66 2.246,81 2.750,97 0,00 0,00 4.997,78 12.324,88 28/02/2023
1001 443200 FERNANDA ALMEIDA LOPES ANALISTA DO MP CONTAGEM - COMARCA; CONTAGEM-PJ-10PJ 15.659,55 3.131,91 0,00 0,00 0,00 0,00 0,00 2.796,30 21.587,76 2.787,58 3.427,43 0,00 0,00 6.215,01 15.372,75 28/02/2023
1002 281100 FERNANDA ANANIAS MEIRA ANALISTA DO MP BELO HORIZONTE - COMARCA; BH-23PJ INFRACIONAL-ASS JURIDICA 19.791,01 5.937,30 0,00 0,00 0,00 0,00 471,69 7.056,66 33.256,66 3.897,48 5.134,12 0,00 0,00 9.031,60 24.225,06 28/02/2023
1003 539000 FERNANDA BARBOSA ALVES ANALISTA DO MP UBERABA - COMARCA; UBERABA-PJ-04PJ 11.008,33 1.100,83 0,00 0,00 0,00 0,00 0,00 2.796,30 14.905,46 1.718,41 1.988,10 0,00 0,00 3.706,51 11.198,95 28/02/2023
1004 451200 FERNANDA BLOISE PRADO OFICIAL DO MP BELO HORIZONTE - COMARCA; GAECO - SECRETARIA 9.378,86 1.875,77 0,00 0,00 0,00 0,00 536,47 7.763,41 19.554,51 1.581,69 1.790,70 0,00 0,00 3.372,39 16.182,12 28/02/2023
1005 427900 FERNANDA BRAGA CARNEIRO BICALHO ANALISTA DO MP PEÇANHA - COMARCA; PECANHA-PJ-SECRETARIA 11.008,33 2.201,67 0,00 0,00 0,00 0,00 0,00 1.911,00 15.121,00 1.894,55 2.190,25 0,00 0,00 4.084,80 11.036,20 28/02/2023
1006 507100 FERNANDA CABRINI VAZ MOTA ANALISTA DO MP BELO HORIZONTE - COMARCA; DIVISAO DE MATERIAIS 11.008,33 2.201,67 0,00 0,00 0,00 0,00 441,51 3.681,60 17.333,11 982,16 2.497,10 0,00 0,00 3.479,26 13.853,85 28/02/2023
1007 259800 FERNANDA CALZAVARA DE SOUSA OFICIAL DO MP BELO HORIZONTE - COMARCA; DIRET DE INFORMACAO E CONHECIMENTO-DINC/CEAF 15.659,55 4.697,87 5.493,71 0,00 8.617,04 0,00 473,94 7.966,53 42.908,64 3.038,14 7.721,76 0,00 0,00 10.759,90 32.148,74 28/02/2023
1008 494400 FERNANDA CAMPOS BARATA OFICIAL DO MP JUIZ DE FORA - COMARCA; JUIZ DE FORA-PJ-08PJ 6.694,66 1.338,93 0,00 0,00 0,00 0,00 0,00 1.911,00 9.944,59 1.066,32 1.046,64 0,00 0,00 2.112,96 7.831,63 28/02/2023
1009 555600 FERNANDA CAROLINE RIBEIRO ANALISTA DO MP BELO HORIZONTE - COMARCA; DIRETORIA GESTAO CONTRATOS CONVENIOS 11.008,33 1.100,83 0,00 0,00 0,00 0,00 0,00 1.911,00 14.020,16 1.718,41 1.988,10 0,00 0,00 3.706,51 10.313,65 28/02/2023
1010 692000 FERNANDA CESAR SILVA ASSESSOR PROCURADOR JUSTICA BELO HORIZONTE - COMARCA; GABINETE DE PROCURADOR DE JUSTIÇA - SALA 809 0,00 0,00 7.857,77 0,00 0,00 0,00 432,18 6.625,66 14.915,61 877,22 1.416,87 0,00 0,00 2.294,09 12.621,52 28/02/2023
1011 294500 FERNANDA COSTA FLORES OFICIAL DO MP PARÁ DE MINAS - COMARCA; PARA DE MINAS-PJ-04PJ 11.736,91 3.521,07 0,00 0,00 0,00 0,00 503,51 7.403,87 23.165,36 2.222,23 2.715,47 0,00 0,00 4.937,70 18.227,66 28/02/2023
1012 344500 FERNANDA CRISTINA DE SOUZA PAZ ASSESSOR ADMINISTRATIVO II BELO HORIZONTE - COMARCA; CENTRAL DE APOIO TECN-SETOR DE MEIO AMBIENTE 0,00 0,00 6.694,66 0,00 0,00 0,00 0,00 1.911,00 8.605,66 877,22 992,74 0,00 0,00 1.869,96 6.735,70 28/02/2023
1013 538100 FERNANDA CRISTINA DOS SANTOS ROSA OFICIAL DO MP RIBEIRÃO DAS NEVES - COMARCA; RIBEIRAO DAS NEVES-PJ-04PJ 6.694,66 2.677,86 0,00 0,00 0,00 0,00 0,00 1.911,00 11.283,52 1.280,55 1.355,93 0,00 0,00 2.636,48 8.647,04 28/02/2023
1014 337800 FERNANDA CRISTINA ROLAND CLIMACO MENDES COORDENADOR II BELO HORIZONTE - COMARCA; DIRETORIA DE PAGAMENTO DE PESSOAL-DPAG 18.312,36 5.493,71 0,00 0,00 0,00 0,00 523,73 7.624,46 31.954,26 2.646,36 4.949,56 0,00 0,00 7.595,92 24.358,34 28/02/2023
1015 545400 FERNANDA CUNHA GUIMARAES ANALISTA DO MP BELO HORIZONTE - COMARCA; CAO-VIOLENCIA DOMESTICA E FAMILIAR 11.008,33 1.100,83 0,00 0,00 0,00 0,00 532,80 7.723,40 20.365,36 1.718,41 1.988,10 0,00 0,00 3.706,51 16.658,85 28/02/2023
1016 429801 FERNANDA CUNHA PINHEIRO DA SILVA ANALISTA DO MP BELO HORIZONTE - COMARCA; ASSESSORIA DE COMUNICACAO INTEGRADA 11.008,33 2.201,67 0,00 0,00 0,00 0,00 0,00 1.911,00 15.121,00 1.894,55 2.138,11 0,00 0,00 4.032,66 11.088,34 28/02/2023
1017 408000 FERNANDA DAS NEVES RAMOS ANALISTA DO MP BELO HORIZONTE - COMARCA; FEPDC-SECRETARIA EXECUTIVA 16.169,47 3.233,89 0,00 0,00 0,00 0,00 0,00 1.911,00 21.314,36 2.885,49 3.673,05 0,00 0,00 6.558,54 14.755,82 28/02/2023
1018 496000 FERNANDA DE ALMEIDA VIANA ANALISTA DO MP BELO HORIZONTE - COMARCA; PROC JUST ATUACAO TRIBUNAIS SUPERIORES-GAB002 11.008,33 2.201,67 0,00 0,00 0,00 0,00 532,80 9.494,00 23.236,80 1.894,55 2.138,11 0,00 0,00 4.032,66 19.204,14 28/02/2023
1019 266700 FERNANDA DE CASTRO LUCAS OFICIAL DO MP BELO HORIZONTE - COMARCA; DIRET DE DESENV DE RECURSOS HUMANOS-DDRH 15.659,55 4.697,87 5.493,71 0,00 0,00 0,00 1.136,61 7.966,53 34.954,27 3.038,14 5.534,31 0,00 0,00 8.572,45 26.381,82 28/02/2023
1020 433200 FERNANDA DE FIGUEIREDO NORTE ANALISTA DO MP BELO HORIZONTE - COMARCA; ASSESS JUR DO CONS SUPERIOR DO MINISTERIO PUB 16.169,47 3.233,89 0,00 0,00 0,00 0,00 0,00 1.911,00 21.314,36 2.885,49 3.568,78 0,00 0,00 6.454,27 14.860,09 28/02/2023
1021 419200 FERNANDA DE MIRANDA MARTINS SIMOES ANALISTA DO MP UBERLÂNDIA - COMARCA; UBERLANDIA-PJ-17PJ 16.169,47 3.233,89 0,00 0,00 0,00 0,00 498,02 8.229,24 28.130,62 2.885,49 3.673,05 0,00 0,00 6.558,54 21.572,08 28/02/2023
1022 441400 FERNANDA DE MORAIS PINTO ANALISTA DO MP BELO HORIZONTE - COMARCA; PROC. JUSTICA DIR. DIFUSOS E COLETIVOS-SEC 15.659,55 3.131,91 0,00 0,00 0,00 0,00 0,00 1.911,00 20.702,46 2.787,58 3.531,71 0,00 0,00 6.319,29 14.383,17 28/02/2023
1023 432200 FERNANDA DE MOURA GUIMARAES ANALISTA DO MP BELO HORIZONTE - COMARCA; BH-26 CRIME CONT CRIAN ADOL-SECRETARIA 15.659,55 3.131,91 0,00 0,00 0,00 0,00 0,00 1.911,00 20.702,46 2.787,58 3.531,71 0,00 0,00 6.319,29 14.383,17 28/02/2023
1024 461800 FERNANDA DE OLIVEIRA SANTOS ANALISTA DO MP JUIZ DE FORA - COMARCA; JUIZ DE FORA-PJ-21PJ 13.341,69 2.668,34 0,00 0,00 0,00 0,00 528,33 8.559,91 25.098,27 2.342,55 2.889,20 0,00 0,00 5.231,75 19.866,52 28/02/2023
1025 432500 FERNANDA DE PAULA PINTO ANALISTA DO MP BELO HORIZONTE - COMARCA; PROC JUST ATUACAO TRIBUNAIS SUPERIORES-GAB003 15.659,55 3.131,91 0,00 0,00 0,00 0,00 0,00 2.796,30 21.587,76 2.787,58 3.531,71 0,00 0,00 6.319,29 15.268,47 28/02/2023
1026 431600 FERNANDA DIAS BARBOSA PEREIRA ANALISTA DO MP BELO HORIZONTE - COMARCA; BH-02PJ FAMILIA-SECRETARIA 15.659,55 3.131,91 0,00 0,00 0,00 0,00 482,31 8.057,91 27.331,68 2.787,58 3.375,30 0,00 0,00 6.162,88 21.168,80 28/02/2023
1027 162200 FERNANDA FERNANDES MONTEIRO ASSESSOR ADMINISTRATIVO II BELO HORIZONTE - COMARCA; BH-18PJ VIOLENCIA DOMESTICA-SECRETARIA 0,00 3.347,33 6.694,66 0,00 0,00 0,00 515,49 7.534,51 18.091,99 877,22 1.913,25 0,00 0,00 2.790,47 15.301,52 28/02/2023
1028 512800 FERNANDA FERREIRA BARBOSA MOREIRA ANALISTA DO MP IPATINGA - COMARCA; IPATINGA-PJ-05PJ 11.008,33 2.201,67 0,00 0,00 0,00 0,00 0,00 2.796,30 16.006,30 982,16 2.375,68 0,00 0,00 3.357,84 12.648,46 28/02/2023
1029 329200 FERNANDA GABRIEL GUZELLA OFICIAL DO MP BELO HORIZONTE - COMARCA; DIRET DE PLANOS PROJETOS E PROGRAMAS INST 11.008,33 3.302,50 0,00 0,00 0,00 0,00 262,37 4.773,17 19.346,37 2.070,68 2.496,68 0,00 0,00 4.567,36 14.779,01 28/02/2023
1030 324200 FERNANDA GEORGIA NEVES ZAHAN OFICIAL DO MP IPANEMA - COMARCA; IPANEMA-PJ-01PJ 11.008,33 8.806,67 0,00 0,00 0,00 0,00 508,59 7.459,20 27.782,79 2.951,35 3.768,14 0,00 0,00 6.719,49 21.063,30 28/02/2023
1031 548200 FERNANDA GONCALVES DE CARVALHO ZUZA OFICIAL DO MP TUPACIGUARA - COMARCA; TUPACIGUARA-PJ-01PJ 6.694,66 669,47 0,00 0,00 0,00 0,00 135,01 3.383,83 10.882,97 959,93 891,80 0,00 0,00 1.851,73 9.031,24 28/02/2023
1032 355400 FERNANDA HELENA BASQUES OFICIAL DO MP SABARÁ - COMARCA; SABARA-PJ-01PJ 11.008,33 3.302,50 0,00 0,00 4.770,28 0,00 524,73 7.635,33 27.241,17 2.070,68 3.808,51 0,00 0,00 5.879,19 21.361,98 28/02/2023
1033 454800 FERNANDA IATAROLA BARBOSA DIAS ANALISTA DO MP BARBACENA - COMARCA; BARBACENA-PJ-05PJ 13.341,69 2.668,34 0,00 0,00 0,00 0,00 528,33 7.674,61 24.212,97 2.342,55 2.837,06 0,00 0,00 5.179,61 19.033,36 28/02/2023
1034 515500 FERNANDA LILIANE MARUGEIRO ANALISTA DO MP LAGOA SANTA - COMARCA; LAGOA SANTA-PJ-01PJ 11.008,33 2.201,67 0,00 0,00 0,00 0,00 0,00 3.120,91 16.330,91 1.894,55 2.190,25 0,00 0,00 4.084,80 12.246,11 28/02/2023
1035 392900 FERNANDA MAGALHAES SILVA ANALISTA DO MP BELO HORIZONTE - COMARCA; DIR CONTEUDO JORNALISTICO 16.695,70 3.339,14 0,00 0,00 0,00 0,00 0,00 1.911,00 21.945,84 2.986,52 3.818,93 0,00 0,00 6.805,45 15.140,39 28/02/2023
1036 409200 FERNANDA MAIA SANTIAGO CARDOSO ANALISTA DO MP PIRAPORA - COMARCA; PIRAPORA-PJ-02PJ 11.008,33 2.201,67 0,00 0,00 0,00 0,00 532,80 8.608,70 22.351,50 1.894,55 2.242,39 0,00 0,00 4.136,94 18.214,56 28/02/2023
1037 714100 FERNANDA MELO FIORENZANO REIS ASSESSOR ADMINISTRATIVO IV BELO HORIZONTE - COMARCA; DIR CONTEUDO JORNALISTICO 0,00 0,00 12.920,95 0,00 0,00 0,00 0,00 1.911,00 14.831,95 877,22 2.809,24 0,00 0,00 3.686,46 11.145,49 28/02/2023
1038 556500 FERNANDA OTERO COSTA ANALISTA DO MP BELO HORIZONTE - COMARCA; ASSESS TECNICO-JUR JUNTO AS PROC. DE JUST 11.008,33 1.100,83 0,00 0,00 4.036,39 0,00 532,80 7.723,40 24.401,75 982,16 3.205,66 0,00 0,00 4.187,82 20.213,93 28/02/2023
1039 615300 FERNANDA PATRICIA RIBEIRO MOTA OFICIAL DO MP UBERABA - COMARCA; UBERABA-PJ-10PJ 6.694,66 669,47 0,00 0,00 0,00 0,00 0,00 1.911,00 9.275,13 959,93 891,80 0,00 0,00 1.851,73 7.423,40 28/02/2023
1040 619800 FERNANDA PINTO PEREIRA ANALISTA DO MP UBERLÂNDIA - COMARCA; UBERLANDIA-PJ-20PJ 10.325,15 1.032,52 0,00 0,00 0,00 0,00 0,00 3.681,60 15.039,27 1.598,18 1.762,36 0,00 0,00 3.360,54 11.678,73 28/02/2023
1041 412900 FERNANDA PORTELA ROSA ANALISTA DO MP BELO HORIZONTE - COMARCA; BH-08PJ JUIZADO ESPECIAL-SECRETARIA 16.169,47 3.233,89 0,00 0,00 0,00 0,00 498,02 8.229,24 28.130,62 2.885,49 3.673,05 0,00 0,00 6.558,54 21.572,08 28/02/2023
1042 274301 FERNANDA QUEIROZ PARREIRA ANALISTA DO MP PATOS DE MINAS - COMARCA; GAECO REGIONAL DE PATOS DE MINAS 11.008,33 2.201,67 0,00 0,00 0,00 0,00 0,00 1.911,00 15.121,00 1.894,55 2.242,39 0,00 0,00 4.136,94 10.984,06 28/02/2023
1043 467900 FERNANDA QUEIROZ SIMOES GANNAM ANALISTA DO MP SÃO LOURENÇO - COMARCA; SAO LOURENCO-PJ-02PJ 13.341,69 2.668,34 0,00 0,00 0,00 0,00 0,00 1.911,00 17.921,03 2.342,55 2.837,06 0,00 0,00 5.179,61 12.741,42 28/02/2023